<?xml version="1.0" encoding="UTF-8" standalone="no" ?>
<gpx xmlns="http://www.topografix.com/GPX/1/1" xmlns:xsi="http://www.w3.org/2001/XMLSchema-instance" xsi:schemaLocation="http://www.topografix.com/GPX/1/1 http://www.topografix.com/GPX/1/1/gpx.xsd" version="1.1" creator="VisuGPX - https://www.visugpx.com">
  <metadata>
    <name>boucle au départ d\'Emmersweiler</name>
    <desc><![CDATA[praticable par tous temps, distance modulable par les diverses chemins de travers menant quasiment tous à grande Rosselle]]></desc>
  </metadata>
  <trk>
    <name><![CDATA[2014-03-12-01]]></name>
    <trkseg>
      <trkpt lat="49.17994" lon="6.85237">
        <ele>230.3</ele>
        <time>2014-03-12T07:31:31Z</time>
      </trkpt>
      <trkpt lat="49.17994" lon="6.85237">
        <ele>230.1</ele>
        <time>2014-03-12T07:31:32Z</time>
      </trkpt>
      <trkpt lat="49.17994" lon="6.85236">
        <ele>230.5</ele>
        <time>2014-03-12T07:31:37Z</time>
      </trkpt>
      <trkpt lat="49.17994" lon="6.85235">
        <ele>230.1</ele>
        <time>2014-03-12T07:31:42Z</time>
      </trkpt>
      <trkpt lat="49.17992" lon="6.85231">
        <ele>230</ele>
        <time>2014-03-12T07:31:47Z</time>
      </trkpt>
      <trkpt lat="49.1799" lon="6.85225">
        <ele>230.8</ele>
        <time>2014-03-12T07:31:52Z</time>
      </trkpt>
      <trkpt lat="49.17988" lon="6.8522">
        <ele>229.7</ele>
        <time>2014-03-12T07:31:57Z</time>
      </trkpt>
      <trkpt lat="49.17985" lon="6.85215">
        <ele>230.2</ele>
        <time>2014-03-12T07:32:02Z</time>
      </trkpt>
      <trkpt lat="49.17983" lon="6.85209">
        <ele>228.9</ele>
        <time>2014-03-12T07:32:07Z</time>
      </trkpt>
      <trkpt lat="49.17979" lon="6.85204">
        <ele>230.6</ele>
        <time>2014-03-12T07:32:12Z</time>
      </trkpt>
      <trkpt lat="49.17974" lon="6.85201">
        <ele>230</ele>
        <time>2014-03-12T07:32:17Z</time>
      </trkpt>
      <trkpt lat="49.17969" lon="6.85198">
        <ele>230.3</ele>
        <time>2014-03-12T07:32:22Z</time>
      </trkpt>
      <trkpt lat="49.17963" lon="6.85196">
        <ele>229.5</ele>
        <time>2014-03-12T07:32:27Z</time>
      </trkpt>
      <trkpt lat="49.17958" lon="6.85193">
        <ele>229.6</ele>
        <time>2014-03-12T07:32:32Z</time>
      </trkpt>
      <trkpt lat="49.17952" lon="6.8519">
        <ele>229.7</ele>
        <time>2014-03-12T07:32:37Z</time>
      </trkpt>
      <trkpt lat="49.17948" lon="6.85188">
        <ele>229.9</ele>
        <time>2014-03-12T07:32:42Z</time>
      </trkpt>
      <trkpt lat="49.17942" lon="6.85186">
        <ele>229.6</ele>
        <time>2014-03-12T07:32:47Z</time>
      </trkpt>
      <trkpt lat="49.17937" lon="6.85185">
        <ele>229.4</ele>
        <time>2014-03-12T07:32:52Z</time>
      </trkpt>
      <trkpt lat="49.17931" lon="6.85183">
        <ele>229.9</ele>
        <time>2014-03-12T07:32:57Z</time>
      </trkpt>
      <trkpt lat="49.17926" lon="6.85181">
        <ele>229.1</ele>
        <time>2014-03-12T07:33:02Z</time>
      </trkpt>
      <trkpt lat="49.1792" lon="6.8518">
        <ele>229.8</ele>
        <time>2014-03-12T07:33:07Z</time>
      </trkpt>
      <trkpt lat="49.17913" lon="6.8518">
        <ele>230.1</ele>
        <time>2014-03-12T07:33:12Z</time>
      </trkpt>
      <trkpt lat="49.17906" lon="6.8518">
        <ele>229.9</ele>
        <time>2014-03-12T07:33:17Z</time>
      </trkpt>
      <trkpt lat="49.17898" lon="6.85179">
        <ele>230.4</ele>
        <time>2014-03-12T07:33:22Z</time>
      </trkpt>
      <trkpt lat="49.17892" lon="6.85176">
        <ele>230.7</ele>
        <time>2014-03-12T07:33:27Z</time>
      </trkpt>
      <trkpt lat="49.17885" lon="6.85173">
        <ele>230.4</ele>
        <time>2014-03-12T07:33:32Z</time>
      </trkpt>
      <trkpt lat="49.17879" lon="6.8517">
        <ele>229.9</ele>
        <time>2014-03-12T07:33:37Z</time>
      </trkpt>
      <trkpt lat="49.17873" lon="6.85167">
        <ele>230.5</ele>
        <time>2014-03-12T07:33:42Z</time>
      </trkpt>
      <trkpt lat="49.17867" lon="6.85165">
        <ele>229.6</ele>
        <time>2014-03-12T07:33:47Z</time>
      </trkpt>
      <trkpt lat="49.1786" lon="6.85163">
        <ele>230.5</ele>
        <time>2014-03-12T07:33:52Z</time>
      </trkpt>
      <trkpt lat="49.17854" lon="6.8516">
        <ele>229.8</ele>
        <time>2014-03-12T07:33:57Z</time>
      </trkpt>
      <trkpt lat="49.17848" lon="6.85158">
        <ele>230.6</ele>
        <time>2014-03-12T07:34:02Z</time>
      </trkpt>
      <trkpt lat="49.17841" lon="6.85155">
        <ele>230.3</ele>
        <time>2014-03-12T07:34:07Z</time>
      </trkpt>
      <trkpt lat="49.17835" lon="6.85153">
        <ele>229.6</ele>
        <time>2014-03-12T07:34:12Z</time>
      </trkpt>
      <trkpt lat="49.17829" lon="6.85151">
        <ele>230.1</ele>
        <time>2014-03-12T07:34:17Z</time>
      </trkpt>
      <trkpt lat="49.17823" lon="6.85148">
        <ele>231.4</ele>
        <time>2014-03-12T07:34:22Z</time>
      </trkpt>
      <trkpt lat="49.17817" lon="6.85146">
        <ele>232.3</ele>
        <time>2014-03-12T07:34:27Z</time>
      </trkpt>
      <trkpt lat="49.17811" lon="6.85143">
        <ele>232.3</ele>
        <time>2014-03-12T07:34:32Z</time>
      </trkpt>
      <trkpt lat="49.17805" lon="6.8514">
        <ele>232.6</ele>
        <time>2014-03-12T07:34:37Z</time>
      </trkpt>
      <trkpt lat="49.17799" lon="6.85137">
        <ele>232.3</ele>
        <time>2014-03-12T07:34:42Z</time>
      </trkpt>
      <trkpt lat="49.17792" lon="6.85135">
        <ele>233.1</ele>
        <time>2014-03-12T07:34:47Z</time>
      </trkpt>
      <trkpt lat="49.1778" lon="6.85129">
        <ele>232.7</ele>
        <time>2014-03-12T07:34:57Z</time>
      </trkpt>
      <trkpt lat="49.17775" lon="6.85126">
        <ele>232.8</ele>
        <time>2014-03-12T07:35:02Z</time>
      </trkpt>
      <trkpt lat="49.17769" lon="6.85123">
        <ele>233.5</ele>
        <time>2014-03-12T07:35:07Z</time>
      </trkpt>
      <trkpt lat="49.17762" lon="6.85119">
        <ele>233.4</ele>
        <time>2014-03-12T07:35:12Z</time>
      </trkpt>
      <trkpt lat="49.17757" lon="6.85116">
        <ele>233.2</ele>
        <time>2014-03-12T07:35:17Z</time>
      </trkpt>
      <trkpt lat="49.17752" lon="6.85113">
        <ele>233.2</ele>
        <time>2014-03-12T07:35:22Z</time>
      </trkpt>
      <trkpt lat="49.17747" lon="6.85109">
        <ele>232.7</ele>
        <time>2014-03-12T07:35:27Z</time>
      </trkpt>
      <trkpt lat="49.17741" lon="6.85106">
        <ele>233.1</ele>
        <time>2014-03-12T07:35:32Z</time>
      </trkpt>
      <trkpt lat="49.17734" lon="6.85104">
        <ele>233.7</ele>
        <time>2014-03-12T07:35:37Z</time>
      </trkpt>
      <trkpt lat="49.17728" lon="6.85101">
        <ele>233.4</ele>
        <time>2014-03-12T07:35:42Z</time>
      </trkpt>
      <trkpt lat="49.17722" lon="6.85098">
        <ele>233.4</ele>
        <time>2014-03-12T07:35:47Z</time>
      </trkpt>
      <trkpt lat="49.17716" lon="6.85095">
        <ele>233.3</ele>
        <time>2014-03-12T07:35:52Z</time>
      </trkpt>
      <trkpt lat="49.17705" lon="6.85093">
        <ele>234.6</ele>
        <time>2014-03-12T07:36:02Z</time>
      </trkpt>
      <trkpt lat="49.177" lon="6.8509">
        <ele>234.1</ele>
        <time>2014-03-12T07:36:07Z</time>
      </trkpt>
      <trkpt lat="49.17696" lon="6.85084">
        <ele>234.5</ele>
        <time>2014-03-12T07:36:12Z</time>
      </trkpt>
      <trkpt lat="49.17695" lon="6.85075">
        <ele>234.8</ele>
        <time>2014-03-12T07:36:17Z</time>
      </trkpt>
      <trkpt lat="49.17699" lon="6.85067">
        <ele>233.4</ele>
        <time>2014-03-12T07:36:22Z</time>
      </trkpt>
      <trkpt lat="49.17702" lon="6.85059">
        <ele>232.8</ele>
        <time>2014-03-12T07:36:27Z</time>
      </trkpt>
      <trkpt lat="49.17706" lon="6.85056">
        <ele>232.7</ele>
        <time>2014-03-12T07:36:32Z</time>
      </trkpt>
      <trkpt lat="49.17709" lon="6.85051">
        <ele>231.6</ele>
        <time>2014-03-12T07:36:37Z</time>
      </trkpt>
      <trkpt lat="49.17711" lon="6.85046">
        <ele>231</ele>
        <time>2014-03-12T07:36:42Z</time>
      </trkpt>
      <trkpt lat="49.17714" lon="6.85039">
        <ele>230.1</ele>
        <time>2014-03-12T07:36:47Z</time>
      </trkpt>
      <trkpt lat="49.17716" lon="6.85034">
        <ele>229.1</ele>
        <time>2014-03-12T07:36:52Z</time>
      </trkpt>
      <trkpt lat="49.1772" lon="6.85028">
        <ele>228.8</ele>
        <time>2014-03-12T07:36:57Z</time>
      </trkpt>
      <trkpt lat="49.17726" lon="6.85016">
        <ele>228.3</ele>
        <time>2014-03-12T07:37:07Z</time>
      </trkpt>
      <trkpt lat="49.1773" lon="6.8501">
        <ele>227.9</ele>
        <time>2014-03-12T07:37:12Z</time>
      </trkpt>
      <trkpt lat="49.17735" lon="6.85004">
        <ele>226.8</ele>
        <time>2014-03-12T07:37:17Z</time>
      </trkpt>
      <trkpt lat="49.17738" lon="6.84999">
        <ele>226.6</ele>
        <time>2014-03-12T07:37:22Z</time>
      </trkpt>
      <trkpt lat="49.1774" lon="6.84993">
        <ele>226.6</ele>
        <time>2014-03-12T07:37:27Z</time>
      </trkpt>
      <trkpt lat="49.17745" lon="6.84987">
        <ele>226.1</ele>
        <time>2014-03-12T07:37:32Z</time>
      </trkpt>
      <trkpt lat="49.1775" lon="6.8498">
        <ele>225.1</ele>
        <time>2014-03-12T07:37:37Z</time>
      </trkpt>
      <trkpt lat="49.17754" lon="6.84973">
        <ele>224.2</ele>
        <time>2014-03-12T07:37:42Z</time>
      </trkpt>
      <trkpt lat="49.17758" lon="6.84968">
        <ele>223.7</ele>
        <time>2014-03-12T07:37:47Z</time>
      </trkpt>
      <trkpt lat="49.17761" lon="6.84961">
        <ele>222.8</ele>
        <time>2014-03-12T07:37:52Z</time>
      </trkpt>
      <trkpt lat="49.17765" lon="6.84954">
        <ele>222.9</ele>
        <time>2014-03-12T07:37:57Z</time>
      </trkpt>
      <trkpt lat="49.17769" lon="6.84948">
        <ele>223.2</ele>
        <time>2014-03-12T07:38:02Z</time>
      </trkpt>
      <trkpt lat="49.17778" lon="6.84937">
        <ele>222.2</ele>
        <time>2014-03-12T07:38:12Z</time>
      </trkpt>
      <trkpt lat="49.17782" lon="6.84933">
        <ele>221.2</ele>
        <time>2014-03-12T07:38:17Z</time>
      </trkpt>
      <trkpt lat="49.17785" lon="6.8493">
        <ele>221.2</ele>
        <time>2014-03-12T07:38:22Z</time>
      </trkpt>
      <trkpt lat="49.17789" lon="6.84927">
        <ele>221.3</ele>
        <time>2014-03-12T07:38:27Z</time>
      </trkpt>
      <trkpt lat="49.17792" lon="6.84924">
        <ele>221</ele>
        <time>2014-03-12T07:38:32Z</time>
      </trkpt>
      <trkpt lat="49.17796" lon="6.84921">
        <ele>220.9</ele>
        <time>2014-03-12T07:38:37Z</time>
      </trkpt>
      <trkpt lat="49.17798" lon="6.84919">
        <ele>220.5</ele>
        <time>2014-03-12T07:38:42Z</time>
      </trkpt>
      <trkpt lat="49.17799" lon="6.84919">
        <ele>220.2</ele>
        <time>2014-03-12T07:38:47Z</time>
      </trkpt>
      <trkpt lat="49.178" lon="6.84919">
        <ele>220.8</ele>
        <time>2014-03-12T07:38:52Z</time>
      </trkpt>
      <trkpt lat="49.178" lon="6.8492">
        <ele>220.6</ele>
        <time>2014-03-12T07:38:57Z</time>
      </trkpt>
      <trkpt lat="49.17801" lon="6.84921">
        <ele>220.3</ele>
        <time>2014-03-12T07:39:02Z</time>
      </trkpt>
      <trkpt lat="49.17801" lon="6.84922">
        <ele>220.3</ele>
        <time>2014-03-12T07:39:07Z</time>
      </trkpt>
      <trkpt lat="49.17801" lon="6.84925">
        <ele>220.2</ele>
        <time>2014-03-12T07:39:17Z</time>
      </trkpt>
      <trkpt lat="49.17801" lon="6.84925">
        <ele>220.3</ele>
        <time>2014-03-12T07:39:22Z</time>
      </trkpt>
      <trkpt lat="49.178" lon="6.84926">
        <ele>220.3</ele>
        <time>2014-03-12T07:39:27Z</time>
      </trkpt>
      <trkpt lat="49.178" lon="6.84927">
        <ele>220.2</ele>
        <time>2014-03-12T07:39:32Z</time>
      </trkpt>
      <trkpt lat="49.178" lon="6.84929">
        <ele>221.2</ele>
        <time>2014-03-12T07:39:37Z</time>
      </trkpt>
      <trkpt lat="49.17798" lon="6.84931">
        <ele>221</ele>
        <time>2014-03-12T07:39:42Z</time>
      </trkpt>
      <trkpt lat="49.17796" lon="6.84933">
        <ele>220.4</ele>
        <time>2014-03-12T07:39:47Z</time>
      </trkpt>
      <trkpt lat="49.17794" lon="6.84936">
        <ele>220.8</ele>
        <time>2014-03-12T07:39:52Z</time>
      </trkpt>
      <trkpt lat="49.17791" lon="6.84939">
        <ele>221.7</ele>
        <time>2014-03-12T07:39:57Z</time>
      </trkpt>
      <trkpt lat="49.17788" lon="6.84944">
        <ele>221.2</ele>
        <time>2014-03-12T07:40:02Z</time>
      </trkpt>
      <trkpt lat="49.17784" lon="6.84951">
        <ele>222.3</ele>
        <time>2014-03-12T07:40:07Z</time>
      </trkpt>
      <trkpt lat="49.17779" lon="6.84956">
        <ele>222.8</ele>
        <time>2014-03-12T07:40:12Z</time>
      </trkpt>
      <trkpt lat="49.17769" lon="6.84967">
        <ele>223.1</ele>
        <time>2014-03-12T07:40:22Z</time>
      </trkpt>
      <trkpt lat="49.17765" lon="6.84973">
        <ele>223.6</ele>
        <time>2014-03-12T07:40:27Z</time>
      </trkpt>
      <trkpt lat="49.17759" lon="6.8498">
        <ele>224.2</ele>
        <time>2014-03-12T07:40:32Z</time>
      </trkpt>
      <trkpt lat="49.17754" lon="6.84987">
        <ele>224.3</ele>
        <time>2014-03-12T07:40:37Z</time>
      </trkpt>
      <trkpt lat="49.17749" lon="6.84992">
        <ele>224.5</ele>
        <time>2014-03-12T07:40:42Z</time>
      </trkpt>
      <trkpt lat="49.17743" lon="6.84998">
        <ele>225.2</ele>
        <time>2014-03-12T07:40:47Z</time>
      </trkpt>
      <trkpt lat="49.17738" lon="6.85004">
        <ele>226.6</ele>
        <time>2014-03-12T07:40:52Z</time>
      </trkpt>
      <trkpt lat="49.17733" lon="6.85011">
        <ele>226.8</ele>
        <time>2014-03-12T07:40:57Z</time>
      </trkpt>
      <trkpt lat="49.17729" lon="6.85016">
        <ele>226.9</ele>
        <time>2014-03-12T07:41:02Z</time>
      </trkpt>
      <trkpt lat="49.17726" lon="6.85022">
        <ele>227.2</ele>
        <time>2014-03-12T07:41:07Z</time>
      </trkpt>
      <trkpt lat="49.17721" lon="6.85028">
        <ele>227.8</ele>
        <time>2014-03-12T07:41:12Z</time>
      </trkpt>
      <trkpt lat="49.17716" lon="6.85034">
        <ele>229.6</ele>
        <time>2014-03-12T07:41:17Z</time>
      </trkpt>
      <trkpt lat="49.1771" lon="6.85045">
        <ele>230.1</ele>
        <time>2014-03-12T07:41:27Z</time>
      </trkpt>
      <trkpt lat="49.1771" lon="6.85047">
        <ele>231.1</ele>
        <time>2014-03-12T07:41:32Z</time>
      </trkpt>
      <trkpt lat="49.17712" lon="6.85045">
        <ele>230.2</ele>
        <time>2014-03-12T07:41:37Z</time>
      </trkpt>
      <trkpt lat="49.17714" lon="6.8504">
        <ele>229.7</ele>
        <time>2014-03-12T07:41:42Z</time>
      </trkpt>
      <trkpt lat="49.17717" lon="6.85036">
        <ele>228.7</ele>
        <time>2014-03-12T07:41:47Z</time>
      </trkpt>
      <trkpt lat="49.1772" lon="6.85031">
        <ele>228</ele>
        <time>2014-03-12T07:41:52Z</time>
      </trkpt>
      <trkpt lat="49.17725" lon="6.85025">
        <ele>227.3</ele>
        <time>2014-03-12T07:41:57Z</time>
      </trkpt>
      <trkpt lat="49.17729" lon="6.85018">
        <ele>227</ele>
        <time>2014-03-12T07:42:02Z</time>
      </trkpt>
      <trkpt lat="49.17733" lon="6.85011">
        <ele>226.4</ele>
        <time>2014-03-12T07:42:07Z</time>
      </trkpt>
      <trkpt lat="49.17737" lon="6.85004">
        <ele>225.5</ele>
        <time>2014-03-12T07:42:12Z</time>
      </trkpt>
      <trkpt lat="49.17742" lon="6.84996">
        <ele>224.9</ele>
        <time>2014-03-12T07:42:17Z</time>
      </trkpt>
      <trkpt lat="49.17747" lon="6.84989">
        <ele>224.3</ele>
        <time>2014-03-12T07:42:22Z</time>
      </trkpt>
      <trkpt lat="49.17756" lon="6.84973">
        <ele>223.3</ele>
        <time>2014-03-12T07:42:32Z</time>
      </trkpt>
      <trkpt lat="49.17761" lon="6.84966">
        <ele>222.8</ele>
        <time>2014-03-12T07:42:37Z</time>
      </trkpt>
      <trkpt lat="49.17766" lon="6.84958">
        <ele>222.6</ele>
        <time>2014-03-12T07:42:42Z</time>
      </trkpt>
      <trkpt lat="49.17772" lon="6.84951">
        <ele>222.5</ele>
        <time>2014-03-12T07:42:47Z</time>
      </trkpt>
      <trkpt lat="49.17777" lon="6.84945">
        <ele>221.7</ele>
        <time>2014-03-12T07:42:52Z</time>
      </trkpt>
      <trkpt lat="49.17782" lon="6.84938">
        <ele>221.1</ele>
        <time>2014-03-12T07:42:57Z</time>
      </trkpt>
      <trkpt lat="49.17787" lon="6.84933">
        <ele>220.6</ele>
        <time>2014-03-12T07:43:02Z</time>
      </trkpt>
      <trkpt lat="49.17791" lon="6.84928">
        <ele>220.1</ele>
        <time>2014-03-12T07:43:07Z</time>
      </trkpt>
      <trkpt lat="49.17796" lon="6.84923">
        <ele>220.2</ele>
        <time>2014-03-12T07:43:12Z</time>
      </trkpt>
      <trkpt lat="49.17801" lon="6.84917">
        <ele>219.7</ele>
        <time>2014-03-12T07:43:17Z</time>
      </trkpt>
      <trkpt lat="49.17806" lon="6.84912">
        <ele>219.5</ele>
        <time>2014-03-12T07:43:22Z</time>
      </trkpt>
      <trkpt lat="49.1781" lon="6.84906">
        <ele>220</ele>
        <time>2014-03-12T07:43:27Z</time>
      </trkpt>
      <trkpt lat="49.17819" lon="6.84896">
        <ele>219.1</ele>
        <time>2014-03-12T07:43:37Z</time>
      </trkpt>
      <trkpt lat="49.17823" lon="6.84891">
        <ele>218.5</ele>
        <time>2014-03-12T07:43:42Z</time>
      </trkpt>
      <trkpt lat="49.17828" lon="6.84885">
        <ele>218.8</ele>
        <time>2014-03-12T07:43:47Z</time>
      </trkpt>
      <trkpt lat="49.17832" lon="6.84878">
        <ele>218.6</ele>
        <time>2014-03-12T07:43:52Z</time>
      </trkpt>
      <trkpt lat="49.17837" lon="6.84872">
        <ele>217.9</ele>
        <time>2014-03-12T07:43:57Z</time>
      </trkpt>
      <trkpt lat="49.17841" lon="6.84865">
        <ele>217.7</ele>
        <time>2014-03-12T07:44:02Z</time>
      </trkpt>
      <trkpt lat="49.17845" lon="6.84858">
        <ele>217.6</ele>
        <time>2014-03-12T07:44:07Z</time>
      </trkpt>
      <trkpt lat="49.17848" lon="6.8485">
        <ele>217.2</ele>
        <time>2014-03-12T07:44:12Z</time>
      </trkpt>
      <trkpt lat="49.1785" lon="6.84841">
        <ele>216.6</ele>
        <time>2014-03-12T07:44:17Z</time>
      </trkpt>
      <trkpt lat="49.17854" lon="6.84833">
        <ele>216.3</ele>
        <time>2014-03-12T07:44:22Z</time>
      </trkpt>
      <trkpt lat="49.17858" lon="6.84826">
        <ele>217.2</ele>
        <time>2014-03-12T07:44:27Z</time>
      </trkpt>
      <trkpt lat="49.17862" lon="6.84818">
        <ele>216.4</ele>
        <time>2014-03-12T07:44:32Z</time>
      </trkpt>
      <trkpt lat="49.17872" lon="6.84806">
        <ele>216.8</ele>
        <time>2014-03-12T07:44:42Z</time>
      </trkpt>
      <trkpt lat="49.17878" lon="6.84802">
        <ele>216.7</ele>
        <time>2014-03-12T07:44:47Z</time>
      </trkpt>
      <trkpt lat="49.17882" lon="6.84801">
        <ele>216.3</ele>
        <time>2014-03-12T07:44:52Z</time>
      </trkpt>
      <trkpt lat="49.17888" lon="6.84802">
        <ele>215.8</ele>
        <time>2014-03-12T07:44:57Z</time>
      </trkpt>
      <trkpt lat="49.17894" lon="6.84806">
        <ele>215.5</ele>
        <time>2014-03-12T07:45:02Z</time>
      </trkpt>
      <trkpt lat="49.17899" lon="6.8481">
        <ele>215.8</ele>
        <time>2014-03-12T07:45:07Z</time>
      </trkpt>
      <trkpt lat="49.17905" lon="6.84816">
        <ele>214.6</ele>
        <time>2014-03-12T07:45:12Z</time>
      </trkpt>
      <trkpt lat="49.17911" lon="6.84822">
        <ele>213.8</ele>
        <time>2014-03-12T07:45:17Z</time>
      </trkpt>
      <trkpt lat="49.17917" lon="6.84828">
        <ele>213.6</ele>
        <time>2014-03-12T07:45:22Z</time>
      </trkpt>
      <trkpt lat="49.17923" lon="6.84833">
        <ele>213.4</ele>
        <time>2014-03-12T07:45:27Z</time>
      </trkpt>
      <trkpt lat="49.17929" lon="6.84837">
        <ele>213</ele>
        <time>2014-03-12T07:45:32Z</time>
      </trkpt>
      <trkpt lat="49.17935" lon="6.84843">
        <ele>212.7</ele>
        <time>2014-03-12T07:45:37Z</time>
      </trkpt>
      <trkpt lat="49.17946" lon="6.84855">
        <ele>211.4</ele>
        <time>2014-03-12T07:45:47Z</time>
      </trkpt>
      <trkpt lat="49.17951" lon="6.84861">
        <ele>211.2</ele>
        <time>2014-03-12T07:45:52Z</time>
      </trkpt>
      <trkpt lat="49.17956" lon="6.84867">
        <ele>211.1</ele>
        <time>2014-03-12T07:45:57Z</time>
      </trkpt>
      <trkpt lat="49.17961" lon="6.84874">
        <ele>210.8</ele>
        <time>2014-03-12T07:46:02Z</time>
      </trkpt>
      <trkpt lat="49.17966" lon="6.8488">
        <ele>210.6</ele>
        <time>2014-03-12T07:46:07Z</time>
      </trkpt>
      <trkpt lat="49.17971" lon="6.84887">
        <ele>210</ele>
        <time>2014-03-12T07:46:12Z</time>
      </trkpt>
      <trkpt lat="49.17977" lon="6.84891">
        <ele>209.7</ele>
        <time>2014-03-12T07:46:17Z</time>
      </trkpt>
      <trkpt lat="49.17983" lon="6.84896">
        <ele>208.9</ele>
        <time>2014-03-12T07:46:22Z</time>
      </trkpt>
      <trkpt lat="49.1799" lon="6.84902">
        <ele>209.5</ele>
        <time>2014-03-12T07:46:27Z</time>
      </trkpt>
      <trkpt lat="49.17996" lon="6.84909">
        <ele>208.7</ele>
        <time>2014-03-12T07:46:32Z</time>
      </trkpt>
      <trkpt lat="49.18002" lon="6.84917">
        <ele>208.9</ele>
        <time>2014-03-12T07:46:37Z</time>
      </trkpt>
      <trkpt lat="49.18007" lon="6.84923">
        <ele>208.4</ele>
        <time>2014-03-12T07:46:42Z</time>
      </trkpt>
      <trkpt lat="49.18018" lon="6.84934">
        <ele>207.4</ele>
        <time>2014-03-12T07:46:52Z</time>
      </trkpt>
      <trkpt lat="49.18024" lon="6.84941">
        <ele>207.2</ele>
        <time>2014-03-12T07:46:57Z</time>
      </trkpt>
      <trkpt lat="49.1803" lon="6.84945">
        <ele>207</ele>
        <time>2014-03-12T07:47:02Z</time>
      </trkpt>
      <trkpt lat="49.18035" lon="6.84948">
        <ele>207</ele>
        <time>2014-03-12T07:47:07Z</time>
      </trkpt>
      <trkpt lat="49.18041" lon="6.84951">
        <ele>206.8</ele>
        <time>2014-03-12T07:47:12Z</time>
      </trkpt>
      <trkpt lat="49.18046" lon="6.84954">
        <ele>206.1</ele>
        <time>2014-03-12T07:47:17Z</time>
      </trkpt>
      <trkpt lat="49.18053" lon="6.84958">
        <ele>206</ele>
        <time>2014-03-12T07:47:22Z</time>
      </trkpt>
      <trkpt lat="49.1806" lon="6.8496">
        <ele>205.3</ele>
        <time>2014-03-12T07:47:27Z</time>
      </trkpt>
      <trkpt lat="49.18066" lon="6.84963">
        <ele>204.9</ele>
        <time>2014-03-12T07:47:32Z</time>
      </trkpt>
      <trkpt lat="49.18072" lon="6.84965">
        <ele>204.6</ele>
        <time>2014-03-12T07:47:37Z</time>
      </trkpt>
      <trkpt lat="49.18078" lon="6.84968">
        <ele>204.7</ele>
        <time>2014-03-12T07:47:42Z</time>
      </trkpt>
      <trkpt lat="49.18085" lon="6.84971">
        <ele>204.5</ele>
        <time>2014-03-12T07:47:47Z</time>
      </trkpt>
      <trkpt lat="49.18099" lon="6.84978">
        <ele>203.9</ele>
        <time>2014-03-12T07:47:57Z</time>
      </trkpt>
      <trkpt lat="49.18105" lon="6.84981">
        <ele>202.9</ele>
        <time>2014-03-12T07:48:02Z</time>
      </trkpt>
      <trkpt lat="49.18112" lon="6.84984">
        <ele>203.6</ele>
        <time>2014-03-12T07:48:07Z</time>
      </trkpt>
      <trkpt lat="49.18119" lon="6.84988">
        <ele>203.6</ele>
        <time>2014-03-12T07:48:12Z</time>
      </trkpt>
      <trkpt lat="49.18126" lon="6.84992">
        <ele>203.1</ele>
        <time>2014-03-12T07:48:17Z</time>
      </trkpt>
      <trkpt lat="49.18132" lon="6.84995">
        <ele>202.9</ele>
        <time>2014-03-12T07:48:22Z</time>
      </trkpt>
      <trkpt lat="49.18137" lon="6.84999">
        <ele>202.2</ele>
        <time>2014-03-12T07:48:27Z</time>
      </trkpt>
      <trkpt lat="49.18142" lon="6.85003">
        <ele>202</ele>
        <time>2014-03-12T07:48:32Z</time>
      </trkpt>
      <trkpt lat="49.18147" lon="6.85008">
        <ele>202.2</ele>
        <time>2014-03-12T07:48:37Z</time>
      </trkpt>
      <trkpt lat="49.18153" lon="6.85013">
        <ele>202.2</ele>
        <time>2014-03-12T07:48:42Z</time>
      </trkpt>
      <trkpt lat="49.18157" lon="6.85018">
        <ele>201.6</ele>
        <time>2014-03-12T07:48:47Z</time>
      </trkpt>
      <trkpt lat="49.18163" lon="6.85022">
        <ele>201.1</ele>
        <time>2014-03-12T07:48:52Z</time>
      </trkpt>
      <trkpt lat="49.18172" lon="6.85032">
        <ele>199.8</ele>
        <time>2014-03-12T07:49:02Z</time>
      </trkpt>
      <trkpt lat="49.18177" lon="6.85037">
        <ele>199.6</ele>
        <time>2014-03-12T07:49:07Z</time>
      </trkpt>
      <trkpt lat="49.18183" lon="6.85042">
        <ele>199.3</ele>
        <time>2014-03-12T07:49:12Z</time>
      </trkpt>
      <trkpt lat="49.18188" lon="6.85048">
        <ele>198.6</ele>
        <time>2014-03-12T07:49:17Z</time>
      </trkpt>
      <trkpt lat="49.18194" lon="6.85053">
        <ele>198.5</ele>
        <time>2014-03-12T07:49:22Z</time>
      </trkpt>
      <trkpt lat="49.182" lon="6.85058">
        <ele>198.5</ele>
        <time>2014-03-12T07:49:27Z</time>
      </trkpt>
      <trkpt lat="49.18207" lon="6.85055">
        <ele>198.1</ele>
        <time>2014-03-12T07:49:32Z</time>
      </trkpt>
      <trkpt lat="49.18208" lon="6.85047">
        <ele>197.4</ele>
        <time>2014-03-12T07:49:37Z</time>
      </trkpt>
      <trkpt lat="49.18209" lon="6.85039">
        <ele>197</ele>
        <time>2014-03-12T07:49:42Z</time>
      </trkpt>
      <trkpt lat="49.18209" lon="6.8503">
        <ele>197.3</ele>
        <time>2014-03-12T07:49:47Z</time>
      </trkpt>
      <trkpt lat="49.18209" lon="6.85021">
        <ele>197.3</ele>
        <time>2014-03-12T07:49:52Z</time>
      </trkpt>
      <trkpt lat="49.18208" lon="6.85012">
        <ele>197.7</ele>
        <time>2014-03-12T07:49:57Z</time>
      </trkpt>
      <trkpt lat="49.18205" lon="6.84993">
        <ele>197.8</ele>
        <time>2014-03-12T07:50:07Z</time>
      </trkpt>
      <trkpt lat="49.18203" lon="6.84983">
        <ele>197.5</ele>
        <time>2014-03-12T07:50:12Z</time>
      </trkpt>
      <trkpt lat="49.18202" lon="6.84975">
        <ele>197.5</ele>
        <time>2014-03-12T07:50:17Z</time>
      </trkpt>
      <trkpt lat="49.182" lon="6.84965">
        <ele>197.6</ele>
        <time>2014-03-12T07:50:22Z</time>
      </trkpt>
      <trkpt lat="49.18199" lon="6.84956">
        <ele>197.5</ele>
        <time>2014-03-12T07:50:27Z</time>
      </trkpt>
      <trkpt lat="49.18196" lon="6.84946">
        <ele>197</ele>
        <time>2014-03-12T07:50:32Z</time>
      </trkpt>
      <trkpt lat="49.18195" lon="6.84936">
        <ele>196.9</ele>
        <time>2014-03-12T07:50:37Z</time>
      </trkpt>
      <trkpt lat="49.18194" lon="6.84927">
        <ele>197</ele>
        <time>2014-03-12T07:50:42Z</time>
      </trkpt>
      <trkpt lat="49.18193" lon="6.84918">
        <ele>197.9</ele>
        <time>2014-03-12T07:50:47Z</time>
      </trkpt>
      <trkpt lat="49.18191" lon="6.84906">
        <ele>197.4</ele>
        <time>2014-03-12T07:50:52Z</time>
      </trkpt>
      <trkpt lat="49.18189" lon="6.84897">
        <ele>197.1</ele>
        <time>2014-03-12T07:50:57Z</time>
      </trkpt>
      <trkpt lat="49.18188" lon="6.84887">
        <ele>197.2</ele>
        <time>2014-03-12T07:51:02Z</time>
      </trkpt>
      <trkpt lat="49.18185" lon="6.84865">
        <ele>196.7</ele>
        <time>2014-03-12T07:51:12Z</time>
      </trkpt>
      <trkpt lat="49.18184" lon="6.84856">
        <ele>197</ele>
        <time>2014-03-12T07:51:17Z</time>
      </trkpt>
      <trkpt lat="49.18184" lon="6.84846">
        <ele>197.1</ele>
        <time>2014-03-12T07:51:22Z</time>
      </trkpt>
      <trkpt lat="49.18184" lon="6.84835">
        <ele>197.3</ele>
        <time>2014-03-12T07:51:27Z</time>
      </trkpt>
      <trkpt lat="49.18185" lon="6.84826">
        <ele>197.7</ele>
        <time>2014-03-12T07:51:32Z</time>
      </trkpt>
      <trkpt lat="49.18189" lon="6.84821">
        <ele>197.4</ele>
        <time>2014-03-12T07:51:37Z</time>
      </trkpt>
      <trkpt lat="49.18192" lon="6.8482">
        <ele>196.4</ele>
        <time>2014-03-12T07:51:42Z</time>
      </trkpt>
      <trkpt lat="49.18196" lon="6.84816">
        <ele>196.5</ele>
        <time>2014-03-12T07:51:47Z</time>
      </trkpt>
      <trkpt lat="49.182" lon="6.84815">
        <ele>195.9</ele>
        <time>2014-03-12T07:51:52Z</time>
      </trkpt>
      <trkpt lat="49.18205" lon="6.84814">
        <ele>195.3</ele>
        <time>2014-03-12T07:51:57Z</time>
      </trkpt>
      <trkpt lat="49.1821" lon="6.84814">
        <ele>195.9</ele>
        <time>2014-03-12T07:52:02Z</time>
      </trkpt>
      <trkpt lat="49.18216" lon="6.84813">
        <ele>195.9</ele>
        <time>2014-03-12T07:52:07Z</time>
      </trkpt>
      <trkpt lat="49.1823" lon="6.84808">
        <ele>195.8</ele>
        <time>2014-03-12T07:52:17Z</time>
      </trkpt>
      <trkpt lat="49.18236" lon="6.84804">
        <ele>196.3</ele>
        <time>2014-03-12T07:52:22Z</time>
      </trkpt>
      <trkpt lat="49.18242" lon="6.848">
        <ele>196.6</ele>
        <time>2014-03-12T07:52:27Z</time>
      </trkpt>
      <trkpt lat="49.18246" lon="6.84791">
        <ele>197.2</ele>
        <time>2014-03-12T07:52:32Z</time>
      </trkpt>
      <trkpt lat="49.18249" lon="6.84781">
        <ele>197</ele>
        <time>2014-03-12T07:52:37Z</time>
      </trkpt>
      <trkpt lat="49.18249" lon="6.84771">
        <ele>197.1</ele>
        <time>2014-03-12T07:52:42Z</time>
      </trkpt>
      <trkpt lat="49.18249" lon="6.84761">
        <ele>197.3</ele>
        <time>2014-03-12T07:52:47Z</time>
      </trkpt>
      <trkpt lat="49.18248" lon="6.84752">
        <ele>197.5</ele>
        <time>2014-03-12T07:52:52Z</time>
      </trkpt>
      <trkpt lat="49.18247" lon="6.84743">
        <ele>197.9</ele>
        <time>2014-03-12T07:52:57Z</time>
      </trkpt>
      <trkpt lat="49.18247" lon="6.84733">
        <ele>197.4</ele>
        <time>2014-03-12T07:53:02Z</time>
      </trkpt>
      <trkpt lat="49.18247" lon="6.84723">
        <ele>197.8</ele>
        <time>2014-03-12T07:53:07Z</time>
      </trkpt>
      <trkpt lat="49.18247" lon="6.84713">
        <ele>197.8</ele>
        <time>2014-03-12T07:53:12Z</time>
      </trkpt>
      <trkpt lat="49.18245" lon="6.84693">
        <ele>197.9</ele>
        <time>2014-03-12T07:53:22Z</time>
      </trkpt>
      <trkpt lat="49.18244" lon="6.84683">
        <ele>197.9</ele>
        <time>2014-03-12T07:53:27Z</time>
      </trkpt>
      <trkpt lat="49.18243" lon="6.84674">
        <ele>198.2</ele>
        <time>2014-03-12T07:53:32Z</time>
      </trkpt>
      <trkpt lat="49.18242" lon="6.84665">
        <ele>197.9</ele>
        <time>2014-03-12T07:53:37Z</time>
      </trkpt>
      <trkpt lat="49.18241" lon="6.84656">
        <ele>197.6</ele>
        <time>2014-03-12T07:53:42Z</time>
      </trkpt>
      <trkpt lat="49.18239" lon="6.84645">
        <ele>198.4</ele>
        <time>2014-03-12T07:53:47Z</time>
      </trkpt>
      <trkpt lat="49.18238" lon="6.84634">
        <ele>198.9</ele>
        <time>2014-03-12T07:53:52Z</time>
      </trkpt>
      <trkpt lat="49.18238" lon="6.84625">
        <ele>199.3</ele>
        <time>2014-03-12T07:53:57Z</time>
      </trkpt>
      <trkpt lat="49.18239" lon="6.84615">
        <ele>198.4</ele>
        <time>2014-03-12T07:54:02Z</time>
      </trkpt>
      <trkpt lat="49.18239" lon="6.84603">
        <ele>198.7</ele>
        <time>2014-03-12T07:54:07Z</time>
      </trkpt>
      <trkpt lat="49.18239" lon="6.84592">
        <ele>199.3</ele>
        <time>2014-03-12T07:54:12Z</time>
      </trkpt>
      <trkpt lat="49.18239" lon="6.84582">
        <ele>198.6</ele>
        <time>2014-03-12T07:54:17Z</time>
      </trkpt>
      <trkpt lat="49.18242" lon="6.84562">
        <ele>199</ele>
        <time>2014-03-12T07:54:27Z</time>
      </trkpt>
      <trkpt lat="49.18243" lon="6.84552">
        <ele>199.2</ele>
        <time>2014-03-12T07:54:32Z</time>
      </trkpt>
      <trkpt lat="49.18245" lon="6.84543">
        <ele>198.6</ele>
        <time>2014-03-12T07:54:37Z</time>
      </trkpt>
      <trkpt lat="49.18246" lon="6.84534">
        <ele>199.2</ele>
        <time>2014-03-12T07:54:42Z</time>
      </trkpt>
      <trkpt lat="49.18246" lon="6.84524">
        <ele>200.1</ele>
        <time>2014-03-12T07:54:47Z</time>
      </trkpt>
      <trkpt lat="49.18247" lon="6.84514">
        <ele>200.5</ele>
        <time>2014-03-12T07:54:52Z</time>
      </trkpt>
      <trkpt lat="49.18249" lon="6.84505">
        <ele>200</ele>
        <time>2014-03-12T07:54:57Z</time>
      </trkpt>
      <trkpt lat="49.18251" lon="6.84495">
        <ele>200.1</ele>
        <time>2014-03-12T07:55:02Z</time>
      </trkpt>
      <trkpt lat="49.18252" lon="6.84485">
        <ele>200.6</ele>
        <time>2014-03-12T07:55:07Z</time>
      </trkpt>
      <trkpt lat="49.18254" lon="6.84475">
        <ele>200.8</ele>
        <time>2014-03-12T07:55:12Z</time>
      </trkpt>
      <trkpt lat="49.18256" lon="6.84466">
        <ele>200.1</ele>
        <time>2014-03-12T07:55:17Z</time>
      </trkpt>
      <trkpt lat="49.18257" lon="6.84456">
        <ele>200.6</ele>
        <time>2014-03-12T07:55:22Z</time>
      </trkpt>
      <trkpt lat="49.1826" lon="6.84439">
        <ele>200.3</ele>
        <time>2014-03-12T07:55:32Z</time>
      </trkpt>
      <trkpt lat="49.18262" lon="6.8443">
        <ele>201.4</ele>
        <time>2014-03-12T07:55:37Z</time>
      </trkpt>
      <trkpt lat="49.18263" lon="6.84421">
        <ele>200.6</ele>
        <time>2014-03-12T07:55:42Z</time>
      </trkpt>
      <trkpt lat="49.18264" lon="6.84411">
        <ele>201</ele>
        <time>2014-03-12T07:55:47Z</time>
      </trkpt>
      <trkpt lat="49.18265" lon="6.844">
        <ele>201.1</ele>
        <time>2014-03-12T07:55:52Z</time>
      </trkpt>
      <trkpt lat="49.18265" lon="6.84389">
        <ele>200.6</ele>
        <time>2014-03-12T07:55:57Z</time>
      </trkpt>
      <trkpt lat="49.18266" lon="6.84378">
        <ele>200.9</ele>
        <time>2014-03-12T07:56:02Z</time>
      </trkpt>
      <trkpt lat="49.18267" lon="6.84367">
        <ele>201.5</ele>
        <time>2014-03-12T07:56:07Z</time>
      </trkpt>
      <trkpt lat="49.18268" lon="6.84357">
        <ele>201.5</ele>
        <time>2014-03-12T07:56:12Z</time>
      </trkpt>
      <trkpt lat="49.1827" lon="6.84347">
        <ele>201.3</ele>
        <time>2014-03-12T07:56:17Z</time>
      </trkpt>
      <trkpt lat="49.18272" lon="6.84337">
        <ele>200.9</ele>
        <time>2014-03-12T07:56:22Z</time>
      </trkpt>
      <trkpt lat="49.18272" lon="6.84328">
        <ele>201</ele>
        <time>2014-03-12T07:56:27Z</time>
      </trkpt>
      <trkpt lat="49.18275" lon="6.84307">
        <ele>202.1</ele>
        <time>2014-03-12T07:56:37Z</time>
      </trkpt>
      <trkpt lat="49.18276" lon="6.84296">
        <ele>202.5</ele>
        <time>2014-03-12T07:56:42Z</time>
      </trkpt>
      <trkpt lat="49.18276" lon="6.84286">
        <ele>202.5</ele>
        <time>2014-03-12T07:56:47Z</time>
      </trkpt>
      <trkpt lat="49.18276" lon="6.84275">
        <ele>202.4</ele>
        <time>2014-03-12T07:56:52Z</time>
      </trkpt>
      <trkpt lat="49.18278" lon="6.84268">
        <ele>203.1</ele>
        <time>2014-03-12T07:56:57Z</time>
      </trkpt>
      <trkpt lat="49.18281" lon="6.84266">
        <ele>203.6</ele>
        <time>2014-03-12T07:57:02Z</time>
      </trkpt>
      <trkpt lat="49.18286" lon="6.84266">
        <ele>204.2</ele>
        <time>2014-03-12T07:57:07Z</time>
      </trkpt>
      <trkpt lat="49.18291" lon="6.84267">
        <ele>204.9</ele>
        <time>2014-03-12T07:57:12Z</time>
      </trkpt>
      <trkpt lat="49.18296" lon="6.84267">
        <ele>206.3</ele>
        <time>2014-03-12T07:57:17Z</time>
      </trkpt>
      <trkpt lat="49.18302" lon="6.84267">
        <ele>206.9</ele>
        <time>2014-03-12T07:57:22Z</time>
      </trkpt>
      <trkpt lat="49.18307" lon="6.84268">
        <ele>207.4</ele>
        <time>2014-03-12T07:57:27Z</time>
      </trkpt>
      <trkpt lat="49.18313" lon="6.84269">
        <ele>208.4</ele>
        <time>2014-03-12T07:57:32Z</time>
      </trkpt>
      <trkpt lat="49.18325" lon="6.8427">
        <ele>209.5</ele>
        <time>2014-03-12T07:57:42Z</time>
      </trkpt>
      <trkpt lat="49.18331" lon="6.84271">
        <ele>211</ele>
        <time>2014-03-12T07:57:47Z</time>
      </trkpt>
      <trkpt lat="49.18335" lon="6.84272">
        <ele>211.7</ele>
        <time>2014-03-12T07:57:52Z</time>
      </trkpt>
      <trkpt lat="49.1834" lon="6.84274">
        <ele>211.8</ele>
        <time>2014-03-12T07:57:57Z</time>
      </trkpt>
      <trkpt lat="49.18347" lon="6.84276">
        <ele>212.4</ele>
        <time>2014-03-12T07:58:02Z</time>
      </trkpt>
      <trkpt lat="49.18354" lon="6.84279">
        <ele>212.4</ele>
        <time>2014-03-12T07:58:07Z</time>
      </trkpt>
      <trkpt lat="49.18361" lon="6.8428">
        <ele>213.8</ele>
        <time>2014-03-12T07:58:12Z</time>
      </trkpt>
      <trkpt lat="49.18368" lon="6.84281">
        <ele>213.6</ele>
        <time>2014-03-12T07:58:17Z</time>
      </trkpt>
      <trkpt lat="49.18374" lon="6.84284">
        <ele>214</ele>
        <time>2014-03-12T07:58:22Z</time>
      </trkpt>
      <trkpt lat="49.18379" lon="6.84286">
        <ele>215.6</ele>
        <time>2014-03-12T07:58:27Z</time>
      </trkpt>
      <trkpt lat="49.18385" lon="6.84287">
        <ele>215.9</ele>
        <time>2014-03-12T07:58:32Z</time>
      </trkpt>
      <trkpt lat="49.1839" lon="6.84289">
        <ele>216.5</ele>
        <time>2014-03-12T07:58:37Z</time>
      </trkpt>
      <trkpt lat="49.18396" lon="6.84291">
        <ele>217.3</ele>
        <time>2014-03-12T07:58:47Z</time>
      </trkpt>
      <trkpt lat="49.18396" lon="6.8429">
        <ele>219.2</ele>
        <time>2014-03-12T07:58:52Z</time>
      </trkpt>
      <trkpt lat="49.18397" lon="6.84289">
        <ele>218.8</ele>
        <time>2014-03-12T07:58:57Z</time>
      </trkpt>
      <trkpt lat="49.18397" lon="6.84288">
        <ele>218.3</ele>
        <time>2014-03-12T07:59:02Z</time>
      </trkpt>
      <trkpt lat="49.18397" lon="6.84288">
        <ele>218.1</ele>
        <time>2014-03-12T07:59:07Z</time>
      </trkpt>
      <trkpt lat="49.18397" lon="6.84289">
        <ele>218.1</ele>
        <time>2014-03-12T07:59:12Z</time>
      </trkpt>
      <trkpt lat="49.18401" lon="6.84292">
        <ele>218.5</ele>
        <time>2014-03-12T07:59:17Z</time>
      </trkpt>
      <trkpt lat="49.18404" lon="6.84293">
        <ele>219.4</ele>
        <time>2014-03-12T07:59:22Z</time>
      </trkpt>
      <trkpt lat="49.18408" lon="6.84294">
        <ele>220.5</ele>
        <time>2014-03-12T07:59:27Z</time>
      </trkpt>
      <trkpt lat="49.18413" lon="6.84296">
        <ele>222.7</ele>
        <time>2014-03-12T07:59:32Z</time>
      </trkpt>
      <trkpt lat="49.18417" lon="6.84297">
        <ele>223.3</ele>
        <time>2014-03-12T07:59:37Z</time>
      </trkpt>
      <trkpt lat="49.18422" lon="6.84298">
        <ele>224.7</ele>
        <time>2014-03-12T07:59:42Z</time>
      </trkpt>
      <trkpt lat="49.18431" lon="6.843">
        <ele>227.3</ele>
        <time>2014-03-12T07:59:52Z</time>
      </trkpt>
      <trkpt lat="49.18436" lon="6.84303">
        <ele>228.2</ele>
        <time>2014-03-12T07:59:57Z</time>
      </trkpt>
      <trkpt lat="49.18442" lon="6.84304">
        <ele>229.1</ele>
        <time>2014-03-12T08:00:02Z</time>
      </trkpt>
      <trkpt lat="49.18446" lon="6.84305">
        <ele>230.4</ele>
        <time>2014-03-12T08:00:07Z</time>
      </trkpt>
      <trkpt lat="49.18452" lon="6.84305">
        <ele>231.5</ele>
        <time>2014-03-12T08:00:12Z</time>
      </trkpt>
      <trkpt lat="49.18457" lon="6.84305">
        <ele>233.3</ele>
        <time>2014-03-12T08:00:17Z</time>
      </trkpt>
      <trkpt lat="49.18463" lon="6.84306">
        <ele>234.3</ele>
        <time>2014-03-12T08:00:22Z</time>
      </trkpt>
      <trkpt lat="49.18468" lon="6.84307">
        <ele>234.7</ele>
        <time>2014-03-12T08:00:27Z</time>
      </trkpt>
      <trkpt lat="49.18473" lon="6.84308">
        <ele>235</ele>
        <time>2014-03-12T08:00:32Z</time>
      </trkpt>
      <trkpt lat="49.18478" lon="6.84311">
        <ele>236.8</ele>
        <time>2014-03-12T08:00:37Z</time>
      </trkpt>
      <trkpt lat="49.18482" lon="6.84312">
        <ele>236.7</ele>
        <time>2014-03-12T08:00:42Z</time>
      </trkpt>
      <trkpt lat="49.18487" lon="6.84314">
        <ele>237</ele>
        <time>2014-03-12T08:00:47Z</time>
      </trkpt>
      <trkpt lat="49.18497" lon="6.84318">
        <ele>237.9</ele>
        <time>2014-03-12T08:00:57Z</time>
      </trkpt>
      <trkpt lat="49.18501" lon="6.84322">
        <ele>238.5</ele>
        <time>2014-03-12T08:01:02Z</time>
      </trkpt>
      <trkpt lat="49.18503" lon="6.84329">
        <ele>238.7</ele>
        <time>2014-03-12T08:01:07Z</time>
      </trkpt>
      <trkpt lat="49.18505" lon="6.84336">
        <ele>238.9</ele>
        <time>2014-03-12T08:01:12Z</time>
      </trkpt>
      <trkpt lat="49.18506" lon="6.84345">
        <ele>238.9</ele>
        <time>2014-03-12T08:01:17Z</time>
      </trkpt>
      <trkpt lat="49.18506" lon="6.84353">
        <ele>239.5</ele>
        <time>2014-03-12T08:01:22Z</time>
      </trkpt>
      <trkpt lat="49.18506" lon="6.84362">
        <ele>239.4</ele>
        <time>2014-03-12T08:01:27Z</time>
      </trkpt>
      <trkpt lat="49.18507" lon="6.84373">
        <ele>239.3</ele>
        <time>2014-03-12T08:01:32Z</time>
      </trkpt>
      <trkpt lat="49.18506" lon="6.84384">
        <ele>239.6</ele>
        <time>2014-03-12T08:01:37Z</time>
      </trkpt>
      <trkpt lat="49.18506" lon="6.84393">
        <ele>240.4</ele>
        <time>2014-03-12T08:01:42Z</time>
      </trkpt>
      <trkpt lat="49.18506" lon="6.84404">
        <ele>241</ele>
        <time>2014-03-12T08:01:47Z</time>
      </trkpt>
      <trkpt lat="49.18507" lon="6.84413">
        <ele>241.5</ele>
        <time>2014-03-12T08:01:52Z</time>
      </trkpt>
      <trkpt lat="49.18505" lon="6.84433">
        <ele>241.3</ele>
        <time>2014-03-12T08:02:02Z</time>
      </trkpt>
      <trkpt lat="49.18504" lon="6.84444">
        <ele>241.6</ele>
        <time>2014-03-12T08:02:07Z</time>
      </trkpt>
      <trkpt lat="49.18504" lon="6.84453">
        <ele>241.4</ele>
        <time>2014-03-12T08:02:12Z</time>
      </trkpt>
      <trkpt lat="49.18503" lon="6.84463">
        <ele>242.1</ele>
        <time>2014-03-12T08:02:17Z</time>
      </trkpt>
      <trkpt lat="49.18503" lon="6.84474">
        <ele>241.9</ele>
        <time>2014-03-12T08:02:22Z</time>
      </trkpt>
      <trkpt lat="49.18502" lon="6.84484">
        <ele>242.1</ele>
        <time>2014-03-12T08:02:27Z</time>
      </trkpt>
      <trkpt lat="49.18502" lon="6.84494">
        <ele>242.1</ele>
        <time>2014-03-12T08:02:32Z</time>
      </trkpt>
      <trkpt lat="49.18502" lon="6.84503">
        <ele>241.8</ele>
        <time>2014-03-12T08:02:37Z</time>
      </trkpt>
      <trkpt lat="49.18502" lon="6.84513">
        <ele>241.8</ele>
        <time>2014-03-12T08:02:42Z</time>
      </trkpt>
      <trkpt lat="49.18501" lon="6.84522">
        <ele>242.2</ele>
        <time>2014-03-12T08:02:47Z</time>
      </trkpt>
      <trkpt lat="49.18501" lon="6.84532">
        <ele>242</ele>
        <time>2014-03-12T08:02:52Z</time>
      </trkpt>
      <trkpt lat="49.185" lon="6.84541">
        <ele>242</ele>
        <time>2014-03-12T08:02:57Z</time>
      </trkpt>
      <trkpt lat="49.18499" lon="6.84563">
        <ele>242.1</ele>
        <time>2014-03-12T08:03:07Z</time>
      </trkpt>
      <trkpt lat="49.18498" lon="6.84574">
        <ele>241.3</ele>
        <time>2014-03-12T08:03:12Z</time>
      </trkpt>
      <trkpt lat="49.18498" lon="6.84583">
        <ele>241.6</ele>
        <time>2014-03-12T08:03:17Z</time>
      </trkpt>
      <trkpt lat="49.18497" lon="6.84593">
        <ele>241</ele>
        <time>2014-03-12T08:03:22Z</time>
      </trkpt>
      <trkpt lat="49.18495" lon="6.84602">
        <ele>241.1</ele>
        <time>2014-03-12T08:03:27Z</time>
      </trkpt>
      <trkpt lat="49.18494" lon="6.8461">
        <ele>240.5</ele>
        <time>2014-03-12T08:03:32Z</time>
      </trkpt>
      <trkpt lat="49.18494" lon="6.84618">
        <ele>240.3</ele>
        <time>2014-03-12T08:03:37Z</time>
      </trkpt>
      <trkpt lat="49.18493" lon="6.84629">
        <ele>240.5</ele>
        <time>2014-03-12T08:03:42Z</time>
      </trkpt>
      <trkpt lat="49.18493" lon="6.84639">
        <ele>240.3</ele>
        <time>2014-03-12T08:03:47Z</time>
      </trkpt>
      <trkpt lat="49.18491" lon="6.84649">
        <ele>240.3</ele>
        <time>2014-03-12T08:03:52Z</time>
      </trkpt>
      <trkpt lat="49.1849" lon="6.8466">
        <ele>240.3</ele>
        <time>2014-03-12T08:03:57Z</time>
      </trkpt>
      <trkpt lat="49.18489" lon="6.84672">
        <ele>240.3</ele>
        <time>2014-03-12T08:04:02Z</time>
      </trkpt>
      <trkpt lat="49.18487" lon="6.84693">
        <ele>240.5</ele>
        <time>2014-03-12T08:04:12Z</time>
      </trkpt>
      <trkpt lat="49.18488" lon="6.84703">
        <ele>240.5</ele>
        <time>2014-03-12T08:04:17Z</time>
      </trkpt>
      <trkpt lat="49.18487" lon="6.84714">
        <ele>240.3</ele>
        <time>2014-03-12T08:04:22Z</time>
      </trkpt>
      <trkpt lat="49.18487" lon="6.84725">
        <ele>240.4</ele>
        <time>2014-03-12T08:04:27Z</time>
      </trkpt>
      <trkpt lat="49.18486" lon="6.84735">
        <ele>240.8</ele>
        <time>2014-03-12T08:04:32Z</time>
      </trkpt>
      <trkpt lat="49.18486" lon="6.8474">
        <ele>241.1</ele>
        <time>2014-03-12T08:04:37Z</time>
      </trkpt>
      <trkpt lat="49.18487" lon="6.84744">
        <ele>241.1</ele>
        <time>2014-03-12T08:04:42Z</time>
      </trkpt>
      <trkpt lat="49.18487" lon="6.84747">
        <ele>241.7</ele>
        <time>2014-03-12T08:04:47Z</time>
      </trkpt>
      <trkpt lat="49.18487" lon="6.84749">
        <ele>241.2</ele>
        <time>2014-03-12T08:04:52Z</time>
      </trkpt>
      <trkpt lat="49.18488" lon="6.84751">
        <ele>241.3</ele>
        <time>2014-03-12T08:04:57Z</time>
      </trkpt>
      <trkpt lat="49.18491" lon="6.84752">
        <ele>241.2</ele>
        <time>2014-03-12T08:05:02Z</time>
      </trkpt>
      <trkpt lat="49.18495" lon="6.84753">
        <ele>240.6</ele>
        <time>2014-03-12T08:05:07Z</time>
      </trkpt>
      <trkpt lat="49.18502" lon="6.84746">
        <ele>240.5</ele>
        <time>2014-03-12T08:05:17Z</time>
      </trkpt>
      <trkpt lat="49.18505" lon="6.84745">
        <ele>240.4</ele>
        <time>2014-03-12T08:05:22Z</time>
      </trkpt>
      <trkpt lat="49.1851" lon="6.84743">
        <ele>239.1</ele>
        <time>2014-03-12T08:05:27Z</time>
      </trkpt>
      <trkpt lat="49.18514" lon="6.84742">
        <ele>238.9</ele>
        <time>2014-03-12T08:05:32Z</time>
      </trkpt>
      <trkpt lat="49.18519" lon="6.8474">
        <ele>237.9</ele>
        <time>2014-03-12T08:05:37Z</time>
      </trkpt>
      <trkpt lat="49.18524" lon="6.84738">
        <ele>237.7</ele>
        <time>2014-03-12T08:05:42Z</time>
      </trkpt>
      <trkpt lat="49.18528" lon="6.84737">
        <ele>236.7</ele>
        <time>2014-03-12T08:05:47Z</time>
      </trkpt>
      <trkpt lat="49.18534" lon="6.84735">
        <ele>235.5</ele>
        <time>2014-03-12T08:05:52Z</time>
      </trkpt>
      <trkpt lat="49.18538" lon="6.84733">
        <ele>235.4</ele>
        <time>2014-03-12T08:05:57Z</time>
      </trkpt>
      <trkpt lat="49.18543" lon="6.84731">
        <ele>234.2</ele>
        <time>2014-03-12T08:06:02Z</time>
      </trkpt>
      <trkpt lat="49.18547" lon="6.8473">
        <ele>232.8</ele>
        <time>2014-03-12T08:06:07Z</time>
      </trkpt>
      <trkpt lat="49.18551" lon="6.84729">
        <ele>232.2</ele>
        <time>2014-03-12T08:06:12Z</time>
      </trkpt>
      <trkpt lat="49.18562" lon="6.84729">
        <ele>230.2</ele>
        <time>2014-03-12T08:06:22Z</time>
      </trkpt>
      <trkpt lat="49.18568" lon="6.84728">
        <ele>229.6</ele>
        <time>2014-03-12T08:06:27Z</time>
      </trkpt>
      <trkpt lat="49.18572" lon="6.84727">
        <ele>228</ele>
        <time>2014-03-12T08:06:32Z</time>
      </trkpt>
      <trkpt lat="49.18576" lon="6.84727">
        <ele>226.9</ele>
        <time>2014-03-12T08:06:37Z</time>
      </trkpt>
      <trkpt lat="49.18581" lon="6.84727">
        <ele>226.7</ele>
        <time>2014-03-12T08:06:42Z</time>
      </trkpt>
      <trkpt lat="49.18586" lon="6.84726">
        <ele>225.6</ele>
        <time>2014-03-12T08:06:47Z</time>
      </trkpt>
      <trkpt lat="49.1859" lon="6.84724">
        <ele>224.8</ele>
        <time>2014-03-12T08:06:52Z</time>
      </trkpt>
      <trkpt lat="49.18595" lon="6.84724">
        <ele>224.6</ele>
        <time>2014-03-12T08:06:57Z</time>
      </trkpt>
      <trkpt lat="49.18599" lon="6.84722">
        <ele>223.9</ele>
        <time>2014-03-12T08:07:02Z</time>
      </trkpt>
      <trkpt lat="49.18605" lon="6.8472">
        <ele>222.9</ele>
        <time>2014-03-12T08:07:07Z</time>
      </trkpt>
      <trkpt lat="49.1861" lon="6.84718">
        <ele>222.3</ele>
        <time>2014-03-12T08:07:12Z</time>
      </trkpt>
      <trkpt lat="49.18615" lon="6.84717">
        <ele>221.1</ele>
        <time>2014-03-12T08:07:17Z</time>
      </trkpt>
      <trkpt lat="49.18623" lon="6.84714">
        <ele>220</ele>
        <time>2014-03-12T08:07:27Z</time>
      </trkpt>
      <trkpt lat="49.18629" lon="6.84713">
        <ele>219</ele>
        <time>2014-03-12T08:07:32Z</time>
      </trkpt>
      <trkpt lat="49.18635" lon="6.84712">
        <ele>218.3</ele>
        <time>2014-03-12T08:07:37Z</time>
      </trkpt>
      <trkpt lat="49.1864" lon="6.8471">
        <ele>217.3</ele>
        <time>2014-03-12T08:07:42Z</time>
      </trkpt>
      <trkpt lat="49.18645" lon="6.84708">
        <ele>216.8</ele>
        <time>2014-03-12T08:07:47Z</time>
      </trkpt>
      <trkpt lat="49.18648" lon="6.84707">
        <ele>216</ele>
        <time>2014-03-12T08:07:52Z</time>
      </trkpt>
      <trkpt lat="49.18652" lon="6.84706">
        <ele>216</ele>
        <time>2014-03-12T08:07:57Z</time>
      </trkpt>
      <trkpt lat="49.18657" lon="6.84705">
        <ele>216.2</ele>
        <time>2014-03-12T08:08:02Z</time>
      </trkpt>
      <trkpt lat="49.1866" lon="6.84705">
        <ele>215.5</ele>
        <time>2014-03-12T08:08:07Z</time>
      </trkpt>
      <trkpt lat="49.18663" lon="6.84704">
        <ele>214.6</ele>
        <time>2014-03-12T08:08:12Z</time>
      </trkpt>
      <trkpt lat="49.18664" lon="6.84703">
        <ele>215.5</ele>
        <time>2014-03-12T08:08:17Z</time>
      </trkpt>
      <trkpt lat="49.18666" lon="6.84702">
        <ele>215.2</ele>
        <time>2014-03-12T08:08:22Z</time>
      </trkpt>
      <trkpt lat="49.1867" lon="6.84701">
        <ele>215.1</ele>
        <time>2014-03-12T08:08:32Z</time>
      </trkpt>
      <trkpt lat="49.18673" lon="6.84701">
        <ele>214.9</ele>
        <time>2014-03-12T08:08:37Z</time>
      </trkpt>
      <trkpt lat="49.18674" lon="6.84701">
        <ele>215.3</ele>
        <time>2014-03-12T08:08:42Z</time>
      </trkpt>
      <trkpt lat="49.18674" lon="6.84701">
        <ele>215.4</ele>
        <time>2014-03-12T08:08:47Z</time>
      </trkpt>
      <trkpt lat="49.18675" lon="6.84701">
        <ele>214.8</ele>
        <time>2014-03-12T08:08:52Z</time>
      </trkpt>
      <trkpt lat="49.18677" lon="6.84701">
        <ele>214.7</ele>
        <time>2014-03-12T08:08:57Z</time>
      </trkpt>
      <trkpt lat="49.1868" lon="6.84699">
        <ele>214.2</ele>
        <time>2014-03-12T08:09:02Z</time>
      </trkpt>
      <trkpt lat="49.18683" lon="6.84696">
        <ele>214</ele>
        <time>2014-03-12T08:09:07Z</time>
      </trkpt>
      <trkpt lat="49.18685" lon="6.84689">
        <ele>213.9</ele>
        <time>2014-03-12T08:09:12Z</time>
      </trkpt>
      <trkpt lat="49.18684" lon="6.84682">
        <ele>214.3</ele>
        <time>2014-03-12T08:09:17Z</time>
      </trkpt>
      <trkpt lat="49.18682" lon="6.84675">
        <ele>214.1</ele>
        <time>2014-03-12T08:09:22Z</time>
      </trkpt>
      <trkpt lat="49.18682" lon="6.84668">
        <ele>214.3</ele>
        <time>2014-03-12T08:09:27Z</time>
      </trkpt>
      <trkpt lat="49.18679" lon="6.84655">
        <ele>214.7</ele>
        <time>2014-03-12T08:09:37Z</time>
      </trkpt>
      <trkpt lat="49.18677" lon="6.84646">
        <ele>214.4</ele>
        <time>2014-03-12T08:09:42Z</time>
      </trkpt>
      <trkpt lat="49.18675" lon="6.84637">
        <ele>214.3</ele>
        <time>2014-03-12T08:09:47Z</time>
      </trkpt>
      <trkpt lat="49.18673" lon="6.84629">
        <ele>215.3</ele>
        <time>2014-03-12T08:09:52Z</time>
      </trkpt>
      <trkpt lat="49.1867" lon="6.84619">
        <ele>215.2</ele>
        <time>2014-03-12T08:09:57Z</time>
      </trkpt>
      <trkpt lat="49.18668" lon="6.84608">
        <ele>214.8</ele>
        <time>2014-03-12T08:10:02Z</time>
      </trkpt>
      <trkpt lat="49.18664" lon="6.84599">
        <ele>215.7</ele>
        <time>2014-03-12T08:10:07Z</time>
      </trkpt>
      <trkpt lat="49.18661" lon="6.84589">
        <ele>216</ele>
        <time>2014-03-12T08:10:12Z</time>
      </trkpt>
      <trkpt lat="49.18659" lon="6.84579">
        <ele>216.2</ele>
        <time>2014-03-12T08:10:17Z</time>
      </trkpt>
      <trkpt lat="49.18656" lon="6.84569">
        <ele>216.3</ele>
        <time>2014-03-12T08:10:22Z</time>
      </trkpt>
      <trkpt lat="49.18654" lon="6.8456">
        <ele>216.1</ele>
        <time>2014-03-12T08:10:27Z</time>
      </trkpt>
      <trkpt lat="49.18653" lon="6.84551">
        <ele>216.4</ele>
        <time>2014-03-12T08:10:32Z</time>
      </trkpt>
      <trkpt lat="49.18647" lon="6.84532">
        <ele>216.5</ele>
        <time>2014-03-12T08:10:42Z</time>
      </trkpt>
      <trkpt lat="49.18645" lon="6.84523">
        <ele>217</ele>
        <time>2014-03-12T08:10:47Z</time>
      </trkpt>
      <trkpt lat="49.18643" lon="6.84514">
        <ele>217.4</ele>
        <time>2014-03-12T08:10:52Z</time>
      </trkpt>
      <trkpt lat="49.18641" lon="6.84503">
        <ele>217.1</ele>
        <time>2014-03-12T08:10:57Z</time>
      </trkpt>
      <trkpt lat="49.1864" lon="6.84493">
        <ele>217.8</ele>
        <time>2014-03-12T08:11:02Z</time>
      </trkpt>
      <trkpt lat="49.18638" lon="6.84483">
        <ele>217.8</ele>
        <time>2014-03-12T08:11:07Z</time>
      </trkpt>
      <trkpt lat="49.18637" lon="6.84473">
        <ele>218.4</ele>
        <time>2014-03-12T08:11:12Z</time>
      </trkpt>
      <trkpt lat="49.18635" lon="6.84462">
        <ele>218.7</ele>
        <time>2014-03-12T08:11:17Z</time>
      </trkpt>
      <trkpt lat="49.18634" lon="6.84452">
        <ele>218.2</ele>
        <time>2014-03-12T08:11:22Z</time>
      </trkpt>
      <trkpt lat="49.18633" lon="6.84442">
        <ele>218.3</ele>
        <time>2014-03-12T08:11:27Z</time>
      </trkpt>
      <trkpt lat="49.18633" lon="6.84431">
        <ele>217.8</ele>
        <time>2014-03-12T08:11:32Z</time>
      </trkpt>
      <trkpt lat="49.18633" lon="6.8442">
        <ele>218.7</ele>
        <time>2014-03-12T08:11:37Z</time>
      </trkpt>
      <trkpt lat="49.18629" lon="6.84401">
        <ele>219</ele>
        <time>2014-03-12T08:11:47Z</time>
      </trkpt>
      <trkpt lat="49.18629" lon="6.84392">
        <ele>219.7</ele>
        <time>2014-03-12T08:11:52Z</time>
      </trkpt>
      <trkpt lat="49.18627" lon="6.84382">
        <ele>219.6</ele>
        <time>2014-03-12T08:11:57Z</time>
      </trkpt>
      <trkpt lat="49.18627" lon="6.84373">
        <ele>219.6</ele>
        <time>2014-03-12T08:12:02Z</time>
      </trkpt>
      <trkpt lat="49.18627" lon="6.84364">
        <ele>220</ele>
        <time>2014-03-12T08:12:07Z</time>
      </trkpt>
      <trkpt lat="49.18627" lon="6.84354">
        <ele>219.9</ele>
        <time>2014-03-12T08:12:12Z</time>
      </trkpt>
      <trkpt lat="49.18626" lon="6.84343">
        <ele>221.4</ele>
        <time>2014-03-12T08:12:17Z</time>
      </trkpt>
      <trkpt lat="49.18625" lon="6.84333">
        <ele>222</ele>
        <time>2014-03-12T08:12:22Z</time>
      </trkpt>
      <trkpt lat="49.18624" lon="6.84322">
        <ele>221.3</ele>
        <time>2014-03-12T08:12:27Z</time>
      </trkpt>
      <trkpt lat="49.18623" lon="6.84312">
        <ele>221.6</ele>
        <time>2014-03-12T08:12:32Z</time>
      </trkpt>
      <trkpt lat="49.18624" lon="6.843">
        <ele>221.8</ele>
        <time>2014-03-12T08:12:37Z</time>
      </trkpt>
      <trkpt lat="49.18624" lon="6.84291">
        <ele>221.9</ele>
        <time>2014-03-12T08:12:42Z</time>
      </trkpt>
      <trkpt lat="49.18623" lon="6.8427">
        <ele>222.1</ele>
        <time>2014-03-12T08:12:52Z</time>
      </trkpt>
      <trkpt lat="49.18623" lon="6.84261">
        <ele>222.2</ele>
        <time>2014-03-12T08:12:57Z</time>
      </trkpt>
      <trkpt lat="49.18623" lon="6.8425">
        <ele>222.9</ele>
        <time>2014-03-12T08:13:02Z</time>
      </trkpt>
      <trkpt lat="49.18623" lon="6.84241">
        <ele>222.8</ele>
        <time>2014-03-12T08:13:07Z</time>
      </trkpt>
      <trkpt lat="49.18623" lon="6.84231">
        <ele>223.7</ele>
        <time>2014-03-12T08:13:12Z</time>
      </trkpt>
      <trkpt lat="49.18622" lon="6.84222">
        <ele>224.2</ele>
        <time>2014-03-12T08:13:17Z</time>
      </trkpt>
      <trkpt lat="49.18622" lon="6.84213">
        <ele>224.8</ele>
        <time>2014-03-12T08:13:22Z</time>
      </trkpt>
      <trkpt lat="49.18622" lon="6.84203">
        <ele>224.7</ele>
        <time>2014-03-12T08:13:27Z</time>
      </trkpt>
      <trkpt lat="49.18622" lon="6.84193">
        <ele>225.4</ele>
        <time>2014-03-12T08:13:32Z</time>
      </trkpt>
      <trkpt lat="49.18623" lon="6.84184">
        <ele>225.2</ele>
        <time>2014-03-12T08:13:37Z</time>
      </trkpt>
      <trkpt lat="49.18623" lon="6.84173">
        <ele>225.5</ele>
        <time>2014-03-12T08:13:42Z</time>
      </trkpt>
      <trkpt lat="49.18623" lon="6.84163">
        <ele>225.9</ele>
        <time>2014-03-12T08:13:47Z</time>
      </trkpt>
      <trkpt lat="49.18624" lon="6.8414">
        <ele>226.8</ele>
        <time>2014-03-12T08:13:57Z</time>
      </trkpt>
      <trkpt lat="49.18624" lon="6.84129">
        <ele>227.1</ele>
        <time>2014-03-12T08:14:02Z</time>
      </trkpt>
      <trkpt lat="49.18624" lon="6.84118">
        <ele>227.1</ele>
        <time>2014-03-12T08:14:07Z</time>
      </trkpt>
      <trkpt lat="49.18623" lon="6.84107">
        <ele>227.6</ele>
        <time>2014-03-12T08:14:12Z</time>
      </trkpt>
      <trkpt lat="49.18621" lon="6.84096">
        <ele>227.6</ele>
        <time>2014-03-12T08:14:17Z</time>
      </trkpt>
      <trkpt lat="49.18621" lon="6.84086">
        <ele>227.9</ele>
        <time>2014-03-12T08:14:22Z</time>
      </trkpt>
      <trkpt lat="49.1862" lon="6.84075">
        <ele>228.9</ele>
        <time>2014-03-12T08:14:27Z</time>
      </trkpt>
      <trkpt lat="49.18618" lon="6.84065">
        <ele>229.2</ele>
        <time>2014-03-12T08:14:32Z</time>
      </trkpt>
      <trkpt lat="49.18617" lon="6.84056">
        <ele>229.3</ele>
        <time>2014-03-12T08:14:37Z</time>
      </trkpt>
      <trkpt lat="49.18616" lon="6.84046">
        <ele>229.2</ele>
        <time>2014-03-12T08:14:42Z</time>
      </trkpt>
      <trkpt lat="49.18616" lon="6.84037">
        <ele>229.5</ele>
        <time>2014-03-12T08:14:47Z</time>
      </trkpt>
      <trkpt lat="49.18615" lon="6.84026">
        <ele>230.2</ele>
        <time>2014-03-12T08:14:52Z</time>
      </trkpt>
      <trkpt lat="49.18612" lon="6.84004">
        <ele>231.2</ele>
        <time>2014-03-12T08:15:02Z</time>
      </trkpt>
      <trkpt lat="49.1861" lon="6.83992">
        <ele>231</ele>
        <time>2014-03-12T08:15:07Z</time>
      </trkpt>
      <trkpt lat="49.18609" lon="6.8398">
        <ele>231</ele>
        <time>2014-03-12T08:15:12Z</time>
      </trkpt>
      <trkpt lat="49.18608" lon="6.83969">
        <ele>231.4</ele>
        <time>2014-03-12T08:15:17Z</time>
      </trkpt>
      <trkpt lat="49.18607" lon="6.8396">
        <ele>231.9</ele>
        <time>2014-03-12T08:15:22Z</time>
      </trkpt>
      <trkpt lat="49.18607" lon="6.83949">
        <ele>231.6</ele>
        <time>2014-03-12T08:15:27Z</time>
      </trkpt>
      <trkpt lat="49.18607" lon="6.83939">
        <ele>231.9</ele>
        <time>2014-03-12T08:15:32Z</time>
      </trkpt>
      <trkpt lat="49.18606" lon="6.8393">
        <ele>232.7</ele>
        <time>2014-03-12T08:15:37Z</time>
      </trkpt>
      <trkpt lat="49.18606" lon="6.83919">
        <ele>233.2</ele>
        <time>2014-03-12T08:15:42Z</time>
      </trkpt>
      <trkpt lat="49.18606" lon="6.83911">
        <ele>234.1</ele>
        <time>2014-03-12T08:15:47Z</time>
      </trkpt>
      <trkpt lat="49.18606" lon="6.839">
        <ele>233.9</ele>
        <time>2014-03-12T08:15:52Z</time>
      </trkpt>
      <trkpt lat="49.18607" lon="6.83891">
        <ele>233.5</ele>
        <time>2014-03-12T08:15:57Z</time>
      </trkpt>
      <trkpt lat="49.1861" lon="6.83873">
        <ele>234.3</ele>
        <time>2014-03-12T08:16:07Z</time>
      </trkpt>
      <trkpt lat="49.18611" lon="6.83864">
        <ele>235</ele>
        <time>2014-03-12T08:16:12Z</time>
      </trkpt>
      <trkpt lat="49.18614" lon="6.83854">
        <ele>235.7</ele>
        <time>2014-03-12T08:16:17Z</time>
      </trkpt>
      <trkpt lat="49.18616" lon="6.83844">
        <ele>236.5</ele>
        <time>2014-03-12T08:16:22Z</time>
      </trkpt>
      <trkpt lat="49.18618" lon="6.83834">
        <ele>236.6</ele>
        <time>2014-03-12T08:16:27Z</time>
      </trkpt>
      <trkpt lat="49.18621" lon="6.83825">
        <ele>237.3</ele>
        <time>2014-03-12T08:16:32Z</time>
      </trkpt>
      <trkpt lat="49.18624" lon="6.83816">
        <ele>236.8</ele>
        <time>2014-03-12T08:16:37Z</time>
      </trkpt>
      <trkpt lat="49.18628" lon="6.83807">
        <ele>237.4</ele>
        <time>2014-03-12T08:16:42Z</time>
      </trkpt>
      <trkpt lat="49.1863" lon="6.838">
        <ele>237.9</ele>
        <time>2014-03-12T08:16:47Z</time>
      </trkpt>
      <trkpt lat="49.18633" lon="6.83792">
        <ele>238.4</ele>
        <time>2014-03-12T08:16:52Z</time>
      </trkpt>
      <trkpt lat="49.18636" lon="6.83785">
        <ele>238.7</ele>
        <time>2014-03-12T08:16:57Z</time>
      </trkpt>
      <trkpt lat="49.18641" lon="6.83777">
        <ele>238.9</ele>
        <time>2014-03-12T08:17:02Z</time>
      </trkpt>
      <trkpt lat="49.18649" lon="6.8376">
        <ele>239.4</ele>
        <time>2014-03-12T08:17:12Z</time>
      </trkpt>
      <trkpt lat="49.18654" lon="6.83751">
        <ele>239.8</ele>
        <time>2014-03-12T08:17:17Z</time>
      </trkpt>
      <trkpt lat="49.18657" lon="6.83742">
        <ele>239.3</ele>
        <time>2014-03-12T08:17:22Z</time>
      </trkpt>
      <trkpt lat="49.1866" lon="6.83733">
        <ele>239.8</ele>
        <time>2014-03-12T08:17:27Z</time>
      </trkpt>
      <trkpt lat="49.18663" lon="6.83725">
        <ele>240.4</ele>
        <time>2014-03-12T08:17:32Z</time>
      </trkpt>
      <trkpt lat="49.18667" lon="6.83717">
        <ele>241</ele>
        <time>2014-03-12T08:17:37Z</time>
      </trkpt>
      <trkpt lat="49.18671" lon="6.83709">
        <ele>241.5</ele>
        <time>2014-03-12T08:17:42Z</time>
      </trkpt>
      <trkpt lat="49.18674" lon="6.837">
        <ele>242</ele>
        <time>2014-03-12T08:17:47Z</time>
      </trkpt>
      <trkpt lat="49.18678" lon="6.83691">
        <ele>243</ele>
        <time>2014-03-12T08:17:52Z</time>
      </trkpt>
      <trkpt lat="49.18681" lon="6.83682">
        <ele>243.3</ele>
        <time>2014-03-12T08:17:57Z</time>
      </trkpt>
      <trkpt lat="49.18684" lon="6.83672">
        <ele>243.3</ele>
        <time>2014-03-12T08:18:02Z</time>
      </trkpt>
      <trkpt lat="49.18687" lon="6.83662">
        <ele>244</ele>
        <time>2014-03-12T08:18:07Z</time>
      </trkpt>
      <trkpt lat="49.18693" lon="6.83644">
        <ele>244.3</ele>
        <time>2014-03-12T08:18:17Z</time>
      </trkpt>
      <trkpt lat="49.18696" lon="6.83634">
        <ele>243.8</ele>
        <time>2014-03-12T08:18:22Z</time>
      </trkpt>
      <trkpt lat="49.187" lon="6.83625">
        <ele>244.2</ele>
        <time>2014-03-12T08:18:27Z</time>
      </trkpt>
      <trkpt lat="49.18705" lon="6.83615">
        <ele>244.4</ele>
        <time>2014-03-12T08:18:32Z</time>
      </trkpt>
      <trkpt lat="49.18709" lon="6.83606">
        <ele>244.2</ele>
        <time>2014-03-12T08:18:37Z</time>
      </trkpt>
      <trkpt lat="49.18713" lon="6.83598">
        <ele>244.3</ele>
        <time>2014-03-12T08:18:42Z</time>
      </trkpt>
      <trkpt lat="49.18718" lon="6.83591">
        <ele>244.5</ele>
        <time>2014-03-12T08:18:47Z</time>
      </trkpt>
      <trkpt lat="49.1872" lon="6.83583">
        <ele>244.9</ele>
        <time>2014-03-12T08:18:52Z</time>
      </trkpt>
      <trkpt lat="49.18724" lon="6.83576">
        <ele>245.4</ele>
        <time>2014-03-12T08:18:57Z</time>
      </trkpt>
      <trkpt lat="49.18729" lon="6.83567">
        <ele>245.1</ele>
        <time>2014-03-12T08:19:02Z</time>
      </trkpt>
      <trkpt lat="49.18734" lon="6.83559">
        <ele>245.7</ele>
        <time>2014-03-12T08:19:07Z</time>
      </trkpt>
      <trkpt lat="49.18739" lon="6.8355">
        <ele>246.4</ele>
        <time>2014-03-12T08:19:12Z</time>
      </trkpt>
      <trkpt lat="49.18749" lon="6.83535">
        <ele>247.4</ele>
        <time>2014-03-12T08:19:22Z</time>
      </trkpt>
      <trkpt lat="49.18754" lon="6.8353">
        <ele>248.2</ele>
        <time>2014-03-12T08:19:27Z</time>
      </trkpt>
      <trkpt lat="49.18759" lon="6.83524">
        <ele>248.5</ele>
        <time>2014-03-12T08:19:32Z</time>
      </trkpt>
      <trkpt lat="49.18765" lon="6.83518">
        <ele>249.7</ele>
        <time>2014-03-12T08:19:37Z</time>
      </trkpt>
      <trkpt lat="49.1877" lon="6.83513">
        <ele>250.5</ele>
        <time>2014-03-12T08:19:42Z</time>
      </trkpt>
      <trkpt lat="49.18776" lon="6.8351">
        <ele>251.4</ele>
        <time>2014-03-12T08:19:47Z</time>
      </trkpt>
      <trkpt lat="49.18783" lon="6.83509">
        <ele>252.3</ele>
        <time>2014-03-12T08:19:52Z</time>
      </trkpt>
      <trkpt lat="49.1879" lon="6.83509">
        <ele>252.4</ele>
        <time>2014-03-12T08:19:57Z</time>
      </trkpt>
      <trkpt lat="49.18796" lon="6.8351">
        <ele>253.5</ele>
        <time>2014-03-12T08:20:02Z</time>
      </trkpt>
      <trkpt lat="49.18804" lon="6.8351">
        <ele>254.6</ele>
        <time>2014-03-12T08:20:07Z</time>
      </trkpt>
      <trkpt lat="49.1881" lon="6.83509">
        <ele>255.5</ele>
        <time>2014-03-12T08:20:12Z</time>
      </trkpt>
      <trkpt lat="49.18816" lon="6.8351">
        <ele>256.7</ele>
        <time>2014-03-12T08:20:17Z</time>
      </trkpt>
      <trkpt lat="49.18827" lon="6.83512">
        <ele>259</ele>
        <time>2014-03-12T08:20:27Z</time>
      </trkpt>
      <trkpt lat="49.18833" lon="6.83513">
        <ele>260.6</ele>
        <time>2014-03-12T08:20:32Z</time>
      </trkpt>
      <trkpt lat="49.18838" lon="6.83514">
        <ele>261.2</ele>
        <time>2014-03-12T08:20:37Z</time>
      </trkpt>
      <trkpt lat="49.18844" lon="6.83515">
        <ele>262.3</ele>
        <time>2014-03-12T08:20:42Z</time>
      </trkpt>
      <trkpt lat="49.18849" lon="6.83518">
        <ele>263.3</ele>
        <time>2014-03-12T08:20:47Z</time>
      </trkpt>
      <trkpt lat="49.18854" lon="6.83521">
        <ele>264.7</ele>
        <time>2014-03-12T08:20:52Z</time>
      </trkpt>
      <trkpt lat="49.1886" lon="6.83524">
        <ele>265.5</ele>
        <time>2014-03-12T08:20:57Z</time>
      </trkpt>
      <trkpt lat="49.18864" lon="6.83527">
        <ele>265.7</ele>
        <time>2014-03-12T08:21:02Z</time>
      </trkpt>
      <trkpt lat="49.1887" lon="6.83528">
        <ele>266.3</ele>
        <time>2014-03-12T08:21:07Z</time>
      </trkpt>
      <trkpt lat="49.18877" lon="6.83529">
        <ele>267.1</ele>
        <time>2014-03-12T08:21:12Z</time>
      </trkpt>
      <trkpt lat="49.18884" lon="6.83531">
        <ele>267.7</ele>
        <time>2014-03-12T08:21:17Z</time>
      </trkpt>
      <trkpt lat="49.1889" lon="6.83533">
        <ele>268.5</ele>
        <time>2014-03-12T08:21:22Z</time>
      </trkpt>
      <trkpt lat="49.18903" lon="6.8354">
        <ele>269.8</ele>
        <time>2014-03-12T08:21:32Z</time>
      </trkpt>
      <trkpt lat="49.18907" lon="6.83546">
        <ele>270</ele>
        <time>2014-03-12T08:21:37Z</time>
      </trkpt>
      <trkpt lat="49.18909" lon="6.83553">
        <ele>270.8</ele>
        <time>2014-03-12T08:21:42Z</time>
      </trkpt>
      <trkpt lat="49.18911" lon="6.83561">
        <ele>271.6</ele>
        <time>2014-03-12T08:21:47Z</time>
      </trkpt>
      <trkpt lat="49.18915" lon="6.83566">
        <ele>272.6</ele>
        <time>2014-03-12T08:21:52Z</time>
      </trkpt>
      <trkpt lat="49.18921" lon="6.83572">
        <ele>273.9</ele>
        <time>2014-03-12T08:21:57Z</time>
      </trkpt>
      <trkpt lat="49.18927" lon="6.83575">
        <ele>274.7</ele>
        <time>2014-03-12T08:22:02Z</time>
      </trkpt>
      <trkpt lat="49.18931" lon="6.83578">
        <ele>274.4</ele>
        <time>2014-03-12T08:22:07Z</time>
      </trkpt>
      <trkpt lat="49.18936" lon="6.83582">
        <ele>275.3</ele>
        <time>2014-03-12T08:22:12Z</time>
      </trkpt>
      <trkpt lat="49.18941" lon="6.83586">
        <ele>274.6</ele>
        <time>2014-03-12T08:22:17Z</time>
      </trkpt>
      <trkpt lat="49.18945" lon="6.8359">
        <ele>274.9</ele>
        <time>2014-03-12T08:22:22Z</time>
      </trkpt>
      <trkpt lat="49.18949" lon="6.83595">
        <ele>275.4</ele>
        <time>2014-03-12T08:22:27Z</time>
      </trkpt>
      <trkpt lat="49.18957" lon="6.83605">
        <ele>276.5</ele>
        <time>2014-03-12T08:22:37Z</time>
      </trkpt>
      <trkpt lat="49.18961" lon="6.83611">
        <ele>276.3</ele>
        <time>2014-03-12T08:22:42Z</time>
      </trkpt>
      <trkpt lat="49.18966" lon="6.83617">
        <ele>276.5</ele>
        <time>2014-03-12T08:22:47Z</time>
      </trkpt>
      <trkpt lat="49.18971" lon="6.83622">
        <ele>277.1</ele>
        <time>2014-03-12T08:22:52Z</time>
      </trkpt>
      <trkpt lat="49.18976" lon="6.83627">
        <ele>277.6</ele>
        <time>2014-03-12T08:22:57Z</time>
      </trkpt>
      <trkpt lat="49.18981" lon="6.83634">
        <ele>277.5</ele>
        <time>2014-03-12T08:23:02Z</time>
      </trkpt>
      <trkpt lat="49.18985" lon="6.83639">
        <ele>277.3</ele>
        <time>2014-03-12T08:23:07Z</time>
      </trkpt>
      <trkpt lat="49.18989" lon="6.83645">
        <ele>277.6</ele>
        <time>2014-03-12T08:23:12Z</time>
      </trkpt>
      <trkpt lat="49.18993" lon="6.8365">
        <ele>277.2</ele>
        <time>2014-03-12T08:23:17Z</time>
      </trkpt>
      <trkpt lat="49.18998" lon="6.83655">
        <ele>277.7</ele>
        <time>2014-03-12T08:23:22Z</time>
      </trkpt>
      <trkpt lat="49.19002" lon="6.83661">
        <ele>277.6</ele>
        <time>2014-03-12T08:23:27Z</time>
      </trkpt>
      <trkpt lat="49.19006" lon="6.83667">
        <ele>277.6</ele>
        <time>2014-03-12T08:23:32Z</time>
      </trkpt>
      <trkpt lat="49.19016" lon="6.83677">
        <ele>276.8</ele>
        <time>2014-03-12T08:23:42Z</time>
      </trkpt>
      <trkpt lat="49.19022" lon="6.83681">
        <ele>276.5</ele>
        <time>2014-03-12T08:23:47Z</time>
      </trkpt>
      <trkpt lat="49.19028" lon="6.83687">
        <ele>276.4</ele>
        <time>2014-03-12T08:23:52Z</time>
      </trkpt>
      <trkpt lat="49.19033" lon="6.83691">
        <ele>276.1</ele>
        <time>2014-03-12T08:23:57Z</time>
      </trkpt>
      <trkpt lat="49.19039" lon="6.83696">
        <ele>275.4</ele>
        <time>2014-03-12T08:24:02Z</time>
      </trkpt>
      <trkpt lat="49.19044" lon="6.83702">
        <ele>274.8</ele>
        <time>2014-03-12T08:24:07Z</time>
      </trkpt>
      <trkpt lat="49.19048" lon="6.83708">
        <ele>273.8</ele>
        <time>2014-03-12T08:24:12Z</time>
      </trkpt>
      <trkpt lat="49.19053" lon="6.83712">
        <ele>272.8</ele>
        <time>2014-03-12T08:24:17Z</time>
      </trkpt>
      <trkpt lat="49.19058" lon="6.83716">
        <ele>272.1</ele>
        <time>2014-03-12T08:24:22Z</time>
      </trkpt>
      <trkpt lat="49.19063" lon="6.8372">
        <ele>271.2</ele>
        <time>2014-03-12T08:24:27Z</time>
      </trkpt>
      <trkpt lat="49.19068" lon="6.83725">
        <ele>271.8</ele>
        <time>2014-03-12T08:24:32Z</time>
      </trkpt>
      <trkpt lat="49.19073" lon="6.83729">
        <ele>272</ele>
        <time>2014-03-12T08:24:37Z</time>
      </trkpt>
      <trkpt lat="49.19084" lon="6.8374">
        <ele>271.8</ele>
        <time>2014-03-12T08:24:47Z</time>
      </trkpt>
      <trkpt lat="49.19089" lon="6.83747">
        <ele>272</ele>
        <time>2014-03-12T08:24:52Z</time>
      </trkpt>
      <trkpt lat="49.19094" lon="6.83753">
        <ele>273.1</ele>
        <time>2014-03-12T08:24:57Z</time>
      </trkpt>
      <trkpt lat="49.191" lon="6.83759">
        <ele>272.5</ele>
        <time>2014-03-12T08:25:02Z</time>
      </trkpt>
      <trkpt lat="49.19105" lon="6.83766">
        <ele>272</ele>
        <time>2014-03-12T08:25:07Z</time>
      </trkpt>
      <trkpt lat="49.1911" lon="6.83772">
        <ele>272.6</ele>
        <time>2014-03-12T08:25:12Z</time>
      </trkpt>
      <trkpt lat="49.19115" lon="6.83778">
        <ele>272.5</ele>
        <time>2014-03-12T08:25:17Z</time>
      </trkpt>
      <trkpt lat="49.1912" lon="6.83784">
        <ele>273</ele>
        <time>2014-03-12T08:25:22Z</time>
      </trkpt>
      <trkpt lat="49.19125" lon="6.8379">
        <ele>272.6</ele>
        <time>2014-03-12T08:25:27Z</time>
      </trkpt>
      <trkpt lat="49.1913" lon="6.83796">
        <ele>272.4</ele>
        <time>2014-03-12T08:25:32Z</time>
      </trkpt>
      <trkpt lat="49.19134" lon="6.83803">
        <ele>272.8</ele>
        <time>2014-03-12T08:25:37Z</time>
      </trkpt>
      <trkpt lat="49.19139" lon="6.83809">
        <ele>273.6</ele>
        <time>2014-03-12T08:25:42Z</time>
      </trkpt>
      <trkpt lat="49.19151" lon="6.8382">
        <ele>273.6</ele>
        <time>2014-03-12T08:25:52Z</time>
      </trkpt>
      <trkpt lat="49.19157" lon="6.83825">
        <ele>274.2</ele>
        <time>2014-03-12T08:25:57Z</time>
      </trkpt>
      <trkpt lat="49.19162" lon="6.8383">
        <ele>274.3</ele>
        <time>2014-03-12T08:26:02Z</time>
      </trkpt>
      <trkpt lat="49.19167" lon="6.83835">
        <ele>274.2</ele>
        <time>2014-03-12T08:26:07Z</time>
      </trkpt>
      <trkpt lat="49.19172" lon="6.83842">
        <ele>274</ele>
        <time>2014-03-12T08:26:12Z</time>
      </trkpt>
      <trkpt lat="49.19177" lon="6.83849">
        <ele>274</ele>
        <time>2014-03-12T08:26:17Z</time>
      </trkpt>
      <trkpt lat="49.19182" lon="6.83857">
        <ele>274.4</ele>
        <time>2014-03-12T08:26:22Z</time>
      </trkpt>
      <trkpt lat="49.19187" lon="6.83864">
        <ele>274.5</ele>
        <time>2014-03-12T08:26:27Z</time>
      </trkpt>
      <trkpt lat="49.19193" lon="6.83872">
        <ele>274.1</ele>
        <time>2014-03-12T08:26:32Z</time>
      </trkpt>
      <trkpt lat="49.19198" lon="6.83881">
        <ele>275.1</ele>
        <time>2014-03-12T08:26:37Z</time>
      </trkpt>
      <trkpt lat="49.19203" lon="6.8389">
        <ele>274.3</ele>
        <time>2014-03-12T08:26:42Z</time>
      </trkpt>
      <trkpt lat="49.19207" lon="6.83899">
        <ele>273.9</ele>
        <time>2014-03-12T08:26:47Z</time>
      </trkpt>
      <trkpt lat="49.19215" lon="6.83918">
        <ele>274</ele>
        <time>2014-03-12T08:26:57Z</time>
      </trkpt>
      <trkpt lat="49.19219" lon="6.83927">
        <ele>273.5</ele>
        <time>2014-03-12T08:27:02Z</time>
      </trkpt>
      <trkpt lat="49.19221" lon="6.83935">
        <ele>273.2</ele>
        <time>2014-03-12T08:27:07Z</time>
      </trkpt>
      <trkpt lat="49.19222" lon="6.83943">
        <ele>272.5</ele>
        <time>2014-03-12T08:27:12Z</time>
      </trkpt>
      <trkpt lat="49.19224" lon="6.83952">
        <ele>271.6</ele>
        <time>2014-03-12T08:27:17Z</time>
      </trkpt>
      <trkpt lat="49.19226" lon="6.8396">
        <ele>272.3</ele>
        <time>2014-03-12T08:27:22Z</time>
      </trkpt>
      <trkpt lat="49.19229" lon="6.83969">
        <ele>271.1</ele>
        <time>2014-03-12T08:27:27Z</time>
      </trkpt>
      <trkpt lat="49.19232" lon="6.83977">
        <ele>270.8</ele>
        <time>2014-03-12T08:27:32Z</time>
      </trkpt>
      <trkpt lat="49.19235" lon="6.83986">
        <ele>270.6</ele>
        <time>2014-03-12T08:27:37Z</time>
      </trkpt>
      <trkpt lat="49.19238" lon="6.83996">
        <ele>270.5</ele>
        <time>2014-03-12T08:27:42Z</time>
      </trkpt>
      <trkpt lat="49.19241" lon="6.84005">
        <ele>270.8</ele>
        <time>2014-03-12T08:27:47Z</time>
      </trkpt>
      <trkpt lat="49.19245" lon="6.84014">
        <ele>270.6</ele>
        <time>2014-03-12T08:27:52Z</time>
      </trkpt>
      <trkpt lat="49.19253" lon="6.84032">
        <ele>269.8</ele>
        <time>2014-03-12T08:28:02Z</time>
      </trkpt>
      <trkpt lat="49.19257" lon="6.8404">
        <ele>270.1</ele>
        <time>2014-03-12T08:28:07Z</time>
      </trkpt>
      <trkpt lat="49.19261" lon="6.84047">
        <ele>270.5</ele>
        <time>2014-03-12T08:28:12Z</time>
      </trkpt>
      <trkpt lat="49.19266" lon="6.84055">
        <ele>270.3</ele>
        <time>2014-03-12T08:28:17Z</time>
      </trkpt>
      <trkpt lat="49.19272" lon="6.84063">
        <ele>271.1</ele>
        <time>2014-03-12T08:28:22Z</time>
      </trkpt>
      <trkpt lat="49.19276" lon="6.84071">
        <ele>271.6</ele>
        <time>2014-03-12T08:28:27Z</time>
      </trkpt>
      <trkpt lat="49.1928" lon="6.84079">
        <ele>271.7</ele>
        <time>2014-03-12T08:28:32Z</time>
      </trkpt>
      <trkpt lat="49.19284" lon="6.84088">
        <ele>271.7</ele>
        <time>2014-03-12T08:28:37Z</time>
      </trkpt>
      <trkpt lat="49.19287" lon="6.84097">
        <ele>271.6</ele>
        <time>2014-03-12T08:28:42Z</time>
      </trkpt>
      <trkpt lat="49.19292" lon="6.84105">
        <ele>271.8</ele>
        <time>2014-03-12T08:28:47Z</time>
      </trkpt>
      <trkpt lat="49.19296" lon="6.84113">
        <ele>271.5</ele>
        <time>2014-03-12T08:28:52Z</time>
      </trkpt>
      <trkpt lat="49.19302" lon="6.8412">
        <ele>272.3</ele>
        <time>2014-03-12T08:28:57Z</time>
      </trkpt>
      <trkpt lat="49.19312" lon="6.84135">
        <ele>272.6</ele>
        <time>2014-03-12T08:29:07Z</time>
      </trkpt>
      <trkpt lat="49.19316" lon="6.84143">
        <ele>272.4</ele>
        <time>2014-03-12T08:29:12Z</time>
      </trkpt>
      <trkpt lat="49.1932" lon="6.8415">
        <ele>272.4</ele>
        <time>2014-03-12T08:29:17Z</time>
      </trkpt>
      <trkpt lat="49.19324" lon="6.84159">
        <ele>273</ele>
        <time>2014-03-12T08:29:22Z</time>
      </trkpt>
      <trkpt lat="49.19329" lon="6.84167">
        <ele>272.3</ele>
        <time>2014-03-12T08:29:27Z</time>
      </trkpt>
      <trkpt lat="49.19334" lon="6.84175">
        <ele>272.5</ele>
        <time>2014-03-12T08:29:32Z</time>
      </trkpt>
      <trkpt lat="49.1934" lon="6.84182">
        <ele>272.7</ele>
        <time>2014-03-12T08:29:37Z</time>
      </trkpt>
      <trkpt lat="49.19346" lon="6.84189">
        <ele>272.7</ele>
        <time>2014-03-12T08:29:42Z</time>
      </trkpt>
      <trkpt lat="49.19351" lon="6.84197">
        <ele>272.2</ele>
        <time>2014-03-12T08:29:47Z</time>
      </trkpt>
      <trkpt lat="49.19357" lon="6.84205">
        <ele>272</ele>
        <time>2014-03-12T08:29:52Z</time>
      </trkpt>
      <trkpt lat="49.19362" lon="6.84212">
        <ele>272.6</ele>
        <time>2014-03-12T08:29:57Z</time>
      </trkpt>
      <trkpt lat="49.19369" lon="6.84219">
        <ele>273.2</ele>
        <time>2014-03-12T08:30:02Z</time>
      </trkpt>
      <trkpt lat="49.19381" lon="6.84231">
        <ele>272.8</ele>
        <time>2014-03-12T08:30:12Z</time>
      </trkpt>
      <trkpt lat="49.19387" lon="6.84236">
        <ele>273.6</ele>
        <time>2014-03-12T08:30:17Z</time>
      </trkpt>
      <trkpt lat="49.19392" lon="6.84241">
        <ele>273.2</ele>
        <time>2014-03-12T08:30:22Z</time>
      </trkpt>
      <trkpt lat="49.19398" lon="6.84244">
        <ele>273.3</ele>
        <time>2014-03-12T08:30:27Z</time>
      </trkpt>
      <trkpt lat="49.19404" lon="6.84248">
        <ele>273.9</ele>
        <time>2014-03-12T08:30:32Z</time>
      </trkpt>
      <trkpt lat="49.19411" lon="6.8425">
        <ele>274.4</ele>
        <time>2014-03-12T08:30:37Z</time>
      </trkpt>
      <trkpt lat="49.19417" lon="6.84253">
        <ele>274.2</ele>
        <time>2014-03-12T08:30:42Z</time>
      </trkpt>
      <trkpt lat="49.19424" lon="6.84255">
        <ele>274.7</ele>
        <time>2014-03-12T08:30:47Z</time>
      </trkpt>
      <trkpt lat="49.19428" lon="6.84258">
        <ele>274.8</ele>
        <time>2014-03-12T08:30:52Z</time>
      </trkpt>
      <trkpt lat="49.19434" lon="6.84263">
        <ele>275.1</ele>
        <time>2014-03-12T08:30:57Z</time>
      </trkpt>
      <trkpt lat="49.19439" lon="6.8427">
        <ele>275.2</ele>
        <time>2014-03-12T08:31:02Z</time>
      </trkpt>
      <trkpt lat="49.19445" lon="6.84276">
        <ele>276.1</ele>
        <time>2014-03-12T08:31:07Z</time>
      </trkpt>
      <trkpt lat="49.19457" lon="6.84287">
        <ele>275.9</ele>
        <time>2014-03-12T08:31:17Z</time>
      </trkpt>
      <trkpt lat="49.19464" lon="6.84289">
        <ele>276.7</ele>
        <time>2014-03-12T08:31:22Z</time>
      </trkpt>
      <trkpt lat="49.19468" lon="6.84289">
        <ele>277.2</ele>
        <time>2014-03-12T08:31:27Z</time>
      </trkpt>
      <trkpt lat="49.19471" lon="6.84289">
        <ele>277.7</ele>
        <time>2014-03-12T08:31:32Z</time>
      </trkpt>
      <trkpt lat="49.19478" lon="6.8429">
        <ele>277.4</ele>
        <time>2014-03-12T08:31:37Z</time>
      </trkpt>
      <trkpt lat="49.19485" lon="6.84291">
        <ele>277.9</ele>
        <time>2014-03-12T08:31:42Z</time>
      </trkpt>
      <trkpt lat="49.19492" lon="6.84292">
        <ele>278.9</ele>
        <time>2014-03-12T08:31:47Z</time>
      </trkpt>
      <trkpt lat="49.19497" lon="6.84291">
        <ele>280.3</ele>
        <time>2014-03-12T08:31:52Z</time>
      </trkpt>
      <trkpt lat="49.19502" lon="6.8429">
        <ele>281</ele>
        <time>2014-03-12T08:31:57Z</time>
      </trkpt>
      <trkpt lat="49.19508" lon="6.84287">
        <ele>281.7</ele>
        <time>2014-03-12T08:32:02Z</time>
      </trkpt>
      <trkpt lat="49.19513" lon="6.84284">
        <ele>283.2</ele>
        <time>2014-03-12T08:32:07Z</time>
      </trkpt>
      <trkpt lat="49.19518" lon="6.84281">
        <ele>285.2</ele>
        <time>2014-03-12T08:32:12Z</time>
      </trkpt>
      <trkpt lat="49.19528" lon="6.84286">
        <ele>287.3</ele>
        <time>2014-03-12T08:32:22Z</time>
      </trkpt>
      <trkpt lat="49.19532" lon="6.84291">
        <ele>287.5</ele>
        <time>2014-03-12T08:32:27Z</time>
      </trkpt>
      <trkpt lat="49.19536" lon="6.84295">
        <ele>287.4</ele>
        <time>2014-03-12T08:32:32Z</time>
      </trkpt>
      <trkpt lat="49.1954" lon="6.84299">
        <ele>287.7</ele>
        <time>2014-03-12T08:32:37Z</time>
      </trkpt>
      <trkpt lat="49.19543" lon="6.84303">
        <ele>287.5</ele>
        <time>2014-03-12T08:32:42Z</time>
      </trkpt>
      <trkpt lat="49.19547" lon="6.84306">
        <ele>287.8</ele>
        <time>2014-03-12T08:32:47Z</time>
      </trkpt>
      <trkpt lat="49.19551" lon="6.8431">
        <ele>287.7</ele>
        <time>2014-03-12T08:32:52Z</time>
      </trkpt>
      <trkpt lat="49.19553" lon="6.84312">
        <ele>287.8</ele>
        <time>2014-03-12T08:32:57Z</time>
      </trkpt>
      <trkpt lat="49.19556" lon="6.84315">
        <ele>287.9</ele>
        <time>2014-03-12T08:33:02Z</time>
      </trkpt>
      <trkpt lat="49.1956" lon="6.84319">
        <ele>288.3</ele>
        <time>2014-03-12T08:33:07Z</time>
      </trkpt>
      <trkpt lat="49.19565" lon="6.84323">
        <ele>288.2</ele>
        <time>2014-03-12T08:33:12Z</time>
      </trkpt>
      <trkpt lat="49.19568" lon="6.84325">
        <ele>288.3</ele>
        <time>2014-03-12T08:33:17Z</time>
      </trkpt>
      <trkpt lat="49.1957" lon="6.84326">
        <ele>288.9</ele>
        <time>2014-03-12T08:33:27Z</time>
      </trkpt>
      <trkpt lat="49.1957" lon="6.84327">
        <ele>289.7</ele>
        <time>2014-03-12T08:33:32Z</time>
      </trkpt>
      <trkpt lat="49.1957" lon="6.84327">
        <ele>289.4</ele>
        <time>2014-03-12T08:33:37Z</time>
      </trkpt>
      <trkpt lat="49.19571" lon="6.84327">
        <ele>289.4</ele>
        <time>2014-03-12T08:33:42Z</time>
      </trkpt>
      <trkpt lat="49.19571" lon="6.84327">
        <ele>289.4</ele>
        <time>2014-03-12T08:33:47Z</time>
      </trkpt>
      <trkpt lat="49.19571" lon="6.84327">
        <ele>289.5</ele>
        <time>2014-03-12T08:33:52Z</time>
      </trkpt>
      <trkpt lat="49.19571" lon="6.84328">
        <ele>289.3</ele>
        <time>2014-03-12T08:33:57Z</time>
      </trkpt>
      <trkpt lat="49.19572" lon="6.84327">
        <ele>289.3</ele>
        <time>2014-03-12T08:34:02Z</time>
      </trkpt>
      <trkpt lat="49.19572" lon="6.84327">
        <ele>290.4</ele>
        <time>2014-03-12T08:34:07Z</time>
      </trkpt>
      <trkpt lat="49.19572" lon="6.84327">
        <ele>290.1</ele>
        <time>2014-03-12T08:34:12Z</time>
      </trkpt>
      <trkpt lat="49.19572" lon="6.84327">
        <ele>288.8</ele>
        <time>2014-03-12T08:34:17Z</time>
      </trkpt>
      <trkpt lat="49.19572" lon="6.84327">
        <ele>288.9</ele>
        <time>2014-03-12T08:34:22Z</time>
      </trkpt>
      <trkpt lat="49.1957" lon="6.84326">
        <ele>289.3</ele>
        <time>2014-03-12T08:34:32Z</time>
      </trkpt>
      <trkpt lat="49.1957" lon="6.84326">
        <ele>289.5</ele>
        <time>2014-03-12T08:34:37Z</time>
      </trkpt>
      <trkpt lat="49.19568" lon="6.84325">
        <ele>288.9</ele>
        <time>2014-03-12T08:34:42Z</time>
      </trkpt>
      <trkpt lat="49.19566" lon="6.84321">
        <ele>289.7</ele>
        <time>2014-03-12T08:34:47Z</time>
      </trkpt>
      <trkpt lat="49.19566" lon="6.84319">
        <ele>289.3</ele>
        <time>2014-03-12T08:34:52Z</time>
      </trkpt>
      <trkpt lat="49.19565" lon="6.84319">
        <ele>290.3</ele>
        <time>2014-03-12T08:34:57Z</time>
      </trkpt>
      <trkpt lat="49.19565" lon="6.84319">
        <ele>289.7</ele>
        <time>2014-03-12T08:35:02Z</time>
      </trkpt>
      <trkpt lat="49.19565" lon="6.84318">
        <ele>289</ele>
        <time>2014-03-12T08:35:07Z</time>
      </trkpt>
      <trkpt lat="49.19563" lon="6.84314">
        <ele>288.6</ele>
        <time>2014-03-12T08:35:12Z</time>
      </trkpt>
      <trkpt lat="49.19558" lon="6.84315">
        <ele>288.6</ele>
        <time>2014-03-12T08:35:17Z</time>
      </trkpt>
      <trkpt lat="49.19554" lon="6.84313">
        <ele>289.5</ele>
        <time>2014-03-12T08:35:22Z</time>
      </trkpt>
      <trkpt lat="49.19552" lon="6.84309">
        <ele>288.9</ele>
        <time>2014-03-12T08:35:27Z</time>
      </trkpt>
      <trkpt lat="49.19543" lon="6.843">
        <ele>289.5</ele>
        <time>2014-03-12T08:35:37Z</time>
      </trkpt>
      <trkpt lat="49.1954" lon="6.84295">
        <ele>288.1</ele>
        <time>2014-03-12T08:35:42Z</time>
      </trkpt>
      <trkpt lat="49.19536" lon="6.84289">
        <ele>288.8</ele>
        <time>2014-03-12T08:35:47Z</time>
      </trkpt>
      <trkpt lat="49.19534" lon="6.84287">
        <ele>288.2</ele>
        <time>2014-03-12T08:35:52Z</time>
      </trkpt>
      <trkpt lat="49.19534" lon="6.84286">
        <ele>288.3</ele>
        <time>2014-03-12T08:35:57Z</time>
      </trkpt>
      <trkpt lat="49.19534" lon="6.84286">
        <ele>288.1</ele>
        <time>2014-03-12T08:36:02Z</time>
      </trkpt>
      <trkpt lat="49.19534" lon="6.84286">
        <ele>288.9</ele>
        <time>2014-03-12T08:36:07Z</time>
      </trkpt>
      <trkpt lat="49.19534" lon="6.84285">
        <ele>287.9</ele>
        <time>2014-03-12T08:36:12Z</time>
      </trkpt>
      <trkpt lat="49.19534" lon="6.84285">
        <ele>288.2</ele>
        <time>2014-03-12T08:36:17Z</time>
      </trkpt>
      <trkpt lat="49.19534" lon="6.84283">
        <ele>287.6</ele>
        <time>2014-03-12T08:36:22Z</time>
      </trkpt>
      <trkpt lat="49.19534" lon="6.84284">
        <ele>287.9</ele>
        <time>2014-03-12T08:36:27Z</time>
      </trkpt>
      <trkpt lat="49.19534" lon="6.84284">
        <ele>287.7</ele>
        <time>2014-03-12T08:36:32Z</time>
      </trkpt>
      <trkpt lat="49.19534" lon="6.84283">
        <ele>287.7</ele>
        <time>2014-03-12T08:36:42Z</time>
      </trkpt>
      <trkpt lat="49.19534" lon="6.84283">
        <ele>287.9</ele>
        <time>2014-03-12T08:36:47Z</time>
      </trkpt>
      <trkpt lat="49.19534" lon="6.84282">
        <ele>287.6</ele>
        <time>2014-03-12T08:36:52Z</time>
      </trkpt>
      <trkpt lat="49.19533" lon="6.84281">
        <ele>287.7</ele>
        <time>2014-03-12T08:36:57Z</time>
      </trkpt>
      <trkpt lat="49.19533" lon="6.84282">
        <ele>287.6</ele>
        <time>2014-03-12T08:37:02Z</time>
      </trkpt>
      <trkpt lat="49.19533" lon="6.84283">
        <ele>287.7</ele>
        <time>2014-03-12T08:37:07Z</time>
      </trkpt>
      <trkpt lat="49.19533" lon="6.84284">
        <ele>288.5</ele>
        <time>2014-03-12T08:37:12Z</time>
      </trkpt>
      <trkpt lat="49.19532" lon="6.84284">
        <ele>288.2</ele>
        <time>2014-03-12T08:37:17Z</time>
      </trkpt>
      <trkpt lat="49.19532" lon="6.84285">
        <ele>288.1</ele>
        <time>2014-03-12T08:37:22Z</time>
      </trkpt>
      <trkpt lat="49.19531" lon="6.84283">
        <ele>288.2</ele>
        <time>2014-03-12T08:37:27Z</time>
      </trkpt>
      <trkpt lat="49.19528" lon="6.84279">
        <ele>288.3</ele>
        <time>2014-03-12T08:37:32Z</time>
      </trkpt>
      <trkpt lat="49.19526" lon="6.84276">
        <ele>287.8</ele>
        <time>2014-03-12T08:37:37Z</time>
      </trkpt>
      <trkpt lat="49.1952" lon="6.84267">
        <ele>287.6</ele>
        <time>2014-03-12T08:37:47Z</time>
      </trkpt>
      <trkpt lat="49.19517" lon="6.84261">
        <ele>288.4</ele>
        <time>2014-03-12T08:37:52Z</time>
      </trkpt>
      <trkpt lat="49.19512" lon="6.84257">
        <ele>288.4</ele>
        <time>2014-03-12T08:37:57Z</time>
      </trkpt>
      <trkpt lat="49.19508" lon="6.84252">
        <ele>288.7</ele>
        <time>2014-03-12T08:38:02Z</time>
      </trkpt>
      <trkpt lat="49.19503" lon="6.84248">
        <ele>288.5</ele>
        <time>2014-03-12T08:38:07Z</time>
      </trkpt>
      <trkpt lat="49.19498" lon="6.84244">
        <ele>288</ele>
        <time>2014-03-12T08:38:12Z</time>
      </trkpt>
      <trkpt lat="49.19492" lon="6.8424">
        <ele>287.8</ele>
        <time>2014-03-12T08:38:17Z</time>
      </trkpt>
      <trkpt lat="49.19486" lon="6.84237">
        <ele>288.3</ele>
        <time>2014-03-12T08:38:22Z</time>
      </trkpt>
      <trkpt lat="49.1948" lon="6.84233">
        <ele>288.3</ele>
        <time>2014-03-12T08:38:27Z</time>
      </trkpt>
      <trkpt lat="49.19474" lon="6.8423">
        <ele>288</ele>
        <time>2014-03-12T08:38:32Z</time>
      </trkpt>
      <trkpt lat="49.19468" lon="6.84227">
        <ele>288.7</ele>
        <time>2014-03-12T08:38:37Z</time>
      </trkpt>
      <trkpt lat="49.19462" lon="6.84223">
        <ele>288.7</ele>
        <time>2014-03-12T08:38:42Z</time>
      </trkpt>
      <trkpt lat="49.19449" lon="6.84218">
        <ele>288.7</ele>
        <time>2014-03-12T08:38:52Z</time>
      </trkpt>
      <trkpt lat="49.19443" lon="6.84214">
        <ele>287.9</ele>
        <time>2014-03-12T08:38:57Z</time>
      </trkpt>
      <trkpt lat="49.19437" lon="6.84212">
        <ele>288.7</ele>
        <time>2014-03-12T08:39:02Z</time>
      </trkpt>
      <trkpt lat="49.19431" lon="6.84209">
        <ele>288.5</ele>
        <time>2014-03-12T08:39:07Z</time>
      </trkpt>
      <trkpt lat="49.19425" lon="6.84207">
        <ele>287.7</ele>
        <time>2014-03-12T08:39:12Z</time>
      </trkpt>
      <trkpt lat="49.19419" lon="6.84204">
        <ele>289.3</ele>
        <time>2014-03-12T08:39:17Z</time>
      </trkpt>
      <trkpt lat="49.19413" lon="6.842">
        <ele>287.2</ele>
        <time>2014-03-12T08:39:22Z</time>
      </trkpt>
      <trkpt lat="49.19407" lon="6.84196">
        <ele>288.2</ele>
        <time>2014-03-12T08:39:27Z</time>
      </trkpt>
      <trkpt lat="49.19401" lon="6.84191">
        <ele>287.9</ele>
        <time>2014-03-12T08:39:32Z</time>
      </trkpt>
      <trkpt lat="49.19399" lon="6.84188">
        <ele>287.6</ele>
        <time>2014-03-12T08:39:37Z</time>
      </trkpt>
      <trkpt lat="49.19398" lon="6.84188">
        <ele>288</ele>
        <time>2014-03-12T08:39:42Z</time>
      </trkpt>
      <trkpt lat="49.19395" lon="6.84185">
        <ele>287.9</ele>
        <time>2014-03-12T08:39:47Z</time>
      </trkpt>
      <trkpt lat="49.19385" lon="6.84173">
        <ele>288.7</ele>
        <time>2014-03-12T08:39:57Z</time>
      </trkpt>
      <trkpt lat="49.1938" lon="6.84166">
        <ele>288.3</ele>
        <time>2014-03-12T08:40:02Z</time>
      </trkpt>
      <trkpt lat="49.19375" lon="6.84159">
        <ele>288.3</ele>
        <time>2014-03-12T08:40:07Z</time>
      </trkpt>
      <trkpt lat="49.19371" lon="6.84152">
        <ele>287.6</ele>
        <time>2014-03-12T08:40:12Z</time>
      </trkpt>
      <trkpt lat="49.19367" lon="6.84145">
        <ele>287.4</ele>
        <time>2014-03-12T08:40:17Z</time>
      </trkpt>
      <trkpt lat="49.19362" lon="6.84138">
        <ele>288</ele>
        <time>2014-03-12T08:40:22Z</time>
      </trkpt>
      <trkpt lat="49.19358" lon="6.84131">
        <ele>288.6</ele>
        <time>2014-03-12T08:40:27Z</time>
      </trkpt>
      <trkpt lat="49.19354" lon="6.84126">
        <ele>288</ele>
        <time>2014-03-12T08:40:32Z</time>
      </trkpt>
      <trkpt lat="49.19351" lon="6.8412">
        <ele>289.2</ele>
        <time>2014-03-12T08:40:37Z</time>
      </trkpt>
      <trkpt lat="49.19347" lon="6.84114">
        <ele>288.5</ele>
        <time>2014-03-12T08:40:42Z</time>
      </trkpt>
      <trkpt lat="49.19343" lon="6.84108">
        <ele>289.3</ele>
        <time>2014-03-12T08:40:47Z</time>
      </trkpt>
      <trkpt lat="49.19339" lon="6.84101">
        <ele>288.6</ele>
        <time>2014-03-12T08:40:52Z</time>
      </trkpt>
      <trkpt lat="49.19331" lon="6.84087">
        <ele>288.2</ele>
        <time>2014-03-12T08:41:02Z</time>
      </trkpt>
      <trkpt lat="49.19327" lon="6.8408">
        <ele>287.8</ele>
        <time>2014-03-12T08:41:07Z</time>
      </trkpt>
      <trkpt lat="49.19322" lon="6.84072">
        <ele>287.7</ele>
        <time>2014-03-12T08:41:12Z</time>
      </trkpt>
      <trkpt lat="49.19318" lon="6.84064">
        <ele>288.4</ele>
        <time>2014-03-12T08:41:17Z</time>
      </trkpt>
      <trkpt lat="49.19314" lon="6.84057">
        <ele>288.7</ele>
        <time>2014-03-12T08:41:22Z</time>
      </trkpt>
      <trkpt lat="49.1931" lon="6.84049">
        <ele>288.2</ele>
        <time>2014-03-12T08:41:27Z</time>
      </trkpt>
      <trkpt lat="49.19306" lon="6.84041">
        <ele>287.8</ele>
        <time>2014-03-12T08:41:32Z</time>
      </trkpt>
      <trkpt lat="49.19302" lon="6.84034">
        <ele>288.4</ele>
        <time>2014-03-12T08:41:37Z</time>
      </trkpt>
      <trkpt lat="49.19298" lon="6.84027">
        <ele>289.1</ele>
        <time>2014-03-12T08:41:42Z</time>
      </trkpt>
      <trkpt lat="49.19293" lon="6.8402">
        <ele>288.9</ele>
        <time>2014-03-12T08:41:47Z</time>
      </trkpt>
      <trkpt lat="49.19289" lon="6.84013">
        <ele>288.5</ele>
        <time>2014-03-12T08:41:52Z</time>
      </trkpt>
      <trkpt lat="49.19285" lon="6.84005">
        <ele>288.4</ele>
        <time>2014-03-12T08:41:57Z</time>
      </trkpt>
      <trkpt lat="49.19277" lon="6.8399">
        <ele>288.9</ele>
        <time>2014-03-12T08:42:07Z</time>
      </trkpt>
      <trkpt lat="49.19273" lon="6.83983">
        <ele>288.6</ele>
        <time>2014-03-12T08:42:12Z</time>
      </trkpt>
      <trkpt lat="49.1927" lon="6.83975">
        <ele>288.8</ele>
        <time>2014-03-12T08:42:17Z</time>
      </trkpt>
      <trkpt lat="49.19267" lon="6.83966">
        <ele>289.2</ele>
        <time>2014-03-12T08:42:22Z</time>
      </trkpt>
      <trkpt lat="49.19264" lon="6.83958">
        <ele>288</ele>
        <time>2014-03-12T08:42:27Z</time>
      </trkpt>
      <trkpt lat="49.19261" lon="6.83949">
        <ele>287.7</ele>
        <time>2014-03-12T08:42:32Z</time>
      </trkpt>
      <trkpt lat="49.19258" lon="6.8394">
        <ele>287.6</ele>
        <time>2014-03-12T08:42:37Z</time>
      </trkpt>
      <trkpt lat="49.19256" lon="6.8393">
        <ele>287.4</ele>
        <time>2014-03-12T08:42:42Z</time>
      </trkpt>
      <trkpt lat="49.19254" lon="6.83921">
        <ele>287.5</ele>
        <time>2014-03-12T08:42:47Z</time>
      </trkpt>
      <trkpt lat="49.19252" lon="6.83911">
        <ele>288</ele>
        <time>2014-03-12T08:42:52Z</time>
      </trkpt>
      <trkpt lat="49.19249" lon="6.83902">
        <ele>287.6</ele>
        <time>2014-03-12T08:42:57Z</time>
      </trkpt>
      <trkpt lat="49.19247" lon="6.83893">
        <ele>287.9</ele>
        <time>2014-03-12T08:43:02Z</time>
      </trkpt>
      <trkpt lat="49.19242" lon="6.83874">
        <ele>288.2</ele>
        <time>2014-03-12T08:43:12Z</time>
      </trkpt>
      <trkpt lat="49.19239" lon="6.83866">
        <ele>288.5</ele>
        <time>2014-03-12T08:43:17Z</time>
      </trkpt>
      <trkpt lat="49.19235" lon="6.83858">
        <ele>288.2</ele>
        <time>2014-03-12T08:43:22Z</time>
      </trkpt>
      <trkpt lat="49.1923" lon="6.8385">
        <ele>289.2</ele>
        <time>2014-03-12T08:43:27Z</time>
      </trkpt>
      <trkpt lat="49.19226" lon="6.83843">
        <ele>288.7</ele>
        <time>2014-03-12T08:43:32Z</time>
      </trkpt>
      <trkpt lat="49.19221" lon="6.83837">
        <ele>289</ele>
        <time>2014-03-12T08:43:37Z</time>
      </trkpt>
      <trkpt lat="49.19216" lon="6.83832">
        <ele>289.2</ele>
        <time>2014-03-12T08:43:42Z</time>
      </trkpt>
      <trkpt lat="49.1921" lon="6.83827">
        <ele>289.2</ele>
        <time>2014-03-12T08:43:47Z</time>
      </trkpt>
      <trkpt lat="49.19204" lon="6.83824">
        <ele>288.9</ele>
        <time>2014-03-12T08:43:52Z</time>
      </trkpt>
      <trkpt lat="49.19199" lon="6.83822">
        <ele>288.9</ele>
        <time>2014-03-12T08:43:57Z</time>
      </trkpt>
      <trkpt lat="49.19194" lon="6.83818">
        <ele>286.6</ele>
        <time>2014-03-12T08:44:02Z</time>
      </trkpt>
      <trkpt lat="49.1919" lon="6.83815">
        <ele>286.8</ele>
        <time>2014-03-12T08:44:07Z</time>
      </trkpt>
      <trkpt lat="49.19181" lon="6.83806">
        <ele>286.9</ele>
        <time>2014-03-12T08:44:17Z</time>
      </trkpt>
      <trkpt lat="49.19177" lon="6.83803">
        <ele>286.8</ele>
        <time>2014-03-12T08:44:22Z</time>
      </trkpt>
      <trkpt lat="49.19172" lon="6.83797">
        <ele>287.2</ele>
        <time>2014-03-12T08:44:27Z</time>
      </trkpt>
      <trkpt lat="49.19167" lon="6.83791">
        <ele>287.2</ele>
        <time>2014-03-12T08:44:32Z</time>
      </trkpt>
      <trkpt lat="49.19162" lon="6.83786">
        <ele>286.8</ele>
        <time>2014-03-12T08:44:37Z</time>
      </trkpt>
      <trkpt lat="49.19157" lon="6.83779">
        <ele>286.9</ele>
        <time>2014-03-12T08:44:42Z</time>
      </trkpt>
      <trkpt lat="49.19153" lon="6.83773">
        <ele>287.1</ele>
        <time>2014-03-12T08:44:47Z</time>
      </trkpt>
      <trkpt lat="49.19148" lon="6.83767">
        <ele>286.8</ele>
        <time>2014-03-12T08:44:52Z</time>
      </trkpt>
      <trkpt lat="49.19143" lon="6.83762">
        <ele>286.7</ele>
        <time>2014-03-12T08:44:57Z</time>
      </trkpt>
      <trkpt lat="49.1914" lon="6.83755">
        <ele>286.7</ele>
        <time>2014-03-12T08:45:02Z</time>
      </trkpt>
      <trkpt lat="49.19135" lon="6.83749">
        <ele>285.8</ele>
        <time>2014-03-12T08:45:07Z</time>
      </trkpt>
      <trkpt lat="49.1913" lon="6.83743">
        <ele>287.5</ele>
        <time>2014-03-12T08:45:12Z</time>
      </trkpt>
      <trkpt lat="49.1912" lon="6.83732">
        <ele>287.6</ele>
        <time>2014-03-12T08:45:22Z</time>
      </trkpt>
      <trkpt lat="49.19115" lon="6.83726">
        <ele>287.9</ele>
        <time>2014-03-12T08:45:27Z</time>
      </trkpt>
      <trkpt lat="49.19109" lon="6.8372">
        <ele>287.4</ele>
        <time>2014-03-12T08:45:32Z</time>
      </trkpt>
      <trkpt lat="49.19103" lon="6.83715">
        <ele>287.6</ele>
        <time>2014-03-12T08:45:37Z</time>
      </trkpt>
      <trkpt lat="49.19098" lon="6.8371">
        <ele>286.8</ele>
        <time>2014-03-12T08:45:42Z</time>
      </trkpt>
      <trkpt lat="49.19093" lon="6.83704">
        <ele>286.7</ele>
        <time>2014-03-12T08:45:47Z</time>
      </trkpt>
      <trkpt lat="49.19089" lon="6.837">
        <ele>287.2</ele>
        <time>2014-03-12T08:45:52Z</time>
      </trkpt>
      <trkpt lat="49.19083" lon="6.83696">
        <ele>287.2</ele>
        <time>2014-03-12T08:45:57Z</time>
      </trkpt>
      <trkpt lat="49.19079" lon="6.83695">
        <ele>287.3</ele>
        <time>2014-03-12T08:46:02Z</time>
      </trkpt>
      <trkpt lat="49.19074" lon="6.83688">
        <ele>286.8</ele>
        <time>2014-03-12T08:46:07Z</time>
      </trkpt>
      <trkpt lat="49.19069" lon="6.83682">
        <ele>286.3</ele>
        <time>2014-03-12T08:46:12Z</time>
      </trkpt>
      <trkpt lat="49.19064" lon="6.83677">
        <ele>286.3</ele>
        <time>2014-03-12T08:46:17Z</time>
      </trkpt>
      <trkpt lat="49.19053" lon="6.83666">
        <ele>287.5</ele>
        <time>2014-03-12T08:46:27Z</time>
      </trkpt>
      <trkpt lat="49.19047" lon="6.8366">
        <ele>287.5</ele>
        <time>2014-03-12T08:46:32Z</time>
      </trkpt>
      <trkpt lat="49.19043" lon="6.83654">
        <ele>288.3</ele>
        <time>2014-03-12T08:46:37Z</time>
      </trkpt>
      <trkpt lat="49.19038" lon="6.83647">
        <ele>287.7</ele>
        <time>2014-03-12T08:46:42Z</time>
      </trkpt>
      <trkpt lat="49.19034" lon="6.83639">
        <ele>286.9</ele>
        <time>2014-03-12T08:46:47Z</time>
      </trkpt>
      <trkpt lat="49.19029" lon="6.83631">
        <ele>287.2</ele>
        <time>2014-03-12T08:46:52Z</time>
      </trkpt>
      <trkpt lat="49.19025" lon="6.83624">
        <ele>287.4</ele>
        <time>2014-03-12T08:46:57Z</time>
      </trkpt>
      <trkpt lat="49.1902" lon="6.83616">
        <ele>286.8</ele>
        <time>2014-03-12T08:47:02Z</time>
      </trkpt>
      <trkpt lat="49.19015" lon="6.83608">
        <ele>286.2</ele>
        <time>2014-03-12T08:47:07Z</time>
      </trkpt>
      <trkpt lat="49.1901" lon="6.83601">
        <ele>285.7</ele>
        <time>2014-03-12T08:47:12Z</time>
      </trkpt>
      <trkpt lat="49.19005" lon="6.83594">
        <ele>286.2</ele>
        <time>2014-03-12T08:47:17Z</time>
      </trkpt>
      <trkpt lat="49.18999" lon="6.83588">
        <ele>286.2</ele>
        <time>2014-03-12T08:47:22Z</time>
      </trkpt>
      <trkpt lat="49.18989" lon="6.83575">
        <ele>285.9</ele>
        <time>2014-03-12T08:47:32Z</time>
      </trkpt>
      <trkpt lat="49.18983" lon="6.8357">
        <ele>286.6</ele>
        <time>2014-03-12T08:47:37Z</time>
      </trkpt>
      <trkpt lat="49.1898" lon="6.83567">
        <ele>286</ele>
        <time>2014-03-12T08:47:42Z</time>
      </trkpt>
      <trkpt lat="49.18985" lon="6.83568">
        <ele>285.9</ele>
        <time>2014-03-12T08:47:47Z</time>
      </trkpt>
      <trkpt lat="49.18991" lon="6.83569">
        <ele>285.6</ele>
        <time>2014-03-12T08:47:52Z</time>
      </trkpt>
      <trkpt lat="49.18998" lon="6.83568">
        <ele>285</ele>
        <time>2014-03-12T08:47:57Z</time>
      </trkpt>
      <trkpt lat="49.19001" lon="6.83563">
        <ele>284.7</ele>
        <time>2014-03-12T08:48:02Z</time>
      </trkpt>
      <trkpt lat="49.19004" lon="6.83556">
        <ele>285</ele>
        <time>2014-03-12T08:48:07Z</time>
      </trkpt>
      <trkpt lat="49.19006" lon="6.83548">
        <ele>285.4</ele>
        <time>2014-03-12T08:48:12Z</time>
      </trkpt>
      <trkpt lat="49.19008" lon="6.8354">
        <ele>285.4</ele>
        <time>2014-03-12T08:48:17Z</time>
      </trkpt>
      <trkpt lat="49.19011" lon="6.83532">
        <ele>285.4</ele>
        <time>2014-03-12T08:48:22Z</time>
      </trkpt>
      <trkpt lat="49.19012" lon="6.83523">
        <ele>285.6</ele>
        <time>2014-03-12T08:48:27Z</time>
      </trkpt>
      <trkpt lat="49.19014" lon="6.83504">
        <ele>285.8</ele>
        <time>2014-03-12T08:48:37Z</time>
      </trkpt>
      <trkpt lat="49.19017" lon="6.83494">
        <ele>284.9</ele>
        <time>2014-03-12T08:48:42Z</time>
      </trkpt>
      <trkpt lat="49.1902" lon="6.83485">
        <ele>285.8</ele>
        <time>2014-03-12T08:48:47Z</time>
      </trkpt>
      <trkpt lat="49.19022" lon="6.83476">
        <ele>286.3</ele>
        <time>2014-03-12T08:48:52Z</time>
      </trkpt>
      <trkpt lat="49.19024" lon="6.83466">
        <ele>286.3</ele>
        <time>2014-03-12T08:48:57Z</time>
      </trkpt>
      <trkpt lat="49.19026" lon="6.83456">
        <ele>286.3</ele>
        <time>2014-03-12T08:49:02Z</time>
      </trkpt>
      <trkpt lat="49.19029" lon="6.83445">
        <ele>286.8</ele>
        <time>2014-03-12T08:49:07Z</time>
      </trkpt>
      <trkpt lat="49.19032" lon="6.83435">
        <ele>286.8</ele>
        <time>2014-03-12T08:49:12Z</time>
      </trkpt>
      <trkpt lat="49.19035" lon="6.83425">
        <ele>286.8</ele>
        <time>2014-03-12T08:49:17Z</time>
      </trkpt>
      <trkpt lat="49.19039" lon="6.83416">
        <ele>287.5</ele>
        <time>2014-03-12T08:49:22Z</time>
      </trkpt>
      <trkpt lat="49.19043" lon="6.83408">
        <ele>287.7</ele>
        <time>2014-03-12T08:49:27Z</time>
      </trkpt>
      <trkpt lat="49.19048" lon="6.83399">
        <ele>286.2</ele>
        <time>2014-03-12T08:49:32Z</time>
      </trkpt>
      <trkpt lat="49.19056" lon="6.83383">
        <ele>287.4</ele>
        <time>2014-03-12T08:49:42Z</time>
      </trkpt>
      <trkpt lat="49.1906" lon="6.83376">
        <ele>287.9</ele>
        <time>2014-03-12T08:49:47Z</time>
      </trkpt>
      <trkpt lat="49.19064" lon="6.83368">
        <ele>287.9</ele>
        <time>2014-03-12T08:49:52Z</time>
      </trkpt>
      <trkpt lat="49.19068" lon="6.8336">
        <ele>286.4</ele>
        <time>2014-03-12T08:49:57Z</time>
      </trkpt>
      <trkpt lat="49.19072" lon="6.83352">
        <ele>286.9</ele>
        <time>2014-03-12T08:50:02Z</time>
      </trkpt>
      <trkpt lat="49.19074" lon="6.83343">
        <ele>286.7</ele>
        <time>2014-03-12T08:50:07Z</time>
      </trkpt>
      <trkpt lat="49.19075" lon="6.83333">
        <ele>287.2</ele>
        <time>2014-03-12T08:50:12Z</time>
      </trkpt>
      <trkpt lat="49.19076" lon="6.83324">
        <ele>286.7</ele>
        <time>2014-03-12T08:50:17Z</time>
      </trkpt>
      <trkpt lat="49.19077" lon="6.83315">
        <ele>286.3</ele>
        <time>2014-03-12T08:50:22Z</time>
      </trkpt>
      <trkpt lat="49.19077" lon="6.83305">
        <ele>286.1</ele>
        <time>2014-03-12T08:50:27Z</time>
      </trkpt>
      <trkpt lat="49.19078" lon="6.83296">
        <ele>285.6</ele>
        <time>2014-03-12T08:50:32Z</time>
      </trkpt>
      <trkpt lat="49.19079" lon="6.83289">
        <ele>285</ele>
        <time>2014-03-12T08:50:37Z</time>
      </trkpt>
      <trkpt lat="49.19078" lon="6.83272">
        <ele>283.8</ele>
        <time>2014-03-12T08:50:47Z</time>
      </trkpt>
      <trkpt lat="49.19075" lon="6.83256">
        <ele>283</ele>
        <time>2014-03-12T08:50:53Z</time>
      </trkpt>
      <trkpt lat="49.19073" lon="6.83243">
        <ele>283.7</ele>
        <time>2014-03-12T08:51:00Z</time>
      </trkpt>
      <trkpt lat="49.1907" lon="6.83233">
        <ele>283</ele>
        <time>2014-03-12T08:51:05Z</time>
      </trkpt>
      <trkpt lat="49.19066" lon="6.83223">
        <ele>282.5</ele>
        <time>2014-03-12T08:51:10Z</time>
      </trkpt>
      <trkpt lat="49.19063" lon="6.83214">
        <ele>283</ele>
        <time>2014-03-12T08:51:15Z</time>
      </trkpt>
      <trkpt lat="49.19061" lon="6.83204">
        <ele>282.4</ele>
        <time>2014-03-12T08:51:20Z</time>
      </trkpt>
      <trkpt lat="49.19058" lon="6.83195">
        <ele>281.6</ele>
        <time>2014-03-12T08:51:25Z</time>
      </trkpt>
      <trkpt lat="49.19057" lon="6.83188">
        <ele>281.8</ele>
        <time>2014-03-12T08:51:30Z</time>
      </trkpt>
      <trkpt lat="49.19055" lon="6.83182">
        <ele>281.3</ele>
        <time>2014-03-12T08:51:35Z</time>
      </trkpt>
      <trkpt lat="49.19053" lon="6.83175">
        <ele>282</ele>
        <time>2014-03-12T08:51:40Z</time>
      </trkpt>
      <trkpt lat="49.19048" lon="6.8316">
        <ele>281.2</ele>
        <time>2014-03-12T08:51:50Z</time>
      </trkpt>
      <trkpt lat="49.19046" lon="6.83152">
        <ele>281.3</ele>
        <time>2014-03-12T08:51:55Z</time>
      </trkpt>
      <trkpt lat="49.19045" lon="6.83143">
        <ele>281.1</ele>
        <time>2014-03-12T08:52:00Z</time>
      </trkpt>
      <trkpt lat="49.19042" lon="6.83134">
        <ele>281.2</ele>
        <time>2014-03-12T08:52:05Z</time>
      </trkpt>
      <trkpt lat="49.1904" lon="6.83127">
        <ele>280.9</ele>
        <time>2014-03-12T08:52:10Z</time>
      </trkpt>
      <trkpt lat="49.19038" lon="6.83118">
        <ele>281.1</ele>
        <time>2014-03-12T08:52:15Z</time>
      </trkpt>
      <trkpt lat="49.19036" lon="6.83109">
        <ele>279.8</ele>
        <time>2014-03-12T08:52:20Z</time>
      </trkpt>
      <trkpt lat="49.19034" lon="6.831">
        <ele>280.1</ele>
        <time>2014-03-12T08:52:25Z</time>
      </trkpt>
      <trkpt lat="49.19032" lon="6.83091">
        <ele>279.4</ele>
        <time>2014-03-12T08:52:30Z</time>
      </trkpt>
      <trkpt lat="49.19029" lon="6.83081">
        <ele>279.4</ele>
        <time>2014-03-12T08:52:35Z</time>
      </trkpt>
      <trkpt lat="49.19026" lon="6.83071">
        <ele>278.7</ele>
        <time>2014-03-12T08:52:40Z</time>
      </trkpt>
      <trkpt lat="49.19023" lon="6.83062">
        <ele>278.8</ele>
        <time>2014-03-12T08:52:45Z</time>
      </trkpt>
      <trkpt lat="49.19018" lon="6.83046">
        <ele>279</ele>
        <time>2014-03-12T08:52:55Z</time>
      </trkpt>
      <trkpt lat="49.19015" lon="6.83038">
        <ele>278</ele>
        <time>2014-03-12T08:53:00Z</time>
      </trkpt>
      <trkpt lat="49.19013" lon="6.83027">
        <ele>277.5</ele>
        <time>2014-03-12T08:53:05Z</time>
      </trkpt>
      <trkpt lat="49.1901" lon="6.83017">
        <ele>277.4</ele>
        <time>2014-03-12T08:53:10Z</time>
      </trkpt>
      <trkpt lat="49.19009" lon="6.83008">
        <ele>277.3</ele>
        <time>2014-03-12T08:53:15Z</time>
      </trkpt>
      <trkpt lat="49.19008" lon="6.82998">
        <ele>277.4</ele>
        <time>2014-03-12T08:53:20Z</time>
      </trkpt>
      <trkpt lat="49.19009" lon="6.82988">
        <ele>276.9</ele>
        <time>2014-03-12T08:53:25Z</time>
      </trkpt>
      <trkpt lat="49.19009" lon="6.82978">
        <ele>275.7</ele>
        <time>2014-03-12T08:53:30Z</time>
      </trkpt>
      <trkpt lat="49.19012" lon="6.82971">
        <ele>275.5</ele>
        <time>2014-03-12T08:53:35Z</time>
      </trkpt>
      <trkpt lat="49.19016" lon="6.82966">
        <ele>275.3</ele>
        <time>2014-03-12T08:53:40Z</time>
      </trkpt>
      <trkpt lat="49.1902" lon="6.82963">
        <ele>275.3</ele>
        <time>2014-03-12T08:53:45Z</time>
      </trkpt>
      <trkpt lat="49.19025" lon="6.8296">
        <ele>275.4</ele>
        <time>2014-03-12T08:53:50Z</time>
      </trkpt>
      <trkpt lat="49.19038" lon="6.82956">
        <ele>275</ele>
        <time>2014-03-12T08:54:00Z</time>
      </trkpt>
      <trkpt lat="49.19045" lon="6.82954">
        <ele>274.3</ele>
        <time>2014-03-12T08:54:05Z</time>
      </trkpt>
      <trkpt lat="49.19052" lon="6.82953">
        <ele>274.8</ele>
        <time>2014-03-12T08:54:10Z</time>
      </trkpt>
      <trkpt lat="49.19059" lon="6.82952">
        <ele>273.9</ele>
        <time>2014-03-12T08:54:15Z</time>
      </trkpt>
      <trkpt lat="49.19066" lon="6.8295">
        <ele>274.2</ele>
        <time>2014-03-12T08:54:20Z</time>
      </trkpt>
      <trkpt lat="49.19072" lon="6.8295">
        <ele>273.6</ele>
        <time>2014-03-12T08:54:25Z</time>
      </trkpt>
      <trkpt lat="49.19077" lon="6.8295">
        <ele>273.5</ele>
        <time>2014-03-12T08:54:30Z</time>
      </trkpt>
      <trkpt lat="49.19082" lon="6.82949">
        <ele>273.1</ele>
        <time>2014-03-12T08:54:35Z</time>
      </trkpt>
      <trkpt lat="49.19087" lon="6.82949">
        <ele>272.6</ele>
        <time>2014-03-12T08:54:40Z</time>
      </trkpt>
      <trkpt lat="49.19092" lon="6.8295">
        <ele>273.5</ele>
        <time>2014-03-12T08:54:45Z</time>
      </trkpt>
      <trkpt lat="49.19098" lon="6.8295">
        <ele>272.3</ele>
        <time>2014-03-12T08:54:50Z</time>
      </trkpt>
      <trkpt lat="49.19104" lon="6.82951">
        <ele>272.6</ele>
        <time>2014-03-12T08:54:55Z</time>
      </trkpt>
      <trkpt lat="49.19116" lon="6.82951">
        <ele>271.6</ele>
        <time>2014-03-12T08:55:05Z</time>
      </trkpt>
      <trkpt lat="49.19123" lon="6.82951">
        <ele>271.2</ele>
        <time>2014-03-12T08:55:10Z</time>
      </trkpt>
      <trkpt lat="49.1913" lon="6.8295">
        <ele>270.7</ele>
        <time>2014-03-12T08:55:15Z</time>
      </trkpt>
      <trkpt lat="49.19135" lon="6.82947">
        <ele>270.9</ele>
        <time>2014-03-12T08:55:20Z</time>
      </trkpt>
      <trkpt lat="49.19141" lon="6.82941">
        <ele>269.7</ele>
        <time>2014-03-12T08:55:25Z</time>
      </trkpt>
      <trkpt lat="49.19146" lon="6.82933">
        <ele>268.7</ele>
        <time>2014-03-12T08:55:30Z</time>
      </trkpt>
      <trkpt lat="49.19146" lon="6.82925">
        <ele>269.3</ele>
        <time>2014-03-12T08:55:35Z</time>
      </trkpt>
      <trkpt lat="49.19146" lon="6.82919">
        <ele>269.2</ele>
        <time>2014-03-12T08:55:40Z</time>
      </trkpt>
      <trkpt lat="49.19148" lon="6.82911">
        <ele>267.6</ele>
        <time>2014-03-12T08:55:45Z</time>
      </trkpt>
      <trkpt lat="49.19148" lon="6.82904">
        <ele>268.6</ele>
        <time>2014-03-12T08:55:50Z</time>
      </trkpt>
      <trkpt lat="49.19146" lon="6.82897">
        <ele>268.5</ele>
        <time>2014-03-12T08:55:55Z</time>
      </trkpt>
      <trkpt lat="49.19142" lon="6.8289">
        <ele>268.7</ele>
        <time>2014-03-12T08:56:00Z</time>
      </trkpt>
      <trkpt lat="49.19134" lon="6.82875">
        <ele>269.5</ele>
        <time>2014-03-12T08:56:10Z</time>
      </trkpt>
      <trkpt lat="49.19129" lon="6.82867">
        <ele>269.7</ele>
        <time>2014-03-12T08:56:15Z</time>
      </trkpt>
      <trkpt lat="49.19124" lon="6.82858">
        <ele>269.8</ele>
        <time>2014-03-12T08:56:20Z</time>
      </trkpt>
      <trkpt lat="49.19119" lon="6.82849">
        <ele>269.7</ele>
        <time>2014-03-12T08:56:25Z</time>
      </trkpt>
      <trkpt lat="49.19115" lon="6.82838">
        <ele>270.8</ele>
        <time>2014-03-12T08:56:30Z</time>
      </trkpt>
      <trkpt lat="49.19111" lon="6.82827">
        <ele>270.5</ele>
        <time>2014-03-12T08:56:35Z</time>
      </trkpt>
      <trkpt lat="49.19109" lon="6.82816">
        <ele>271.1</ele>
        <time>2014-03-12T08:56:40Z</time>
      </trkpt>
      <trkpt lat="49.19109" lon="6.82806">
        <ele>271</ele>
        <time>2014-03-12T08:56:45Z</time>
      </trkpt>
      <trkpt lat="49.19108" lon="6.82796">
        <ele>272</ele>
        <time>2014-03-12T08:56:50Z</time>
      </trkpt>
      <trkpt lat="49.19107" lon="6.82785">
        <ele>271.5</ele>
        <time>2014-03-12T08:56:55Z</time>
      </trkpt>
      <trkpt lat="49.19106" lon="6.82774">
        <ele>270.9</ele>
        <time>2014-03-12T08:57:00Z</time>
      </trkpt>
      <trkpt lat="49.19105" lon="6.82763">
        <ele>271.7</ele>
        <time>2014-03-12T08:57:05Z</time>
      </trkpt>
      <trkpt lat="49.19104" lon="6.82743">
        <ele>272.6</ele>
        <time>2014-03-12T08:57:15Z</time>
      </trkpt>
      <trkpt lat="49.19104" lon="6.82733">
        <ele>272.2</ele>
        <time>2014-03-12T08:57:20Z</time>
      </trkpt>
      <trkpt lat="49.19104" lon="6.82723">
        <ele>272.9</ele>
        <time>2014-03-12T08:57:25Z</time>
      </trkpt>
      <trkpt lat="49.19104" lon="6.82713">
        <ele>274.2</ele>
        <time>2014-03-12T08:57:30Z</time>
      </trkpt>
      <trkpt lat="49.19104" lon="6.82703">
        <ele>273.7</ele>
        <time>2014-03-12T08:57:35Z</time>
      </trkpt>
      <trkpt lat="49.19104" lon="6.82691">
        <ele>274.3</ele>
        <time>2014-03-12T08:57:40Z</time>
      </trkpt>
      <trkpt lat="49.19103" lon="6.82679">
        <ele>275</ele>
        <time>2014-03-12T08:57:45Z</time>
      </trkpt>
      <trkpt lat="49.19103" lon="6.82669">
        <ele>275.2</ele>
        <time>2014-03-12T08:57:50Z</time>
      </trkpt>
      <trkpt lat="49.19102" lon="6.82658">
        <ele>276</ele>
        <time>2014-03-12T08:57:55Z</time>
      </trkpt>
      <trkpt lat="49.19102" lon="6.82647">
        <ele>276.1</ele>
        <time>2014-03-12T08:58:00Z</time>
      </trkpt>
      <trkpt lat="49.19102" lon="6.82636">
        <ele>276.6</ele>
        <time>2014-03-12T08:58:05Z</time>
      </trkpt>
      <trkpt lat="49.19101" lon="6.82625">
        <ele>276.8</ele>
        <time>2014-03-12T08:58:10Z</time>
      </trkpt>
      <trkpt lat="49.19101" lon="6.82604">
        <ele>276.8</ele>
        <time>2014-03-12T08:58:20Z</time>
      </trkpt>
      <trkpt lat="49.19101" lon="6.82593">
        <ele>276.7</ele>
        <time>2014-03-12T08:58:25Z</time>
      </trkpt>
      <trkpt lat="49.19101" lon="6.82583">
        <ele>277.1</ele>
        <time>2014-03-12T08:58:30Z</time>
      </trkpt>
      <trkpt lat="49.19101" lon="6.82573">
        <ele>277.2</ele>
        <time>2014-03-12T08:58:35Z</time>
      </trkpt>
      <trkpt lat="49.19101" lon="6.82563">
        <ele>276.6</ele>
        <time>2014-03-12T08:58:40Z</time>
      </trkpt>
      <trkpt lat="49.19102" lon="6.82553">
        <ele>277.4</ele>
        <time>2014-03-12T08:58:45Z</time>
      </trkpt>
      <trkpt lat="49.19103" lon="6.82544">
        <ele>277.2</ele>
        <time>2014-03-12T08:58:50Z</time>
      </trkpt>
      <trkpt lat="49.19104" lon="6.82534">
        <ele>277.3</ele>
        <time>2014-03-12T08:58:55Z</time>
      </trkpt>
      <trkpt lat="49.19105" lon="6.82523">
        <ele>277.2</ele>
        <time>2014-03-12T08:59:00Z</time>
      </trkpt>
      <trkpt lat="49.19105" lon="6.82512">
        <ele>278.2</ele>
        <time>2014-03-12T08:59:05Z</time>
      </trkpt>
      <trkpt lat="49.19105" lon="6.82501">
        <ele>278.4</ele>
        <time>2014-03-12T08:59:10Z</time>
      </trkpt>
      <trkpt lat="49.19106" lon="6.8249">
        <ele>278.2</ele>
        <time>2014-03-12T08:59:15Z</time>
      </trkpt>
      <trkpt lat="49.19107" lon="6.82469">
        <ele>278</ele>
        <time>2014-03-12T08:59:25Z</time>
      </trkpt>
      <trkpt lat="49.19107" lon="6.82459">
        <ele>279.6</ele>
        <time>2014-03-12T08:59:30Z</time>
      </trkpt>
      <trkpt lat="49.19108" lon="6.82449">
        <ele>278.8</ele>
        <time>2014-03-12T08:59:35Z</time>
      </trkpt>
      <trkpt lat="49.19108" lon="6.82439">
        <ele>279</ele>
        <time>2014-03-12T08:59:40Z</time>
      </trkpt>
      <trkpt lat="49.19107" lon="6.82428">
        <ele>278.9</ele>
        <time>2014-03-12T08:59:45Z</time>
      </trkpt>
      <trkpt lat="49.19107" lon="6.82418">
        <ele>279.5</ele>
        <time>2014-03-12T08:59:50Z</time>
      </trkpt>
      <trkpt lat="49.19108" lon="6.82407">
        <ele>280</ele>
        <time>2014-03-12T08:59:55Z</time>
      </trkpt>
      <trkpt lat="49.19108" lon="6.82396">
        <ele>280.8</ele>
        <time>2014-03-12T09:00:00Z</time>
      </trkpt>
      <trkpt lat="49.19108" lon="6.82386">
        <ele>280.7</ele>
        <time>2014-03-12T09:00:05Z</time>
      </trkpt>
      <trkpt lat="49.19109" lon="6.82377">
        <ele>280.7</ele>
        <time>2014-03-12T09:00:10Z</time>
      </trkpt>
      <trkpt lat="49.19109" lon="6.82367">
        <ele>280.8</ele>
        <time>2014-03-12T09:00:15Z</time>
      </trkpt>
      <trkpt lat="49.19112" lon="6.82359">
        <ele>281.2</ele>
        <time>2014-03-12T09:00:20Z</time>
      </trkpt>
      <trkpt lat="49.19118" lon="6.82353">
        <ele>281.5</ele>
        <time>2014-03-12T09:00:30Z</time>
      </trkpt>
      <trkpt lat="49.19123" lon="6.8235">
        <ele>281.1</ele>
        <time>2014-03-12T09:00:35Z</time>
      </trkpt>
      <trkpt lat="49.19131" lon="6.82348">
        <ele>280.4</ele>
        <time>2014-03-12T09:00:40Z</time>
      </trkpt>
      <trkpt lat="49.19138" lon="6.82345">
        <ele>280.9</ele>
        <time>2014-03-12T09:00:45Z</time>
      </trkpt>
      <trkpt lat="49.19144" lon="6.82342">
        <ele>280.4</ele>
        <time>2014-03-12T09:00:50Z</time>
      </trkpt>
      <trkpt lat="49.19149" lon="6.82338">
        <ele>280.3</ele>
        <time>2014-03-12T09:00:55Z</time>
      </trkpt>
      <trkpt lat="49.19154" lon="6.82334">
        <ele>279.8</ele>
        <time>2014-03-12T09:01:00Z</time>
      </trkpt>
      <trkpt lat="49.19159" lon="6.82331">
        <ele>279.9</ele>
        <time>2014-03-12T09:01:05Z</time>
      </trkpt>
      <trkpt lat="49.19165" lon="6.82326">
        <ele>278.1</ele>
        <time>2014-03-12T09:01:10Z</time>
      </trkpt>
      <trkpt lat="49.19172" lon="6.82322">
        <ele>278.2</ele>
        <time>2014-03-12T09:01:15Z</time>
      </trkpt>
      <trkpt lat="49.19177" lon="6.82318">
        <ele>278.1</ele>
        <time>2014-03-12T09:01:20Z</time>
      </trkpt>
      <trkpt lat="49.19183" lon="6.82314">
        <ele>278.7</ele>
        <time>2014-03-12T09:01:25Z</time>
      </trkpt>
      <trkpt lat="49.19193" lon="6.82305">
        <ele>277.1</ele>
        <time>2014-03-12T09:01:35Z</time>
      </trkpt>
      <trkpt lat="49.19199" lon="6.82301">
        <ele>276.6</ele>
        <time>2014-03-12T09:01:40Z</time>
      </trkpt>
      <trkpt lat="49.19204" lon="6.82297">
        <ele>277.6</ele>
        <time>2014-03-12T09:01:45Z</time>
      </trkpt>
      <trkpt lat="49.19211" lon="6.82293">
        <ele>277.4</ele>
        <time>2014-03-12T09:01:50Z</time>
      </trkpt>
      <trkpt lat="49.19217" lon="6.82289">
        <ele>276.4</ele>
        <time>2014-03-12T09:01:55Z</time>
      </trkpt>
      <trkpt lat="49.19224" lon="6.82285">
        <ele>276.8</ele>
        <time>2014-03-12T09:02:00Z</time>
      </trkpt>
      <trkpt lat="49.19229" lon="6.8228">
        <ele>276.2</ele>
        <time>2014-03-12T09:02:05Z</time>
      </trkpt>
      <trkpt lat="49.19237" lon="6.82275">
        <ele>275.9</ele>
        <time>2014-03-12T09:02:10Z</time>
      </trkpt>
      <trkpt lat="49.19244" lon="6.82269">
        <ele>275.8</ele>
        <time>2014-03-12T09:02:15Z</time>
      </trkpt>
      <trkpt lat="49.1925" lon="6.82264">
        <ele>275.5</ele>
        <time>2014-03-12T09:02:20Z</time>
      </trkpt>
      <trkpt lat="49.19257" lon="6.8226">
        <ele>274.7</ele>
        <time>2014-03-12T09:02:25Z</time>
      </trkpt>
      <trkpt lat="49.19262" lon="6.82253">
        <ele>273.9</ele>
        <time>2014-03-12T09:02:30Z</time>
      </trkpt>
      <trkpt lat="49.19272" lon="6.82238">
        <ele>273.8</ele>
        <time>2014-03-12T09:02:40Z</time>
      </trkpt>
      <trkpt lat="49.19276" lon="6.8223">
        <ele>272.4</ele>
        <time>2014-03-12T09:02:45Z</time>
      </trkpt>
      <trkpt lat="49.1928" lon="6.82221">
        <ele>273</ele>
        <time>2014-03-12T09:02:50Z</time>
      </trkpt>
      <trkpt lat="49.19284" lon="6.82213">
        <ele>273.9</ele>
        <time>2014-03-12T09:02:55Z</time>
      </trkpt>
      <trkpt lat="49.19287" lon="6.82204">
        <ele>273.5</ele>
        <time>2014-03-12T09:03:00Z</time>
      </trkpt>
      <trkpt lat="49.19289" lon="6.82197">
        <ele>271.7</ele>
        <time>2014-03-12T09:03:05Z</time>
      </trkpt>
      <trkpt lat="49.19293" lon="6.82188">
        <ele>272</ele>
        <time>2014-03-12T09:03:10Z</time>
      </trkpt>
      <trkpt lat="49.19296" lon="6.8218">
        <ele>272.3</ele>
        <time>2014-03-12T09:03:15Z</time>
      </trkpt>
      <trkpt lat="49.19298" lon="6.82171">
        <ele>272.3</ele>
        <time>2014-03-12T09:03:20Z</time>
      </trkpt>
      <trkpt lat="49.19299" lon="6.8216">
        <ele>271.6</ele>
        <time>2014-03-12T09:03:25Z</time>
      </trkpt>
      <trkpt lat="49.19299" lon="6.8215">
        <ele>271.4</ele>
        <time>2014-03-12T09:03:30Z</time>
      </trkpt>
      <trkpt lat="49.19299" lon="6.82139">
        <ele>271.6</ele>
        <time>2014-03-12T09:03:35Z</time>
      </trkpt>
      <trkpt lat="49.193" lon="6.82121">
        <ele>269</ele>
        <time>2014-03-12T09:03:45Z</time>
      </trkpt>
      <trkpt lat="49.19303" lon="6.82112">
        <ele>269.2</ele>
        <time>2014-03-12T09:03:50Z</time>
      </trkpt>
      <trkpt lat="49.19309" lon="6.82104">
        <ele>269.9</ele>
        <time>2014-03-12T09:03:55Z</time>
      </trkpt>
      <trkpt lat="49.19312" lon="6.82096">
        <ele>269.9</ele>
        <time>2014-03-12T09:04:00Z</time>
      </trkpt>
      <trkpt lat="49.19314" lon="6.82091">
        <ele>269.5</ele>
        <time>2014-03-12T09:04:05Z</time>
      </trkpt>
      <trkpt lat="49.19319" lon="6.82085">
        <ele>268.9</ele>
        <time>2014-03-12T09:04:10Z</time>
      </trkpt>
      <trkpt lat="49.19324" lon="6.8208">
        <ele>269</ele>
        <time>2014-03-12T09:04:15Z</time>
      </trkpt>
      <trkpt lat="49.19328" lon="6.82076">
        <ele>268.6</ele>
        <time>2014-03-12T09:04:20Z</time>
      </trkpt>
      <trkpt lat="49.19331" lon="6.82071">
        <ele>269.2</ele>
        <time>2014-03-12T09:04:25Z</time>
      </trkpt>
      <trkpt lat="49.19336" lon="6.82065">
        <ele>269.9</ele>
        <time>2014-03-12T09:04:30Z</time>
      </trkpt>
      <trkpt lat="49.1934" lon="6.8206">
        <ele>270.6</ele>
        <time>2014-03-12T09:04:35Z</time>
      </trkpt>
      <trkpt lat="49.19346" lon="6.82056">
        <ele>269.7</ele>
        <time>2014-03-12T09:04:40Z</time>
      </trkpt>
      <trkpt lat="49.19356" lon="6.82052">
        <ele>269.8</ele>
        <time>2014-03-12T09:04:50Z</time>
      </trkpt>
      <trkpt lat="49.19361" lon="6.82054">
        <ele>269.5</ele>
        <time>2014-03-12T09:04:55Z</time>
      </trkpt>
      <trkpt lat="49.19367" lon="6.82057">
        <ele>269.8</ele>
        <time>2014-03-12T09:05:00Z</time>
      </trkpt>
      <trkpt lat="49.19372" lon="6.82061">
        <ele>269.7</ele>
        <time>2014-03-12T09:05:05Z</time>
      </trkpt>
      <trkpt lat="49.19377" lon="6.82067">
        <ele>269.1</ele>
        <time>2014-03-12T09:05:10Z</time>
      </trkpt>
      <trkpt lat="49.19382" lon="6.82074">
        <ele>269.8</ele>
        <time>2014-03-12T09:05:15Z</time>
      </trkpt>
      <trkpt lat="49.19388" lon="6.82082">
        <ele>269.5</ele>
        <time>2014-03-12T09:05:20Z</time>
      </trkpt>
      <trkpt lat="49.19394" lon="6.82092">
        <ele>269.1</ele>
        <time>2014-03-12T09:05:25Z</time>
      </trkpt>
      <trkpt lat="49.194" lon="6.82098">
        <ele>268.9</ele>
        <time>2014-03-12T09:05:30Z</time>
      </trkpt>
      <trkpt lat="49.19404" lon="6.82105">
        <ele>268.8</ele>
        <time>2014-03-12T09:05:35Z</time>
      </trkpt>
      <trkpt lat="49.19408" lon="6.82112">
        <ele>269.7</ele>
        <time>2014-03-12T09:05:40Z</time>
      </trkpt>
      <trkpt lat="49.19411" lon="6.8212">
        <ele>269.8</ele>
        <time>2014-03-12T09:05:45Z</time>
      </trkpt>
      <trkpt lat="49.19419" lon="6.82135">
        <ele>269.3</ele>
        <time>2014-03-12T09:05:55Z</time>
      </trkpt>
      <trkpt lat="49.19422" lon="6.82144">
        <ele>269.8</ele>
        <time>2014-03-12T09:06:00Z</time>
      </trkpt>
      <trkpt lat="49.19426" lon="6.82152">
        <ele>269.3</ele>
        <time>2014-03-12T09:06:05Z</time>
      </trkpt>
      <trkpt lat="49.1943" lon="6.8216">
        <ele>270.2</ele>
        <time>2014-03-12T09:06:10Z</time>
      </trkpt>
      <trkpt lat="49.19434" lon="6.82168">
        <ele>269.8</ele>
        <time>2014-03-12T09:06:15Z</time>
      </trkpt>
      <trkpt lat="49.19437" lon="6.82173">
        <ele>269.2</ele>
        <time>2014-03-12T09:06:20Z</time>
      </trkpt>
      <trkpt lat="49.1944" lon="6.8218">
        <ele>269.6</ele>
        <time>2014-03-12T09:06:25Z</time>
      </trkpt>
      <trkpt lat="49.19442" lon="6.82189">
        <ele>270</ele>
        <time>2014-03-12T09:06:30Z</time>
      </trkpt>
      <trkpt lat="49.19445" lon="6.82198">
        <ele>269.7</ele>
        <time>2014-03-12T09:06:35Z</time>
      </trkpt>
      <trkpt lat="49.19448" lon="6.82206">
        <ele>269.8</ele>
        <time>2014-03-12T09:06:40Z</time>
      </trkpt>
      <trkpt lat="49.19451" lon="6.82215">
        <ele>269.9</ele>
        <time>2014-03-12T09:06:45Z</time>
      </trkpt>
      <trkpt lat="49.19454" lon="6.82222">
        <ele>269.8</ele>
        <time>2014-03-12T09:06:50Z</time>
      </trkpt>
      <trkpt lat="49.19461" lon="6.82238">
        <ele>269.5</ele>
        <time>2014-03-12T09:07:00Z</time>
      </trkpt>
      <trkpt lat="49.19464" lon="6.82246">
        <ele>268.8</ele>
        <time>2014-03-12T09:07:05Z</time>
      </trkpt>
      <trkpt lat="49.19468" lon="6.82253">
        <ele>269.6</ele>
        <time>2014-03-12T09:07:10Z</time>
      </trkpt>
      <trkpt lat="49.19473" lon="6.82261">
        <ele>269.4</ele>
        <time>2014-03-12T09:07:15Z</time>
      </trkpt>
      <trkpt lat="49.19477" lon="6.82269">
        <ele>269.6</ele>
        <time>2014-03-12T09:07:20Z</time>
      </trkpt>
      <trkpt lat="49.1948" lon="6.82277">
        <ele>269.9</ele>
        <time>2014-03-12T09:07:25Z</time>
      </trkpt>
      <trkpt lat="49.19484" lon="6.82284">
        <ele>270</ele>
        <time>2014-03-12T09:07:30Z</time>
      </trkpt>
      <trkpt lat="49.19489" lon="6.82291">
        <ele>270.1</ele>
        <time>2014-03-12T09:07:35Z</time>
      </trkpt>
      <trkpt lat="49.19492" lon="6.82298">
        <ele>270.2</ele>
        <time>2014-03-12T09:07:40Z</time>
      </trkpt>
      <trkpt lat="49.19496" lon="6.82306">
        <ele>269.9</ele>
        <time>2014-03-12T09:07:45Z</time>
      </trkpt>
      <trkpt lat="49.19499" lon="6.8231">
        <ele>270.7</ele>
        <time>2014-03-12T09:07:50Z</time>
      </trkpt>
      <trkpt lat="49.19504" lon="6.82317">
        <ele>270</ele>
        <time>2014-03-12T09:07:55Z</time>
      </trkpt>
      <trkpt lat="49.19515" lon="6.82334">
        <ele>270.4</ele>
        <time>2014-03-12T09:08:05Z</time>
      </trkpt>
      <trkpt lat="49.19521" lon="6.82342">
        <ele>269</ele>
        <time>2014-03-12T09:08:10Z</time>
      </trkpt>
      <trkpt lat="49.19527" lon="6.8235">
        <ele>269.1</ele>
        <time>2014-03-12T09:08:15Z</time>
      </trkpt>
      <trkpt lat="49.19532" lon="6.82356">
        <ele>270.1</ele>
        <time>2014-03-12T09:08:20Z</time>
      </trkpt>
      <trkpt lat="49.19538" lon="6.82362">
        <ele>270.5</ele>
        <time>2014-03-12T09:08:25Z</time>
      </trkpt>
      <trkpt lat="49.19544" lon="6.82368">
        <ele>269.8</ele>
        <time>2014-03-12T09:08:30Z</time>
      </trkpt>
      <trkpt lat="49.1955" lon="6.82375">
        <ele>270.7</ele>
        <time>2014-03-12T09:08:35Z</time>
      </trkpt>
      <trkpt lat="49.19556" lon="6.8238">
        <ele>270.3</ele>
        <time>2014-03-12T09:08:40Z</time>
      </trkpt>
      <trkpt lat="49.19562" lon="6.82385">
        <ele>270.5</ele>
        <time>2014-03-12T09:08:45Z</time>
      </trkpt>
      <trkpt lat="49.19567" lon="6.82391">
        <ele>270.1</ele>
        <time>2014-03-12T09:08:50Z</time>
      </trkpt>
      <trkpt lat="49.19573" lon="6.82398">
        <ele>269.7</ele>
        <time>2014-03-12T09:08:55Z</time>
      </trkpt>
      <trkpt lat="49.19578" lon="6.82403">
        <ele>270.4</ele>
        <time>2014-03-12T09:09:00Z</time>
      </trkpt>
      <trkpt lat="49.19589" lon="6.82415">
        <ele>270.9</ele>
        <time>2014-03-12T09:09:10Z</time>
      </trkpt>
      <trkpt lat="49.19595" lon="6.82422">
        <ele>270.2</ele>
        <time>2014-03-12T09:09:15Z</time>
      </trkpt>
      <trkpt lat="49.19601" lon="6.8243">
        <ele>270.5</ele>
        <time>2014-03-12T09:09:20Z</time>
      </trkpt>
      <trkpt lat="49.19608" lon="6.82437">
        <ele>269.9</ele>
        <time>2014-03-12T09:09:25Z</time>
      </trkpt>
      <trkpt lat="49.19613" lon="6.82443">
        <ele>269.7</ele>
        <time>2014-03-12T09:09:30Z</time>
      </trkpt>
      <trkpt lat="49.19619" lon="6.82448">
        <ele>269.6</ele>
        <time>2014-03-12T09:09:35Z</time>
      </trkpt>
      <trkpt lat="49.19624" lon="6.82454">
        <ele>270.1</ele>
        <time>2014-03-12T09:09:40Z</time>
      </trkpt>
      <trkpt lat="49.19629" lon="6.82459">
        <ele>270.8</ele>
        <time>2014-03-12T09:09:45Z</time>
      </trkpt>
      <trkpt lat="49.19634" lon="6.82465">
        <ele>270.6</ele>
        <time>2014-03-12T09:09:50Z</time>
      </trkpt>
      <trkpt lat="49.1964" lon="6.82471">
        <ele>270.3</ele>
        <time>2014-03-12T09:09:55Z</time>
      </trkpt>
      <trkpt lat="49.19646" lon="6.82477">
        <ele>270.7</ele>
        <time>2014-03-12T09:10:00Z</time>
      </trkpt>
      <trkpt lat="49.19652" lon="6.82482">
        <ele>269.8</ele>
        <time>2014-03-12T09:10:05Z</time>
      </trkpt>
      <trkpt lat="49.19663" lon="6.82496">
        <ele>269.4</ele>
        <time>2014-03-12T09:10:15Z</time>
      </trkpt>
      <trkpt lat="49.19669" lon="6.82503">
        <ele>270.5</ele>
        <time>2014-03-12T09:10:20Z</time>
      </trkpt>
      <trkpt lat="49.19673" lon="6.82509">
        <ele>270.6</ele>
        <time>2014-03-12T09:10:25Z</time>
      </trkpt>
      <trkpt lat="49.19679" lon="6.82513">
        <ele>270.4</ele>
        <time>2014-03-12T09:10:30Z</time>
      </trkpt>
      <trkpt lat="49.19684" lon="6.82518">
        <ele>269.6</ele>
        <time>2014-03-12T09:10:35Z</time>
      </trkpt>
      <trkpt lat="49.1969" lon="6.82522">
        <ele>269.3</ele>
        <time>2014-03-12T09:10:40Z</time>
      </trkpt>
      <trkpt lat="49.19695" lon="6.82526">
        <ele>270</ele>
        <time>2014-03-12T09:10:45Z</time>
      </trkpt>
      <trkpt lat="49.19699" lon="6.82529">
        <ele>270</ele>
        <time>2014-03-12T09:10:50Z</time>
      </trkpt>
      <trkpt lat="49.19705" lon="6.82533">
        <ele>270.5</ele>
        <time>2014-03-12T09:10:55Z</time>
      </trkpt>
      <trkpt lat="49.19709" lon="6.82533">
        <ele>270</ele>
        <time>2014-03-12T09:11:00Z</time>
      </trkpt>
      <trkpt lat="49.19718" lon="6.8253">
        <ele>270</ele>
        <time>2014-03-12T09:11:05Z</time>
      </trkpt>
      <trkpt lat="49.19724" lon="6.82529">
        <ele>270.1</ele>
        <time>2014-03-12T09:11:10Z</time>
      </trkpt>
      <trkpt lat="49.19732" lon="6.82526">
        <ele>270.7</ele>
        <time>2014-03-12T09:11:20Z</time>
      </trkpt>
      <trkpt lat="49.19736" lon="6.82524">
        <ele>270.9</ele>
        <time>2014-03-12T09:11:25Z</time>
      </trkpt>
      <trkpt lat="49.1974" lon="6.82523">
        <ele>270.8</ele>
        <time>2014-03-12T09:11:30Z</time>
      </trkpt>
      <trkpt lat="49.19742" lon="6.82522">
        <ele>270.8</ele>
        <time>2014-03-12T09:11:35Z</time>
      </trkpt>
      <trkpt lat="49.19742" lon="6.82523">
        <ele>269.8</ele>
        <time>2014-03-12T09:11:40Z</time>
      </trkpt>
      <trkpt lat="49.19743" lon="6.82523">
        <ele>270.5</ele>
        <time>2014-03-12T09:11:45Z</time>
      </trkpt>
      <trkpt lat="49.19745" lon="6.8252">
        <ele>270.5</ele>
        <time>2014-03-12T09:11:50Z</time>
      </trkpt>
      <trkpt lat="49.19748" lon="6.82515">
        <ele>270.3</ele>
        <time>2014-03-12T09:11:55Z</time>
      </trkpt>
      <trkpt lat="49.1975" lon="6.82509">
        <ele>270</ele>
        <time>2014-03-12T09:12:00Z</time>
      </trkpt>
      <trkpt lat="49.19752" lon="6.82505">
        <ele>269.9</ele>
        <time>2014-03-12T09:12:05Z</time>
      </trkpt>
      <trkpt lat="49.19753" lon="6.82505">
        <ele>269.5</ele>
        <time>2014-03-12T09:12:10Z</time>
      </trkpt>
      <trkpt lat="49.19754" lon="6.82504">
        <ele>269.3</ele>
        <time>2014-03-12T09:12:15Z</time>
      </trkpt>
      <trkpt lat="49.19754" lon="6.82505">
        <ele>269.8</ele>
        <time>2014-03-12T09:12:25Z</time>
      </trkpt>
      <trkpt lat="49.19753" lon="6.82504">
        <ele>270</ele>
        <time>2014-03-12T09:12:30Z</time>
      </trkpt>
      <trkpt lat="49.19756" lon="6.82497">
        <ele>269.9</ele>
        <time>2014-03-12T09:12:35Z</time>
      </trkpt>
      <trkpt lat="49.19759" lon="6.82491">
        <ele>270.4</ele>
        <time>2014-03-12T09:12:40Z</time>
      </trkpt>
      <trkpt lat="49.19762" lon="6.82484">
        <ele>269.4</ele>
        <time>2014-03-12T09:12:45Z</time>
      </trkpt>
      <trkpt lat="49.19764" lon="6.82477">
        <ele>268.5</ele>
        <time>2014-03-12T09:12:50Z</time>
      </trkpt>
      <trkpt lat="49.19767" lon="6.8247">
        <ele>267.5</ele>
        <time>2014-03-12T09:12:55Z</time>
      </trkpt>
      <trkpt lat="49.19769" lon="6.82464">
        <ele>268.2</ele>
        <time>2014-03-12T09:13:00Z</time>
      </trkpt>
      <trkpt lat="49.19772" lon="6.82458">
        <ele>267.7</ele>
        <time>2014-03-12T09:13:05Z</time>
      </trkpt>
      <trkpt lat="49.19775" lon="6.82451">
        <ele>267.4</ele>
        <time>2014-03-12T09:13:10Z</time>
      </trkpt>
      <trkpt lat="49.19778" lon="6.82443">
        <ele>266.5</ele>
        <time>2014-03-12T09:13:15Z</time>
      </trkpt>
      <trkpt lat="49.19781" lon="6.82436">
        <ele>265.6</ele>
        <time>2014-03-12T09:13:20Z</time>
      </trkpt>
      <trkpt lat="49.19788" lon="6.82419">
        <ele>265.6</ele>
        <time>2014-03-12T09:13:30Z</time>
      </trkpt>
      <trkpt lat="49.19793" lon="6.8241">
        <ele>265.1</ele>
        <time>2014-03-12T09:13:35Z</time>
      </trkpt>
      <trkpt lat="49.19797" lon="6.82401">
        <ele>264.9</ele>
        <time>2014-03-12T09:13:40Z</time>
      </trkpt>
      <trkpt lat="49.19802" lon="6.82392">
        <ele>264.1</ele>
        <time>2014-03-12T09:13:45Z</time>
      </trkpt>
      <trkpt lat="49.19806" lon="6.82385">
        <ele>263.5</ele>
        <time>2014-03-12T09:13:50Z</time>
      </trkpt>
      <trkpt lat="49.1981" lon="6.82377">
        <ele>263.3</ele>
        <time>2014-03-12T09:13:55Z</time>
      </trkpt>
      <trkpt lat="49.19813" lon="6.82371">
        <ele>263</ele>
        <time>2014-03-12T09:14:00Z</time>
      </trkpt>
      <trkpt lat="49.19817" lon="6.82363">
        <ele>262.3</ele>
        <time>2014-03-12T09:14:05Z</time>
      </trkpt>
      <trkpt lat="49.1982" lon="6.82356">
        <ele>261</ele>
        <time>2014-03-12T09:14:10Z</time>
      </trkpt>
      <trkpt lat="49.19823" lon="6.82348">
        <ele>261.2</ele>
        <time>2014-03-12T09:14:15Z</time>
      </trkpt>
      <trkpt lat="49.19826" lon="6.82341">
        <ele>261.2</ele>
        <time>2014-03-12T09:14:20Z</time>
      </trkpt>
      <trkpt lat="49.1983" lon="6.82334">
        <ele>260.6</ele>
        <time>2014-03-12T09:14:25Z</time>
      </trkpt>
      <trkpt lat="49.19835" lon="6.82321">
        <ele>260.2</ele>
        <time>2014-03-12T09:14:35Z</time>
      </trkpt>
      <trkpt lat="49.19836" lon="6.82319">
        <ele>259</ele>
        <time>2014-03-12T09:14:40Z</time>
      </trkpt>
      <trkpt lat="49.1984" lon="6.82315">
        <ele>258.8</ele>
        <time>2014-03-12T09:14:45Z</time>
      </trkpt>
      <trkpt lat="49.19843" lon="6.8231">
        <ele>258.1</ele>
        <time>2014-03-12T09:14:50Z</time>
      </trkpt>
      <trkpt lat="49.19846" lon="6.82305">
        <ele>257.4</ele>
        <time>2014-03-12T09:14:55Z</time>
      </trkpt>
      <trkpt lat="49.1985" lon="6.823">
        <ele>257.7</ele>
        <time>2014-03-12T09:15:00Z</time>
      </trkpt>
      <trkpt lat="49.19856" lon="6.82295">
        <ele>256.6</ele>
        <time>2014-03-12T09:15:05Z</time>
      </trkpt>
      <trkpt lat="49.19861" lon="6.82292">
        <ele>256.8</ele>
        <time>2014-03-12T09:15:10Z</time>
      </trkpt>
      <trkpt lat="49.19867" lon="6.82288">
        <ele>256.6</ele>
        <time>2014-03-12T09:15:15Z</time>
      </trkpt>
      <trkpt lat="49.19871" lon="6.82286">
        <ele>256.8</ele>
        <time>2014-03-12T09:15:20Z</time>
      </trkpt>
      <trkpt lat="49.19877" lon="6.82285">
        <ele>255.8</ele>
        <time>2014-03-12T09:15:25Z</time>
      </trkpt>
      <trkpt lat="49.19882" lon="6.82286">
        <ele>254.2</ele>
        <time>2014-03-12T09:15:30Z</time>
      </trkpt>
      <trkpt lat="49.1989" lon="6.82287">
        <ele>253.6</ele>
        <time>2014-03-12T09:15:40Z</time>
      </trkpt>
      <trkpt lat="49.19896" lon="6.82289">
        <ele>252.4</ele>
        <time>2014-03-12T09:15:45Z</time>
      </trkpt>
      <trkpt lat="49.19901" lon="6.82289">
        <ele>253.3</ele>
        <time>2014-03-12T09:15:50Z</time>
      </trkpt>
      <trkpt lat="49.19906" lon="6.82289">
        <ele>251.4</ele>
        <time>2014-03-12T09:15:55Z</time>
      </trkpt>
      <trkpt lat="49.19911" lon="6.82289">
        <ele>251.2</ele>
        <time>2014-03-12T09:16:00Z</time>
      </trkpt>
      <trkpt lat="49.19917" lon="6.82288">
        <ele>251.1</ele>
        <time>2014-03-12T09:16:05Z</time>
      </trkpt>
      <trkpt lat="49.19923" lon="6.82286">
        <ele>251</ele>
        <time>2014-03-12T09:16:10Z</time>
      </trkpt>
      <trkpt lat="49.19929" lon="6.82282">
        <ele>250.4</ele>
        <time>2014-03-12T09:16:15Z</time>
      </trkpt>
      <trkpt lat="49.19934" lon="6.82279">
        <ele>249.9</ele>
        <time>2014-03-12T09:16:20Z</time>
      </trkpt>
      <trkpt lat="49.19941" lon="6.82276">
        <ele>249.2</ele>
        <time>2014-03-12T09:16:25Z</time>
      </trkpt>
      <trkpt lat="49.19945" lon="6.82271">
        <ele>248.2</ele>
        <time>2014-03-12T09:16:30Z</time>
      </trkpt>
      <trkpt lat="49.1995" lon="6.82265">
        <ele>247.2</ele>
        <time>2014-03-12T09:16:35Z</time>
      </trkpt>
      <trkpt lat="49.19957" lon="6.82247">
        <ele>246.9</ele>
        <time>2014-03-12T09:16:45Z</time>
      </trkpt>
      <trkpt lat="49.19959" lon="6.82238">
        <ele>246.3</ele>
        <time>2014-03-12T09:16:50Z</time>
      </trkpt>
      <trkpt lat="49.1996" lon="6.82229">
        <ele>246.4</ele>
        <time>2014-03-12T09:16:55Z</time>
      </trkpt>
      <trkpt lat="49.19961" lon="6.8222">
        <ele>246</ele>
        <time>2014-03-12T09:17:00Z</time>
      </trkpt>
      <trkpt lat="49.19961" lon="6.82211">
        <ele>245.4</ele>
        <time>2014-03-12T09:17:05Z</time>
      </trkpt>
      <trkpt lat="49.19961" lon="6.82203">
        <ele>246</ele>
        <time>2014-03-12T09:17:10Z</time>
      </trkpt>
      <trkpt lat="49.19961" lon="6.82195">
        <ele>245.9</ele>
        <time>2014-03-12T09:17:15Z</time>
      </trkpt>
      <trkpt lat="49.19961" lon="6.82186">
        <ele>245.7</ele>
        <time>2014-03-12T09:17:20Z</time>
      </trkpt>
      <trkpt lat="49.19963" lon="6.82176">
        <ele>245.8</ele>
        <time>2014-03-12T09:17:25Z</time>
      </trkpt>
      <trkpt lat="49.19967" lon="6.82169">
        <ele>245.6</ele>
        <time>2014-03-12T09:17:30Z</time>
      </trkpt>
      <trkpt lat="49.19969" lon="6.82168">
        <ele>244.9</ele>
        <time>2014-03-12T09:17:35Z</time>
      </trkpt>
      <trkpt lat="49.19973" lon="6.82169">
        <ele>245.3</ele>
        <time>2014-03-12T09:17:40Z</time>
      </trkpt>
      <trkpt lat="49.19979" lon="6.82177">
        <ele>244.9</ele>
        <time>2014-03-12T09:17:50Z</time>
      </trkpt>
      <trkpt lat="49.19981" lon="6.82182">
        <ele>245.3</ele>
        <time>2014-03-12T09:17:55Z</time>
      </trkpt>
      <trkpt lat="49.19982" lon="6.82189">
        <ele>245.2</ele>
        <time>2014-03-12T09:18:00Z</time>
      </trkpt>
      <trkpt lat="49.19983" lon="6.82198">
        <ele>244.5</ele>
        <time>2014-03-12T09:18:05Z</time>
      </trkpt>
      <trkpt lat="49.19984" lon="6.82206">
        <ele>244.6</ele>
        <time>2014-03-12T09:18:10Z</time>
      </trkpt>
      <trkpt lat="49.19987" lon="6.82214">
        <ele>245</ele>
        <time>2014-03-12T09:18:15Z</time>
      </trkpt>
      <trkpt lat="49.19989" lon="6.82222">
        <ele>244.2</ele>
        <time>2014-03-12T09:18:20Z</time>
      </trkpt>
      <trkpt lat="49.19992" lon="6.8223">
        <ele>244</ele>
        <time>2014-03-12T09:18:25Z</time>
      </trkpt>
      <trkpt lat="49.19994" lon="6.82239">
        <ele>243.6</ele>
        <time>2014-03-12T09:18:30Z</time>
      </trkpt>
      <trkpt lat="49.19998" lon="6.82248">
        <ele>243.1</ele>
        <time>2014-03-12T09:18:35Z</time>
      </trkpt>
      <trkpt lat="49.20001" lon="6.82256">
        <ele>242.6</ele>
        <time>2014-03-12T09:18:40Z</time>
      </trkpt>
      <trkpt lat="49.20004" lon="6.82266">
        <ele>242.6</ele>
        <time>2014-03-12T09:18:45Z</time>
      </trkpt>
      <trkpt lat="49.20007" lon="6.82285">
        <ele>242.9</ele>
        <time>2014-03-12T09:18:55Z</time>
      </trkpt>
      <trkpt lat="49.20009" lon="6.82294">
        <ele>242</ele>
        <time>2014-03-12T09:19:00Z</time>
      </trkpt>
      <trkpt lat="49.2001" lon="6.82302">
        <ele>243</ele>
        <time>2014-03-12T09:19:05Z</time>
      </trkpt>
      <trkpt lat="49.20012" lon="6.82312">
        <ele>241.8</ele>
        <time>2014-03-12T09:19:10Z</time>
      </trkpt>
      <trkpt lat="49.20014" lon="6.8232">
        <ele>241.8</ele>
        <time>2014-03-12T09:19:15Z</time>
      </trkpt>
      <trkpt lat="49.20017" lon="6.82329">
        <ele>242.5</ele>
        <time>2014-03-12T09:19:20Z</time>
      </trkpt>
      <trkpt lat="49.20019" lon="6.82338">
        <ele>240.9</ele>
        <time>2014-03-12T09:19:25Z</time>
      </trkpt>
      <trkpt lat="49.2002" lon="6.82347">
        <ele>241.1</ele>
        <time>2014-03-12T09:19:30Z</time>
      </trkpt>
      <trkpt lat="49.20022" lon="6.82357">
        <ele>240.7</ele>
        <time>2014-03-12T09:19:35Z</time>
      </trkpt>
      <trkpt lat="49.20023" lon="6.82366">
        <ele>240.4</ele>
        <time>2014-03-12T09:19:40Z</time>
      </trkpt>
      <trkpt lat="49.20023" lon="6.82376">
        <ele>240.5</ele>
        <time>2014-03-12T09:19:45Z</time>
      </trkpt>
      <trkpt lat="49.20025" lon="6.82385">
        <ele>240.1</ele>
        <time>2014-03-12T09:19:50Z</time>
      </trkpt>
      <trkpt lat="49.20029" lon="6.82405">
        <ele>239.6</ele>
        <time>2014-03-12T09:20:00Z</time>
      </trkpt>
      <trkpt lat="49.2003" lon="6.82414">
        <ele>239.5</ele>
        <time>2014-03-12T09:20:05Z</time>
      </trkpt>
      <trkpt lat="49.20031" lon="6.82423">
        <ele>239.1</ele>
        <time>2014-03-12T09:20:10Z</time>
      </trkpt>
      <trkpt lat="49.20033" lon="6.82431">
        <ele>238.9</ele>
        <time>2014-03-12T09:20:15Z</time>
      </trkpt>
      <trkpt lat="49.20036" lon="6.82442">
        <ele>238.6</ele>
        <time>2014-03-12T09:20:20Z</time>
      </trkpt>
      <trkpt lat="49.20039" lon="6.82451">
        <ele>238</ele>
        <time>2014-03-12T09:20:25Z</time>
      </trkpt>
      <trkpt lat="49.20041" lon="6.82461">
        <ele>237.2</ele>
        <time>2014-03-12T09:20:30Z</time>
      </trkpt>
      <trkpt lat="49.20044" lon="6.82471">
        <ele>237.7</ele>
        <time>2014-03-12T09:20:35Z</time>
      </trkpt>
      <trkpt lat="49.20046" lon="6.8248">
        <ele>237.6</ele>
        <time>2014-03-12T09:20:40Z</time>
      </trkpt>
      <trkpt lat="49.20048" lon="6.8249">
        <ele>236.7</ele>
        <time>2014-03-12T09:20:45Z</time>
      </trkpt>
      <trkpt lat="49.2005" lon="6.82501">
        <ele>236.1</ele>
        <time>2014-03-12T09:20:50Z</time>
      </trkpt>
      <trkpt lat="49.20053" lon="6.82511">
        <ele>235.9</ele>
        <time>2014-03-12T09:20:55Z</time>
      </trkpt>
      <trkpt lat="49.20056" lon="6.82529">
        <ele>235.1</ele>
        <time>2014-03-12T09:21:05Z</time>
      </trkpt>
      <trkpt lat="49.20057" lon="6.82538">
        <ele>234.9</ele>
        <time>2014-03-12T09:21:10Z</time>
      </trkpt>
      <trkpt lat="49.20061" lon="6.82546">
        <ele>235.6</ele>
        <time>2014-03-12T09:21:15Z</time>
      </trkpt>
      <trkpt lat="49.20063" lon="6.82555">
        <ele>234.5</ele>
        <time>2014-03-12T09:21:20Z</time>
      </trkpt>
      <trkpt lat="49.20065" lon="6.82563">
        <ele>235.8</ele>
        <time>2014-03-12T09:21:25Z</time>
      </trkpt>
      <trkpt lat="49.20068" lon="6.82571">
        <ele>235.1</ele>
        <time>2014-03-12T09:21:30Z</time>
      </trkpt>
      <trkpt lat="49.2007" lon="6.82579">
        <ele>235.2</ele>
        <time>2014-03-12T09:21:35Z</time>
      </trkpt>
      <trkpt lat="49.20073" lon="6.82587">
        <ele>234.7</ele>
        <time>2014-03-12T09:21:40Z</time>
      </trkpt>
      <trkpt lat="49.20076" lon="6.82597">
        <ele>234.9</ele>
        <time>2014-03-12T09:21:45Z</time>
      </trkpt>
      <trkpt lat="49.2008" lon="6.82605">
        <ele>235.7</ele>
        <time>2014-03-12T09:21:50Z</time>
      </trkpt>
      <trkpt lat="49.20081" lon="6.82614">
        <ele>235.4</ele>
        <time>2014-03-12T09:21:55Z</time>
      </trkpt>
      <trkpt lat="49.20084" lon="6.82624">
        <ele>235.5</ele>
        <time>2014-03-12T09:22:00Z</time>
      </trkpt>
      <trkpt lat="49.20091" lon="6.82643">
        <ele>235.8</ele>
        <time>2014-03-12T09:22:10Z</time>
      </trkpt>
      <trkpt lat="49.20095" lon="6.82652">
        <ele>235.6</ele>
        <time>2014-03-12T09:22:15Z</time>
      </trkpt>
      <trkpt lat="49.20098" lon="6.8266">
        <ele>236.5</ele>
        <time>2014-03-12T09:22:20Z</time>
      </trkpt>
      <trkpt lat="49.20102" lon="6.82668">
        <ele>236.9</ele>
        <time>2014-03-12T09:22:25Z</time>
      </trkpt>
      <trkpt lat="49.20106" lon="6.82677">
        <ele>236.9</ele>
        <time>2014-03-12T09:22:30Z</time>
      </trkpt>
      <trkpt lat="49.2011" lon="6.82686">
        <ele>237</ele>
        <time>2014-03-12T09:22:35Z</time>
      </trkpt>
      <trkpt lat="49.20114" lon="6.82695">
        <ele>237.1</ele>
        <time>2014-03-12T09:22:40Z</time>
      </trkpt>
      <trkpt lat="49.20116" lon="6.82702">
        <ele>236.4</ele>
        <time>2014-03-12T09:22:45Z</time>
      </trkpt>
      <trkpt lat="49.20119" lon="6.8271">
        <ele>236.4</ele>
        <time>2014-03-12T09:22:50Z</time>
      </trkpt>
      <trkpt lat="49.20122" lon="6.8272">
        <ele>236.3</ele>
        <time>2014-03-12T09:22:55Z</time>
      </trkpt>
      <trkpt lat="49.20125" lon="6.82727">
        <ele>237.1</ele>
        <time>2014-03-12T09:23:00Z</time>
      </trkpt>
      <trkpt lat="49.20128" lon="6.82735">
        <ele>237.1</ele>
        <time>2014-03-12T09:23:05Z</time>
      </trkpt>
      <trkpt lat="49.20135" lon="6.82752">
        <ele>237.3</ele>
        <time>2014-03-12T09:23:15Z</time>
      </trkpt>
      <trkpt lat="49.20139" lon="6.8276">
        <ele>236.6</ele>
        <time>2014-03-12T09:23:20Z</time>
      </trkpt>
      <trkpt lat="49.20142" lon="6.82769">
        <ele>236.4</ele>
        <time>2014-03-12T09:23:25Z</time>
      </trkpt>
      <trkpt lat="49.20146" lon="6.82778">
        <ele>236.3</ele>
        <time>2014-03-12T09:23:30Z</time>
      </trkpt>
      <trkpt lat="49.2015" lon="6.82787">
        <ele>235.7</ele>
        <time>2014-03-12T09:23:35Z</time>
      </trkpt>
      <trkpt lat="49.20153" lon="6.82795">
        <ele>235</ele>
        <time>2014-03-12T09:23:40Z</time>
      </trkpt>
      <trkpt lat="49.20155" lon="6.82803">
        <ele>236</ele>
        <time>2014-03-12T09:23:45Z</time>
      </trkpt>
      <trkpt lat="49.20157" lon="6.82812">
        <ele>235.8</ele>
        <time>2014-03-12T09:23:50Z</time>
      </trkpt>
      <trkpt lat="49.2016" lon="6.8282">
        <ele>236.1</ele>
        <time>2014-03-12T09:23:55Z</time>
      </trkpt>
      <trkpt lat="49.20164" lon="6.82827">
        <ele>235.2</ele>
        <time>2014-03-12T09:24:00Z</time>
      </trkpt>
      <trkpt lat="49.20168" lon="6.82836">
        <ele>235.2</ele>
        <time>2014-03-12T09:24:05Z</time>
      </trkpt>
      <trkpt lat="49.20172" lon="6.82845">
        <ele>236.1</ele>
        <time>2014-03-12T09:24:10Z</time>
      </trkpt>
      <trkpt lat="49.20179" lon="6.82862">
        <ele>235.9</ele>
        <time>2014-03-12T09:24:20Z</time>
      </trkpt>
      <trkpt lat="49.20182" lon="6.82871">
        <ele>236.6</ele>
        <time>2014-03-12T09:24:25Z</time>
      </trkpt>
      <trkpt lat="49.20184" lon="6.82879">
        <ele>236.1</ele>
        <time>2014-03-12T09:24:30Z</time>
      </trkpt>
      <trkpt lat="49.20188" lon="6.82888">
        <ele>236.2</ele>
        <time>2014-03-12T09:24:35Z</time>
      </trkpt>
      <trkpt lat="49.20191" lon="6.82897">
        <ele>236.1</ele>
        <time>2014-03-12T09:24:40Z</time>
      </trkpt>
      <trkpt lat="49.20194" lon="6.82906">
        <ele>235.6</ele>
        <time>2014-03-12T09:24:45Z</time>
      </trkpt>
      <trkpt lat="49.20196" lon="6.82915">
        <ele>235.5</ele>
        <time>2014-03-12T09:24:50Z</time>
      </trkpt>
      <trkpt lat="49.20198" lon="6.82924">
        <ele>235.4</ele>
        <time>2014-03-12T09:24:55Z</time>
      </trkpt>
      <trkpt lat="49.20201" lon="6.82933">
        <ele>235.2</ele>
        <time>2014-03-12T09:25:00Z</time>
      </trkpt>
      <trkpt lat="49.20203" lon="6.82942">
        <ele>235.2</ele>
        <time>2014-03-12T09:25:05Z</time>
      </trkpt>
      <trkpt lat="49.20206" lon="6.8295">
        <ele>235.8</ele>
        <time>2014-03-12T09:25:10Z</time>
      </trkpt>
      <trkpt lat="49.20209" lon="6.82957">
        <ele>235.4</ele>
        <time>2014-03-12T09:25:15Z</time>
      </trkpt>
      <trkpt lat="49.2022" lon="6.82969">
        <ele>235.3</ele>
        <time>2014-03-12T09:25:25Z</time>
      </trkpt>
      <trkpt lat="49.20225" lon="6.82973">
        <ele>235.6</ele>
        <time>2014-03-12T09:25:30Z</time>
      </trkpt>
      <trkpt lat="49.20231" lon="6.82976">
        <ele>236.5</ele>
        <time>2014-03-12T09:25:35Z</time>
      </trkpt>
      <trkpt lat="49.20236" lon="6.82976">
        <ele>236.3</ele>
        <time>2014-03-12T09:25:40Z</time>
      </trkpt>
      <trkpt lat="49.20241" lon="6.82974">
        <ele>235.7</ele>
        <time>2014-03-12T09:25:45Z</time>
      </trkpt>
      <trkpt lat="49.20247" lon="6.82972">
        <ele>235.8</ele>
        <time>2014-03-12T09:25:50Z</time>
      </trkpt>
      <trkpt lat="49.20253" lon="6.82969">
        <ele>235.4</ele>
        <time>2014-03-12T09:25:55Z</time>
      </trkpt>
      <trkpt lat="49.2026" lon="6.82966">
        <ele>234.6</ele>
        <time>2014-03-12T09:26:00Z</time>
      </trkpt>
      <trkpt lat="49.20265" lon="6.82964">
        <ele>234.9</ele>
        <time>2014-03-12T09:26:05Z</time>
      </trkpt>
      <trkpt lat="49.20272" lon="6.82962">
        <ele>234.8</ele>
        <time>2014-03-12T09:26:10Z</time>
      </trkpt>
      <trkpt lat="49.20278" lon="6.82958">
        <ele>235</ele>
        <time>2014-03-12T09:26:15Z</time>
      </trkpt>
      <trkpt lat="49.20284" lon="6.82954">
        <ele>235.6</ele>
        <time>2014-03-12T09:26:20Z</time>
      </trkpt>
      <trkpt lat="49.20297" lon="6.82945">
        <ele>235</ele>
        <time>2014-03-12T09:26:30Z</time>
      </trkpt>
      <trkpt lat="49.20304" lon="6.82941">
        <ele>234.6</ele>
        <time>2014-03-12T09:26:35Z</time>
      </trkpt>
      <trkpt lat="49.2031" lon="6.82935">
        <ele>234.7</ele>
        <time>2014-03-12T09:26:40Z</time>
      </trkpt>
      <trkpt lat="49.20315" lon="6.82931">
        <ele>234.8</ele>
        <time>2014-03-12T09:26:45Z</time>
      </trkpt>
      <trkpt lat="49.20321" lon="6.82925">
        <ele>234.1</ele>
        <time>2014-03-12T09:26:50Z</time>
      </trkpt>
      <trkpt lat="49.20327" lon="6.82918">
        <ele>233</ele>
        <time>2014-03-12T09:26:55Z</time>
      </trkpt>
      <trkpt lat="49.20333" lon="6.8291">
        <ele>232.6</ele>
        <time>2014-03-12T09:27:00Z</time>
      </trkpt>
      <trkpt lat="49.20338" lon="6.82903">
        <ele>232.1</ele>
        <time>2014-03-12T09:27:05Z</time>
      </trkpt>
      <trkpt lat="49.20343" lon="6.82898">
        <ele>233.4</ele>
        <time>2014-03-12T09:27:10Z</time>
      </trkpt>
      <trkpt lat="49.20346" lon="6.8289">
        <ele>232.3</ele>
        <time>2014-03-12T09:27:15Z</time>
      </trkpt>
      <trkpt lat="49.20349" lon="6.82881">
        <ele>231.8</ele>
        <time>2014-03-12T09:27:20Z</time>
      </trkpt>
      <trkpt lat="49.20352" lon="6.82871">
        <ele>232.2</ele>
        <time>2014-03-12T09:27:25Z</time>
      </trkpt>
      <trkpt lat="49.20358" lon="6.82852">
        <ele>233</ele>
        <time>2014-03-12T09:27:35Z</time>
      </trkpt>
      <trkpt lat="49.20361" lon="6.82843">
        <ele>234</ele>
        <time>2014-03-12T09:27:40Z</time>
      </trkpt>
      <trkpt lat="49.20362" lon="6.82834">
        <ele>235.3</ele>
        <time>2014-03-12T09:27:45Z</time>
      </trkpt>
      <trkpt lat="49.20364" lon="6.82825">
        <ele>235.3</ele>
        <time>2014-03-12T09:27:50Z</time>
      </trkpt>
      <trkpt lat="49.20368" lon="6.82815">
        <ele>235.7</ele>
        <time>2014-03-12T09:27:55Z</time>
      </trkpt>
      <trkpt lat="49.20371" lon="6.82806">
        <ele>235.5</ele>
        <time>2014-03-12T09:28:00Z</time>
      </trkpt>
      <trkpt lat="49.20374" lon="6.82798">
        <ele>237.8</ele>
        <time>2014-03-12T09:28:05Z</time>
      </trkpt>
      <trkpt lat="49.20378" lon="6.8279">
        <ele>237.7</ele>
        <time>2014-03-12T09:28:10Z</time>
      </trkpt>
      <trkpt lat="49.20382" lon="6.82782">
        <ele>238.2</ele>
        <time>2014-03-12T09:28:15Z</time>
      </trkpt>
      <trkpt lat="49.20383" lon="6.82775">
        <ele>239.6</ele>
        <time>2014-03-12T09:28:20Z</time>
      </trkpt>
      <trkpt lat="49.20384" lon="6.82767">
        <ele>239.2</ele>
        <time>2014-03-12T09:28:25Z</time>
      </trkpt>
      <trkpt lat="49.20385" lon="6.82759">
        <ele>239.8</ele>
        <time>2014-03-12T09:28:30Z</time>
      </trkpt>
      <trkpt lat="49.20388" lon="6.82743">
        <ele>241.2</ele>
        <time>2014-03-12T09:28:40Z</time>
      </trkpt>
      <trkpt lat="49.20388" lon="6.82733">
        <ele>241.9</ele>
        <time>2014-03-12T09:28:45Z</time>
      </trkpt>
      <trkpt lat="49.20389" lon="6.82723">
        <ele>241.7</ele>
        <time>2014-03-12T09:28:50Z</time>
      </trkpt>
      <trkpt lat="49.2039" lon="6.82713">
        <ele>242.6</ele>
        <time>2014-03-12T09:28:55Z</time>
      </trkpt>
      <trkpt lat="49.20391" lon="6.82704">
        <ele>243.1</ele>
        <time>2014-03-12T09:29:00Z</time>
      </trkpt>
      <trkpt lat="49.20393" lon="6.82695">
        <ele>244.4</ele>
        <time>2014-03-12T09:29:05Z</time>
      </trkpt>
      <trkpt lat="49.20396" lon="6.82686">
        <ele>244.8</ele>
        <time>2014-03-12T09:29:10Z</time>
      </trkpt>
      <trkpt lat="49.20396" lon="6.82676">
        <ele>245.1</ele>
        <time>2014-03-12T09:29:15Z</time>
      </trkpt>
      <trkpt lat="49.20396" lon="6.82665">
        <ele>246.1</ele>
        <time>2014-03-12T09:29:20Z</time>
      </trkpt>
      <trkpt lat="49.20397" lon="6.82656">
        <ele>246.8</ele>
        <time>2014-03-12T09:29:25Z</time>
      </trkpt>
      <trkpt lat="49.20399" lon="6.82647">
        <ele>247.4</ele>
        <time>2014-03-12T09:29:30Z</time>
      </trkpt>
      <trkpt lat="49.20402" lon="6.82638">
        <ele>247.4</ele>
        <time>2014-03-12T09:29:35Z</time>
      </trkpt>
      <trkpt lat="49.20403" lon="6.82618">
        <ele>248.6</ele>
        <time>2014-03-12T09:29:45Z</time>
      </trkpt>
      <trkpt lat="49.204" lon="6.82609">
        <ele>249.6</ele>
        <time>2014-03-12T09:29:50Z</time>
      </trkpt>
      <trkpt lat="49.20398" lon="6.82601">
        <ele>249.8</ele>
        <time>2014-03-12T09:29:55Z</time>
      </trkpt>
      <trkpt lat="49.20397" lon="6.82593">
        <ele>250.6</ele>
        <time>2014-03-12T09:30:00Z</time>
      </trkpt>
      <trkpt lat="49.20395" lon="6.82586">
        <ele>251.1</ele>
        <time>2014-03-12T09:30:05Z</time>
      </trkpt>
      <trkpt lat="49.20392" lon="6.82578">
        <ele>251.8</ele>
        <time>2014-03-12T09:30:10Z</time>
      </trkpt>
      <trkpt lat="49.20389" lon="6.8257">
        <ele>252.8</ele>
        <time>2014-03-12T09:30:15Z</time>
      </trkpt>
      <trkpt lat="49.20387" lon="6.82561">
        <ele>253.9</ele>
        <time>2014-03-12T09:30:20Z</time>
      </trkpt>
      <trkpt lat="49.20389" lon="6.82554">
        <ele>253.9</ele>
        <time>2014-03-12T09:30:25Z</time>
      </trkpt>
      <trkpt lat="49.2039" lon="6.82546">
        <ele>254.7</ele>
        <time>2014-03-12T09:30:30Z</time>
      </trkpt>
      <trkpt lat="49.20392" lon="6.82537">
        <ele>256</ele>
        <time>2014-03-12T09:30:35Z</time>
      </trkpt>
      <trkpt lat="49.20394" lon="6.82528">
        <ele>254.9</ele>
        <time>2014-03-12T09:30:40Z</time>
      </trkpt>
      <trkpt lat="49.20394" lon="6.82506">
        <ele>256.4</ele>
        <time>2014-03-12T09:30:50Z</time>
      </trkpt>
      <trkpt lat="49.20394" lon="6.82495">
        <ele>257</ele>
        <time>2014-03-12T09:30:55Z</time>
      </trkpt>
      <trkpt lat="49.20393" lon="6.82484">
        <ele>256.5</ele>
        <time>2014-03-12T09:31:00Z</time>
      </trkpt>
      <trkpt lat="49.20394" lon="6.82475">
        <ele>256.9</ele>
        <time>2014-03-12T09:31:05Z</time>
      </trkpt>
      <trkpt lat="49.20393" lon="6.82464">
        <ele>257.5</ele>
        <time>2014-03-12T09:31:10Z</time>
      </trkpt>
      <trkpt lat="49.20393" lon="6.82454">
        <ele>258.2</ele>
        <time>2014-03-12T09:31:15Z</time>
      </trkpt>
      <trkpt lat="49.20394" lon="6.82445">
        <ele>257.9</ele>
        <time>2014-03-12T09:31:20Z</time>
      </trkpt>
      <trkpt lat="49.20395" lon="6.82436">
        <ele>256.9</ele>
        <time>2014-03-12T09:31:25Z</time>
      </trkpt>
      <trkpt lat="49.20396" lon="6.82427">
        <ele>258.6</ele>
        <time>2014-03-12T09:31:30Z</time>
      </trkpt>
      <trkpt lat="49.20398" lon="6.82417">
        <ele>259.3</ele>
        <time>2014-03-12T09:31:35Z</time>
      </trkpt>
      <trkpt lat="49.20397" lon="6.82407">
        <ele>259.7</ele>
        <time>2014-03-12T09:31:40Z</time>
      </trkpt>
      <trkpt lat="49.20398" lon="6.82398">
        <ele>259.3</ele>
        <time>2014-03-12T09:31:45Z</time>
      </trkpt>
      <trkpt lat="49.20399" lon="6.82382">
        <ele>260.6</ele>
        <time>2014-03-12T09:31:55Z</time>
      </trkpt>
      <trkpt lat="49.20399" lon="6.82373">
        <ele>260.7</ele>
        <time>2014-03-12T09:32:00Z</time>
      </trkpt>
      <trkpt lat="49.20397" lon="6.82363">
        <ele>260.7</ele>
        <time>2014-03-12T09:32:05Z</time>
      </trkpt>
      <trkpt lat="49.20396" lon="6.82354">
        <ele>262.1</ele>
        <time>2014-03-12T09:32:10Z</time>
      </trkpt>
      <trkpt lat="49.20394" lon="6.82344">
        <ele>263</ele>
        <time>2014-03-12T09:32:15Z</time>
      </trkpt>
      <trkpt lat="49.20392" lon="6.82335">
        <ele>262.8</ele>
        <time>2014-03-12T09:32:20Z</time>
      </trkpt>
      <trkpt lat="49.20389" lon="6.82326">
        <ele>262.5</ele>
        <time>2014-03-12T09:32:25Z</time>
      </trkpt>
      <trkpt lat="49.20387" lon="6.82317">
        <ele>262.9</ele>
        <time>2014-03-12T09:32:30Z</time>
      </trkpt>
      <trkpt lat="49.20385" lon="6.82308">
        <ele>263.4</ele>
        <time>2014-03-12T09:32:35Z</time>
      </trkpt>
      <trkpt lat="49.20383" lon="6.82298">
        <ele>264.1</ele>
        <time>2014-03-12T09:32:40Z</time>
      </trkpt>
      <trkpt lat="49.20382" lon="6.82288">
        <ele>264.4</ele>
        <time>2014-03-12T09:32:45Z</time>
      </trkpt>
      <trkpt lat="49.20382" lon="6.82277">
        <ele>265.5</ele>
        <time>2014-03-12T09:32:50Z</time>
      </trkpt>
      <trkpt lat="49.20383" lon="6.82257">
        <ele>266.4</ele>
        <time>2014-03-12T09:33:00Z</time>
      </trkpt>
      <trkpt lat="49.20383" lon="6.82246">
        <ele>266.6</ele>
        <time>2014-03-12T09:33:05Z</time>
      </trkpt>
      <trkpt lat="49.20384" lon="6.82236">
        <ele>266.6</ele>
        <time>2014-03-12T09:33:10Z</time>
      </trkpt>
      <trkpt lat="49.20385" lon="6.82224">
        <ele>267.2</ele>
        <time>2014-03-12T09:33:15Z</time>
      </trkpt>
      <trkpt lat="49.20384" lon="6.82214">
        <ele>267.1</ele>
        <time>2014-03-12T09:33:20Z</time>
      </trkpt>
      <trkpt lat="49.20384" lon="6.82204">
        <ele>267.3</ele>
        <time>2014-03-12T09:33:25Z</time>
      </trkpt>
      <trkpt lat="49.20383" lon="6.82193">
        <ele>267.2</ele>
        <time>2014-03-12T09:33:30Z</time>
      </trkpt>
      <trkpt lat="49.20382" lon="6.82182">
        <ele>268.1</ele>
        <time>2014-03-12T09:33:35Z</time>
      </trkpt>
      <trkpt lat="49.20382" lon="6.82173">
        <ele>268.6</ele>
        <time>2014-03-12T09:33:40Z</time>
      </trkpt>
      <trkpt lat="49.2038" lon="6.82164">
        <ele>269.8</ele>
        <time>2014-03-12T09:33:45Z</time>
      </trkpt>
      <trkpt lat="49.2038" lon="6.82154">
        <ele>270.1</ele>
        <time>2014-03-12T09:33:50Z</time>
      </trkpt>
      <trkpt lat="49.20378" lon="6.82145">
        <ele>270.7</ele>
        <time>2014-03-12T09:33:55Z</time>
      </trkpt>
      <trkpt lat="49.20376" lon="6.82124">
        <ele>271.2</ele>
        <time>2014-03-12T09:34:05Z</time>
      </trkpt>
      <trkpt lat="49.20377" lon="6.82115">
        <ele>271.7</ele>
        <time>2014-03-12T09:34:10Z</time>
      </trkpt>
      <trkpt lat="49.20378" lon="6.82106">
        <ele>272.6</ele>
        <time>2014-03-12T09:34:15Z</time>
      </trkpt>
      <trkpt lat="49.20379" lon="6.82097">
        <ele>272.1</ele>
        <time>2014-03-12T09:34:20Z</time>
      </trkpt>
      <trkpt lat="49.2038" lon="6.82087">
        <ele>272.6</ele>
        <time>2014-03-12T09:34:25Z</time>
      </trkpt>
      <trkpt lat="49.2038" lon="6.82077">
        <ele>273.1</ele>
        <time>2014-03-12T09:34:30Z</time>
      </trkpt>
      <trkpt lat="49.20381" lon="6.82069">
        <ele>274.5</ele>
        <time>2014-03-12T09:34:35Z</time>
      </trkpt>
      <trkpt lat="49.20383" lon="6.82058">
        <ele>274.5</ele>
        <time>2014-03-12T09:34:40Z</time>
      </trkpt>
      <trkpt lat="49.20385" lon="6.82049">
        <ele>275.2</ele>
        <time>2014-03-12T09:34:45Z</time>
      </trkpt>
      <trkpt lat="49.20386" lon="6.82038">
        <ele>276.5</ele>
        <time>2014-03-12T09:34:50Z</time>
      </trkpt>
      <trkpt lat="49.20386" lon="6.82027">
        <ele>276.8</ele>
        <time>2014-03-12T09:34:55Z</time>
      </trkpt>
      <trkpt lat="49.20388" lon="6.82015">
        <ele>276.6</ele>
        <time>2014-03-12T09:35:00Z</time>
      </trkpt>
      <trkpt lat="49.20392" lon="6.81992">
        <ele>277</ele>
        <time>2014-03-12T09:35:10Z</time>
      </trkpt>
      <trkpt lat="49.20393" lon="6.81982">
        <ele>278.5</ele>
        <time>2014-03-12T09:35:15Z</time>
      </trkpt>
      <trkpt lat="49.20393" lon="6.81972">
        <ele>279.4</ele>
        <time>2014-03-12T09:35:20Z</time>
      </trkpt>
      <trkpt lat="49.20392" lon="6.81963">
        <ele>279.1</ele>
        <time>2014-03-12T09:35:25Z</time>
      </trkpt>
      <trkpt lat="49.20391" lon="6.81954">
        <ele>279.8</ele>
        <time>2014-03-12T09:35:30Z</time>
      </trkpt>
      <trkpt lat="49.20389" lon="6.81945">
        <ele>279.7</ele>
        <time>2014-03-12T09:35:35Z</time>
      </trkpt>
      <trkpt lat="49.20386" lon="6.81935">
        <ele>280.2</ele>
        <time>2014-03-12T09:35:40Z</time>
      </trkpt>
      <trkpt lat="49.20383" lon="6.81926">
        <ele>281.3</ele>
        <time>2014-03-12T09:35:45Z</time>
      </trkpt>
      <trkpt lat="49.2038" lon="6.81917">
        <ele>281.8</ele>
        <time>2014-03-12T09:35:50Z</time>
      </trkpt>
      <trkpt lat="49.20378" lon="6.8191">
        <ele>282.4</ele>
        <time>2014-03-12T09:35:55Z</time>
      </trkpt>
      <trkpt lat="49.20378" lon="6.81903">
        <ele>284.2</ele>
        <time>2014-03-12T09:36:00Z</time>
      </trkpt>
      <trkpt lat="49.20375" lon="6.81894">
        <ele>286.2</ele>
        <time>2014-03-12T09:36:05Z</time>
      </trkpt>
      <trkpt lat="49.2037" lon="6.81879">
        <ele>287.5</ele>
        <time>2014-03-12T09:36:15Z</time>
      </trkpt>
      <trkpt lat="49.20368" lon="6.81873">
        <ele>289.3</ele>
        <time>2014-03-12T09:36:20Z</time>
      </trkpt>
      <trkpt lat="49.20364" lon="6.81863">
        <ele>289.5</ele>
        <time>2014-03-12T09:36:25Z</time>
      </trkpt>
      <trkpt lat="49.20361" lon="6.81854">
        <ele>290.7</ele>
        <time>2014-03-12T09:36:30Z</time>
      </trkpt>
      <trkpt lat="49.20358" lon="6.81844">
        <ele>290.6</ele>
        <time>2014-03-12T09:36:35Z</time>
      </trkpt>
      <trkpt lat="49.20357" lon="6.81834">
        <ele>290.7</ele>
        <time>2014-03-12T09:36:40Z</time>
      </trkpt>
      <trkpt lat="49.20354" lon="6.81825">
        <ele>291.2</ele>
        <time>2014-03-12T09:36:45Z</time>
      </trkpt>
      <trkpt lat="49.20353" lon="6.81816">
        <ele>292.5</ele>
        <time>2014-03-12T09:36:50Z</time>
      </trkpt>
      <trkpt lat="49.20353" lon="6.81805">
        <ele>292.4</ele>
        <time>2014-03-12T09:36:55Z</time>
      </trkpt>
      <trkpt lat="49.20352" lon="6.81796">
        <ele>292.7</ele>
        <time>2014-03-12T09:37:00Z</time>
      </trkpt>
      <trkpt lat="49.20352" lon="6.81786">
        <ele>293.6</ele>
        <time>2014-03-12T09:37:05Z</time>
      </trkpt>
      <trkpt lat="49.20352" lon="6.81777">
        <ele>294.1</ele>
        <time>2014-03-12T09:37:10Z</time>
      </trkpt>
      <trkpt lat="49.20354" lon="6.8176">
        <ele>294.4</ele>
        <time>2014-03-12T09:37:20Z</time>
      </trkpt>
      <trkpt lat="49.20355" lon="6.81751">
        <ele>295.2</ele>
        <time>2014-03-12T09:37:25Z</time>
      </trkpt>
      <trkpt lat="49.20357" lon="6.8174">
        <ele>294.9</ele>
        <time>2014-03-12T09:37:30Z</time>
      </trkpt>
      <trkpt lat="49.20359" lon="6.8173">
        <ele>294.9</ele>
        <time>2014-03-12T09:37:35Z</time>
      </trkpt>
      <trkpt lat="49.20363" lon="6.81722">
        <ele>295.4</ele>
        <time>2014-03-12T09:37:40Z</time>
      </trkpt>
      <trkpt lat="49.20368" lon="6.81719">
        <ele>295.5</ele>
        <time>2014-03-12T09:37:45Z</time>
      </trkpt>
      <trkpt lat="49.20371" lon="6.8172">
        <ele>294.7</ele>
        <time>2014-03-12T09:37:50Z</time>
      </trkpt>
      <trkpt lat="49.20376" lon="6.81724">
        <ele>294.1</ele>
        <time>2014-03-12T09:37:55Z</time>
      </trkpt>
      <trkpt lat="49.20381" lon="6.81728">
        <ele>294.3</ele>
        <time>2014-03-12T09:38:00Z</time>
      </trkpt>
      <trkpt lat="49.20386" lon="6.81732">
        <ele>294.4</ele>
        <time>2014-03-12T09:38:05Z</time>
      </trkpt>
      <trkpt lat="49.2039" lon="6.81736">
        <ele>294.7</ele>
        <time>2014-03-12T09:38:10Z</time>
      </trkpt>
      <trkpt lat="49.20395" lon="6.8174">
        <ele>294.5</ele>
        <time>2014-03-12T09:38:15Z</time>
      </trkpt>
      <trkpt lat="49.20406" lon="6.81749">
        <ele>294.3</ele>
        <time>2014-03-12T09:38:25Z</time>
      </trkpt>
      <trkpt lat="49.20414" lon="6.81756">
        <ele>293.3</ele>
        <time>2014-03-12T09:38:30Z</time>
      </trkpt>
      <trkpt lat="49.20419" lon="6.8176">
        <ele>293</ele>
        <time>2014-03-12T09:38:35Z</time>
      </trkpt>
      <trkpt lat="49.20425" lon="6.81765">
        <ele>293.2</ele>
        <time>2014-03-12T09:38:40Z</time>
      </trkpt>
      <trkpt lat="49.2043" lon="6.81771">
        <ele>292.5</ele>
        <time>2014-03-12T09:38:45Z</time>
      </trkpt>
      <trkpt lat="49.20436" lon="6.81777">
        <ele>293.2</ele>
        <time>2014-03-12T09:38:50Z</time>
      </trkpt>
      <trkpt lat="49.20442" lon="6.81783">
        <ele>293.4</ele>
        <time>2014-03-12T09:38:55Z</time>
      </trkpt>
      <trkpt lat="49.20449" lon="6.81788">
        <ele>293</ele>
        <time>2014-03-12T09:39:00Z</time>
      </trkpt>
      <trkpt lat="49.20456" lon="6.81794">
        <ele>292.8</ele>
        <time>2014-03-12T09:39:05Z</time>
      </trkpt>
      <trkpt lat="49.20463" lon="6.81799">
        <ele>292.4</ele>
        <time>2014-03-12T09:39:10Z</time>
      </trkpt>
      <trkpt lat="49.2047" lon="6.81805">
        <ele>292.8</ele>
        <time>2014-03-12T09:39:15Z</time>
      </trkpt>
      <trkpt lat="49.20475" lon="6.81811">
        <ele>293</ele>
        <time>2014-03-12T09:39:20Z</time>
      </trkpt>
      <trkpt lat="49.20487" lon="6.81821">
        <ele>292.3</ele>
        <time>2014-03-12T09:39:30Z</time>
      </trkpt>
      <trkpt lat="49.20494" lon="6.81827">
        <ele>292.1</ele>
        <time>2014-03-12T09:39:35Z</time>
      </trkpt>
      <trkpt lat="49.20499" lon="6.81832">
        <ele>292.2</ele>
        <time>2014-03-12T09:39:40Z</time>
      </trkpt>
      <trkpt lat="49.20505" lon="6.81838">
        <ele>291.6</ele>
        <time>2014-03-12T09:39:45Z</time>
      </trkpt>
      <trkpt lat="49.20511" lon="6.81842">
        <ele>291.9</ele>
        <time>2014-03-12T09:39:50Z</time>
      </trkpt>
      <trkpt lat="49.20516" lon="6.81847">
        <ele>292.2</ele>
        <time>2014-03-12T09:39:55Z</time>
      </trkpt>
      <trkpt lat="49.20521" lon="6.81852">
        <ele>291.8</ele>
        <time>2014-03-12T09:40:00Z</time>
      </trkpt>
      <trkpt lat="49.20526" lon="6.81857">
        <ele>291.8</ele>
        <time>2014-03-12T09:40:05Z</time>
      </trkpt>
      <trkpt lat="49.20532" lon="6.81862">
        <ele>291.6</ele>
        <time>2014-03-12T09:40:10Z</time>
      </trkpt>
      <trkpt lat="49.20536" lon="6.81867">
        <ele>291.3</ele>
        <time>2014-03-12T09:40:15Z</time>
      </trkpt>
      <trkpt lat="49.20541" lon="6.81872">
        <ele>290.5</ele>
        <time>2014-03-12T09:40:20Z</time>
      </trkpt>
      <trkpt lat="49.20545" lon="6.81878">
        <ele>291.1</ele>
        <time>2014-03-12T09:40:25Z</time>
      </trkpt>
      <trkpt lat="49.20555" lon="6.81888">
        <ele>290.5</ele>
        <time>2014-03-12T09:40:35Z</time>
      </trkpt>
      <trkpt lat="49.20559" lon="6.81892">
        <ele>291.3</ele>
        <time>2014-03-12T09:40:40Z</time>
      </trkpt>
      <trkpt lat="49.20564" lon="6.81896">
        <ele>291</ele>
        <time>2014-03-12T09:40:45Z</time>
      </trkpt>
      <trkpt lat="49.2057" lon="6.81901">
        <ele>291.4</ele>
        <time>2014-03-12T09:40:50Z</time>
      </trkpt>
      <trkpt lat="49.20575" lon="6.81906">
        <ele>291.3</ele>
        <time>2014-03-12T09:40:55Z</time>
      </trkpt>
      <trkpt lat="49.20581" lon="6.81912">
        <ele>291.6</ele>
        <time>2014-03-12T09:41:00Z</time>
      </trkpt>
      <trkpt lat="49.20587" lon="6.81917">
        <ele>290.8</ele>
        <time>2014-03-12T09:41:05Z</time>
      </trkpt>
      <trkpt lat="49.20594" lon="6.81922">
        <ele>291</ele>
        <time>2014-03-12T09:41:10Z</time>
      </trkpt>
      <trkpt lat="49.20599" lon="6.81929">
        <ele>291.3</ele>
        <time>2014-03-12T09:41:15Z</time>
      </trkpt>
      <trkpt lat="49.20604" lon="6.81936">
        <ele>290.8</ele>
        <time>2014-03-12T09:41:20Z</time>
      </trkpt>
      <trkpt lat="49.2061" lon="6.81944">
        <ele>290.5</ele>
        <time>2014-03-12T09:41:25Z</time>
      </trkpt>
      <trkpt lat="49.20616" lon="6.81952">
        <ele>290.4</ele>
        <time>2014-03-12T09:41:30Z</time>
      </trkpt>
      <trkpt lat="49.20627" lon="6.81968">
        <ele>290.8</ele>
        <time>2014-03-12T09:41:40Z</time>
      </trkpt>
      <trkpt lat="49.20631" lon="6.81975">
        <ele>291.2</ele>
        <time>2014-03-12T09:41:45Z</time>
      </trkpt>
      <trkpt lat="49.20634" lon="6.81982">
        <ele>290.6</ele>
        <time>2014-03-12T09:41:50Z</time>
      </trkpt>
      <trkpt lat="49.20639" lon="6.81989">
        <ele>291.3</ele>
        <time>2014-03-12T09:41:55Z</time>
      </trkpt>
      <trkpt lat="49.20643" lon="6.81997">
        <ele>290.9</ele>
        <time>2014-03-12T09:42:00Z</time>
      </trkpt>
      <trkpt lat="49.20651" lon="6.82005">
        <ele>291.1</ele>
        <time>2014-03-12T09:42:05Z</time>
      </trkpt>
      <trkpt lat="49.20657" lon="6.82013">
        <ele>290.2</ele>
        <time>2014-03-12T09:42:10Z</time>
      </trkpt>
      <trkpt lat="49.20663" lon="6.82022">
        <ele>290.4</ele>
        <time>2014-03-12T09:42:15Z</time>
      </trkpt>
      <trkpt lat="49.20668" lon="6.8203">
        <ele>290.2</ele>
        <time>2014-03-12T09:42:20Z</time>
      </trkpt>
      <trkpt lat="49.20673" lon="6.82039">
        <ele>290</ele>
        <time>2014-03-12T09:42:25Z</time>
      </trkpt>
      <trkpt lat="49.20677" lon="6.82047">
        <ele>289.7</ele>
        <time>2014-03-12T09:42:30Z</time>
      </trkpt>
      <trkpt lat="49.20681" lon="6.82055">
        <ele>290</ele>
        <time>2014-03-12T09:42:35Z</time>
      </trkpt>
      <trkpt lat="49.2069" lon="6.82069">
        <ele>289.7</ele>
        <time>2014-03-12T09:42:45Z</time>
      </trkpt>
      <trkpt lat="49.20695" lon="6.82076">
        <ele>289.9</ele>
        <time>2014-03-12T09:42:50Z</time>
      </trkpt>
      <trkpt lat="49.20699" lon="6.82084">
        <ele>289.4</ele>
        <time>2014-03-12T09:42:55Z</time>
      </trkpt>
      <trkpt lat="49.20703" lon="6.82091">
        <ele>289</ele>
        <time>2014-03-12T09:43:00Z</time>
      </trkpt>
      <trkpt lat="49.20706" lon="6.82097">
        <ele>288.5</ele>
        <time>2014-03-12T09:43:05Z</time>
      </trkpt>
      <trkpt lat="49.20711" lon="6.82103">
        <ele>288.9</ele>
        <time>2014-03-12T09:43:10Z</time>
      </trkpt>
      <trkpt lat="49.20716" lon="6.8211">
        <ele>288.5</ele>
        <time>2014-03-12T09:43:15Z</time>
      </trkpt>
      <trkpt lat="49.2072" lon="6.82118">
        <ele>288.2</ele>
        <time>2014-03-12T09:43:20Z</time>
      </trkpt>
      <trkpt lat="49.20725" lon="6.82125">
        <ele>287.5</ele>
        <time>2014-03-12T09:43:25Z</time>
      </trkpt>
      <trkpt lat="49.2073" lon="6.82132">
        <ele>288.6</ele>
        <time>2014-03-12T09:43:30Z</time>
      </trkpt>
      <trkpt lat="49.20733" lon="6.8214">
        <ele>287.9</ele>
        <time>2014-03-12T09:43:35Z</time>
      </trkpt>
      <trkpt lat="49.20736" lon="6.82145">
        <ele>287.7</ele>
        <time>2014-03-12T09:43:40Z</time>
      </trkpt>
      <trkpt lat="49.20743" lon="6.82155">
        <ele>286</ele>
        <time>2014-03-12T09:43:50Z</time>
      </trkpt>
      <trkpt lat="49.20748" lon="6.82161">
        <ele>286.7</ele>
        <time>2014-03-12T09:43:55Z</time>
      </trkpt>
      <trkpt lat="49.20753" lon="6.82166">
        <ele>285.6</ele>
        <time>2014-03-12T09:44:00Z</time>
      </trkpt>
      <trkpt lat="49.20758" lon="6.82173">
        <ele>285.5</ele>
        <time>2014-03-12T09:44:05Z</time>
      </trkpt>
      <trkpt lat="49.20762" lon="6.82179">
        <ele>285.5</ele>
        <time>2014-03-12T09:44:10Z</time>
      </trkpt>
      <trkpt lat="49.20767" lon="6.82186">
        <ele>283.8</ele>
        <time>2014-03-12T09:44:15Z</time>
      </trkpt>
      <trkpt lat="49.20771" lon="6.82193">
        <ele>282.8</ele>
        <time>2014-03-12T09:44:20Z</time>
      </trkpt>
      <trkpt lat="49.20775" lon="6.822">
        <ele>283</ele>
        <time>2014-03-12T09:44:25Z</time>
      </trkpt>
      <trkpt lat="49.20779" lon="6.82206">
        <ele>282.3</ele>
        <time>2014-03-12T09:44:30Z</time>
      </trkpt>
      <trkpt lat="49.20783" lon="6.82214">
        <ele>282.1</ele>
        <time>2014-03-12T09:44:35Z</time>
      </trkpt>
      <trkpt lat="49.20787" lon="6.82221">
        <ele>281.5</ele>
        <time>2014-03-12T09:44:40Z</time>
      </trkpt>
      <trkpt lat="49.20792" lon="6.82228">
        <ele>280.9</ele>
        <time>2014-03-12T09:44:45Z</time>
      </trkpt>
      <trkpt lat="49.20799" lon="6.82243">
        <ele>281.2</ele>
        <time>2014-03-12T09:44:55Z</time>
      </trkpt>
      <trkpt lat="49.20804" lon="6.82251">
        <ele>281.5</ele>
        <time>2014-03-12T09:45:00Z</time>
      </trkpt>
      <trkpt lat="49.20809" lon="6.82258">
        <ele>281.7</ele>
        <time>2014-03-12T09:45:05Z</time>
      </trkpt>
      <trkpt lat="49.20812" lon="6.82265">
        <ele>281.3</ele>
        <time>2014-03-12T09:45:10Z</time>
      </trkpt>
      <trkpt lat="49.20817" lon="6.82272">
        <ele>281.5</ele>
        <time>2014-03-12T09:45:15Z</time>
      </trkpt>
      <trkpt lat="49.20822" lon="6.82277">
        <ele>280.7</ele>
        <time>2014-03-12T09:45:20Z</time>
      </trkpt>
      <trkpt lat="49.20826" lon="6.82284">
        <ele>280.5</ele>
        <time>2014-03-12T09:45:25Z</time>
      </trkpt>
      <trkpt lat="49.20831" lon="6.8229">
        <ele>280.7</ele>
        <time>2014-03-12T09:45:30Z</time>
      </trkpt>
      <trkpt lat="49.20836" lon="6.82295">
        <ele>281.1</ele>
        <time>2014-03-12T09:45:35Z</time>
      </trkpt>
      <trkpt lat="49.20842" lon="6.82299">
        <ele>281.3</ele>
        <time>2014-03-12T09:45:40Z</time>
      </trkpt>
      <trkpt lat="49.20847" lon="6.82303">
        <ele>281.8</ele>
        <time>2014-03-12T09:45:45Z</time>
      </trkpt>
      <trkpt lat="49.20854" lon="6.82305">
        <ele>281.3</ele>
        <time>2014-03-12T09:45:50Z</time>
      </trkpt>
      <trkpt lat="49.20869" lon="6.82311">
        <ele>280.6</ele>
        <time>2014-03-12T09:46:00Z</time>
      </trkpt>
      <trkpt lat="49.20876" lon="6.82314">
        <ele>280</ele>
        <time>2014-03-12T09:46:05Z</time>
      </trkpt>
      <trkpt lat="49.20884" lon="6.82317">
        <ele>280.4</ele>
        <time>2014-03-12T09:46:10Z</time>
      </trkpt>
      <trkpt lat="49.20891" lon="6.8232">
        <ele>280.4</ele>
        <time>2014-03-12T09:46:15Z</time>
      </trkpt>
      <trkpt lat="49.20897" lon="6.82322">
        <ele>280.5</ele>
        <time>2014-03-12T09:46:20Z</time>
      </trkpt>
      <trkpt lat="49.20904" lon="6.82324">
        <ele>279.4</ele>
        <time>2014-03-12T09:46:25Z</time>
      </trkpt>
      <trkpt lat="49.20909" lon="6.82327">
        <ele>278.9</ele>
        <time>2014-03-12T09:46:30Z</time>
      </trkpt>
      <trkpt lat="49.20915" lon="6.82329">
        <ele>278.8</ele>
        <time>2014-03-12T09:46:35Z</time>
      </trkpt>
      <trkpt lat="49.20922" lon="6.82332">
        <ele>278.3</ele>
        <time>2014-03-12T09:46:40Z</time>
      </trkpt>
      <trkpt lat="49.2093" lon="6.82335">
        <ele>277.7</ele>
        <time>2014-03-12T09:46:45Z</time>
      </trkpt>
      <trkpt lat="49.20936" lon="6.82337">
        <ele>276.9</ele>
        <time>2014-03-12T09:46:50Z</time>
      </trkpt>
      <trkpt lat="49.20942" lon="6.82339">
        <ele>275.8</ele>
        <time>2014-03-12T09:46:55Z</time>
      </trkpt>
      <trkpt lat="49.20954" lon="6.82341">
        <ele>275.4</ele>
        <time>2014-03-12T09:47:05Z</time>
      </trkpt>
      <trkpt lat="49.20958" lon="6.82343">
        <ele>274.4</ele>
        <time>2014-03-12T09:47:10Z</time>
      </trkpt>
      <trkpt lat="49.20965" lon="6.82346">
        <ele>273.4</ele>
        <time>2014-03-12T09:47:15Z</time>
      </trkpt>
      <trkpt lat="49.20971" lon="6.82348">
        <ele>272.6</ele>
        <time>2014-03-12T09:47:20Z</time>
      </trkpt>
      <trkpt lat="49.20979" lon="6.82351">
        <ele>271.3</ele>
        <time>2014-03-12T09:47:25Z</time>
      </trkpt>
      <trkpt lat="49.20987" lon="6.82354">
        <ele>269</ele>
        <time>2014-03-12T09:47:32Z</time>
      </trkpt>
      <trkpt lat="49.20992" lon="6.82356">
        <ele>269.3</ele>
        <time>2014-03-12T09:47:37Z</time>
      </trkpt>
      <trkpt lat="49.20997" lon="6.82357">
        <ele>268.5</ele>
        <time>2014-03-12T09:47:42Z</time>
      </trkpt>
      <trkpt lat="49.21002" lon="6.82359">
        <ele>267.2</ele>
        <time>2014-03-12T09:47:47Z</time>
      </trkpt>
      <trkpt lat="49.21008" lon="6.82363">
        <ele>266.8</ele>
        <time>2014-03-12T09:47:52Z</time>
      </trkpt>
      <trkpt lat="49.21013" lon="6.82365">
        <ele>265.1</ele>
        <time>2014-03-12T09:47:57Z</time>
      </trkpt>
      <trkpt lat="49.21024" lon="6.82371">
        <ele>263</ele>
        <time>2014-03-12T09:48:07Z</time>
      </trkpt>
      <trkpt lat="49.2103" lon="6.82372">
        <ele>261.5</ele>
        <time>2014-03-12T09:48:12Z</time>
      </trkpt>
      <trkpt lat="49.21036" lon="6.82375">
        <ele>261</ele>
        <time>2014-03-12T09:48:17Z</time>
      </trkpt>
      <trkpt lat="49.2104" lon="6.82376">
        <ele>260</ele>
        <time>2014-03-12T09:48:22Z</time>
      </trkpt>
      <trkpt lat="49.21045" lon="6.82379">
        <ele>258.5</ele>
        <time>2014-03-12T09:48:27Z</time>
      </trkpt>
      <trkpt lat="49.21051" lon="6.82382">
        <ele>257.8</ele>
        <time>2014-03-12T09:48:32Z</time>
      </trkpt>
      <trkpt lat="49.21057" lon="6.82384">
        <ele>257.8</ele>
        <time>2014-03-12T09:48:37Z</time>
      </trkpt>
      <trkpt lat="49.21062" lon="6.82385">
        <ele>256.4</ele>
        <time>2014-03-12T09:48:42Z</time>
      </trkpt>
      <trkpt lat="49.21068" lon="6.82387">
        <ele>255.8</ele>
        <time>2014-03-12T09:48:47Z</time>
      </trkpt>
      <trkpt lat="49.21074" lon="6.82388">
        <ele>256</ele>
        <time>2014-03-12T09:48:52Z</time>
      </trkpt>
      <trkpt lat="49.21079" lon="6.82389">
        <ele>254.1</ele>
        <time>2014-03-12T09:48:57Z</time>
      </trkpt>
      <trkpt lat="49.21084" lon="6.82392">
        <ele>253.2</ele>
        <time>2014-03-12T09:49:02Z</time>
      </trkpt>
      <trkpt lat="49.21096" lon="6.82396">
        <ele>251.9</ele>
        <time>2014-03-12T09:49:12Z</time>
      </trkpt>
      <trkpt lat="49.21102" lon="6.82399">
        <ele>251.6</ele>
        <time>2014-03-12T09:49:17Z</time>
      </trkpt>
      <trkpt lat="49.21108" lon="6.82401">
        <ele>250.3</ele>
        <time>2014-03-12T09:49:22Z</time>
      </trkpt>
      <trkpt lat="49.21114" lon="6.82402">
        <ele>249.9</ele>
        <time>2014-03-12T09:49:27Z</time>
      </trkpt>
      <trkpt lat="49.2112" lon="6.82404">
        <ele>248.5</ele>
        <time>2014-03-12T09:49:32Z</time>
      </trkpt>
      <trkpt lat="49.21127" lon="6.82407">
        <ele>247.3</ele>
        <time>2014-03-12T09:49:37Z</time>
      </trkpt>
      <trkpt lat="49.21133" lon="6.82409">
        <ele>245.7</ele>
        <time>2014-03-12T09:49:42Z</time>
      </trkpt>
      <trkpt lat="49.21141" lon="6.82411">
        <ele>245.1</ele>
        <time>2014-03-12T09:49:47Z</time>
      </trkpt>
      <trkpt lat="49.21146" lon="6.82413">
        <ele>245.1</ele>
        <time>2014-03-12T09:49:52Z</time>
      </trkpt>
      <trkpt lat="49.21151" lon="6.82416">
        <ele>244.7</ele>
        <time>2014-03-12T09:49:57Z</time>
      </trkpt>
      <trkpt lat="49.21158" lon="6.8242">
        <ele>243.1</ele>
        <time>2014-03-12T09:50:02Z</time>
      </trkpt>
      <trkpt lat="49.21163" lon="6.82422">
        <ele>242.8</ele>
        <time>2014-03-12T09:50:07Z</time>
      </trkpt>
      <trkpt lat="49.21172" lon="6.82427">
        <ele>240.4</ele>
        <time>2014-03-12T09:50:17Z</time>
      </trkpt>
      <trkpt lat="49.21178" lon="6.8243">
        <ele>239.8</ele>
        <time>2014-03-12T09:50:22Z</time>
      </trkpt>
      <trkpt lat="49.21183" lon="6.82432">
        <ele>238.8</ele>
        <time>2014-03-12T09:50:27Z</time>
      </trkpt>
      <trkpt lat="49.2119" lon="6.82432">
        <ele>238</ele>
        <time>2014-03-12T09:50:32Z</time>
      </trkpt>
      <trkpt lat="49.21196" lon="6.82431">
        <ele>237.2</ele>
        <time>2014-03-12T09:50:37Z</time>
      </trkpt>
      <trkpt lat="49.212" lon="6.82429">
        <ele>237.3</ele>
        <time>2014-03-12T09:50:42Z</time>
      </trkpt>
      <trkpt lat="49.21204" lon="6.82427">
        <ele>236.9</ele>
        <time>2014-03-12T09:50:47Z</time>
      </trkpt>
      <trkpt lat="49.21205" lon="6.82427">
        <ele>236.3</ele>
        <time>2014-03-12T09:50:52Z</time>
      </trkpt>
      <trkpt lat="49.21206" lon="6.82427">
        <ele>237.1</ele>
        <time>2014-03-12T09:50:57Z</time>
      </trkpt>
      <trkpt lat="49.21207" lon="6.82426">
        <ele>237.2</ele>
        <time>2014-03-12T09:51:02Z</time>
      </trkpt>
      <trkpt lat="49.21208" lon="6.82427">
        <ele>237.1</ele>
        <time>2014-03-12T09:51:07Z</time>
      </trkpt>
      <trkpt lat="49.21207" lon="6.82429">
        <ele>236.6</ele>
        <time>2014-03-12T09:51:12Z</time>
      </trkpt>
      <trkpt lat="49.21202" lon="6.82433">
        <ele>237.9</ele>
        <time>2014-03-12T09:51:22Z</time>
      </trkpt>
      <trkpt lat="49.212" lon="6.82435">
        <ele>237.6</ele>
        <time>2014-03-12T09:51:27Z</time>
      </trkpt>
      <trkpt lat="49.21199" lon="6.82436">
        <ele>237.5</ele>
        <time>2014-03-12T09:51:32Z</time>
      </trkpt>
      <trkpt lat="49.21198" lon="6.82439">
        <ele>237.4</ele>
        <time>2014-03-12T09:51:37Z</time>
      </trkpt>
      <trkpt lat="49.21193" lon="6.82443">
        <ele>238</ele>
        <time>2014-03-12T09:51:42Z</time>
      </trkpt>
      <trkpt lat="49.21191" lon="6.82445">
        <ele>238</ele>
        <time>2014-03-12T09:51:47Z</time>
      </trkpt>
      <trkpt lat="49.21193" lon="6.82446">
        <ele>238.8</ele>
        <time>2014-03-12T09:51:52Z</time>
      </trkpt>
      <trkpt lat="49.21194" lon="6.82447">
        <ele>239.3</ele>
        <time>2014-03-12T09:51:57Z</time>
      </trkpt>
      <trkpt lat="49.21192" lon="6.8245">
        <ele>239.1</ele>
        <time>2014-03-12T09:52:02Z</time>
      </trkpt>
      <trkpt lat="49.2119" lon="6.82454">
        <ele>238.6</ele>
        <time>2014-03-12T09:52:07Z</time>
      </trkpt>
      <trkpt lat="49.21184" lon="6.82458">
        <ele>238.5</ele>
        <time>2014-03-12T09:52:12Z</time>
      </trkpt>
      <trkpt lat="49.21178" lon="6.82463">
        <ele>238</ele>
        <time>2014-03-12T09:52:17Z</time>
      </trkpt>
      <trkpt lat="49.21169" lon="6.8247">
        <ele>239.2</ele>
        <time>2014-03-12T09:52:27Z</time>
      </trkpt>
      <trkpt lat="49.21163" lon="6.82475">
        <ele>239.4</ele>
        <time>2014-03-12T09:52:32Z</time>
      </trkpt>
      <trkpt lat="49.21157" lon="6.82478">
        <ele>239.9</ele>
        <time>2014-03-12T09:52:37Z</time>
      </trkpt>
      <trkpt lat="49.21151" lon="6.82482">
        <ele>239.7</ele>
        <time>2014-03-12T09:52:42Z</time>
      </trkpt>
      <trkpt lat="49.21145" lon="6.82486">
        <ele>239.6</ele>
        <time>2014-03-12T09:52:47Z</time>
      </trkpt>
      <trkpt lat="49.21139" lon="6.82491">
        <ele>240.8</ele>
        <time>2014-03-12T09:52:52Z</time>
      </trkpt>
      <trkpt lat="49.21134" lon="6.82495">
        <ele>240.4</ele>
        <time>2014-03-12T09:52:57Z</time>
      </trkpt>
      <trkpt lat="49.21129" lon="6.82501">
        <ele>240.7</ele>
        <time>2014-03-12T09:53:02Z</time>
      </trkpt>
      <trkpt lat="49.21123" lon="6.82506">
        <ele>240.8</ele>
        <time>2014-03-12T09:53:07Z</time>
      </trkpt>
      <trkpt lat="49.21117" lon="6.82509">
        <ele>241</ele>
        <time>2014-03-12T09:53:12Z</time>
      </trkpt>
      <trkpt lat="49.21112" lon="6.82512">
        <ele>241.6</ele>
        <time>2014-03-12T09:53:17Z</time>
      </trkpt>
      <trkpt lat="49.21105" lon="6.82515">
        <ele>241.3</ele>
        <time>2014-03-12T09:53:22Z</time>
      </trkpt>
      <trkpt lat="49.21093" lon="6.82519">
        <ele>241.5</ele>
        <time>2014-03-12T09:53:32Z</time>
      </trkpt>
      <trkpt lat="49.21086" lon="6.82518">
        <ele>242.3</ele>
        <time>2014-03-12T09:53:37Z</time>
      </trkpt>
      <trkpt lat="49.2108" lon="6.82518">
        <ele>242</ele>
        <time>2014-03-12T09:53:42Z</time>
      </trkpt>
      <trkpt lat="49.21074" lon="6.82514">
        <ele>242.1</ele>
        <time>2014-03-12T09:53:47Z</time>
      </trkpt>
      <trkpt lat="49.21066" lon="6.82513">
        <ele>243.2</ele>
        <time>2014-03-12T09:53:52Z</time>
      </trkpt>
      <trkpt lat="49.2106" lon="6.82511">
        <ele>243.8</ele>
        <time>2014-03-12T09:53:57Z</time>
      </trkpt>
      <trkpt lat="49.21052" lon="6.82508">
        <ele>243.8</ele>
        <time>2014-03-12T09:54:02Z</time>
      </trkpt>
      <trkpt lat="49.21047" lon="6.82507">
        <ele>243.7</ele>
        <time>2014-03-12T09:54:07Z</time>
      </trkpt>
      <trkpt lat="49.21039" lon="6.82508">
        <ele>243.3</ele>
        <time>2014-03-12T09:54:12Z</time>
      </trkpt>
      <trkpt lat="49.21032" lon="6.8251">
        <ele>243.4</ele>
        <time>2014-03-12T09:54:17Z</time>
      </trkpt>
      <trkpt lat="49.21025" lon="6.82513">
        <ele>242.5</ele>
        <time>2014-03-12T09:54:22Z</time>
      </trkpt>
      <trkpt lat="49.21021" lon="6.82518">
        <ele>244.7</ele>
        <time>2014-03-12T09:54:27Z</time>
      </trkpt>
      <trkpt lat="49.21012" lon="6.82533">
        <ele>243.5</ele>
        <time>2014-03-12T09:54:37Z</time>
      </trkpt>
      <trkpt lat="49.2101" lon="6.82542">
        <ele>243</ele>
        <time>2014-03-12T09:54:42Z</time>
      </trkpt>
      <trkpt lat="49.21008" lon="6.82544">
        <ele>243.7</ele>
        <time>2014-03-12T09:54:47Z</time>
      </trkpt>
      <trkpt lat="49.21008" lon="6.82544">
        <ele>243.7</ele>
        <time>2014-03-12T09:54:52Z</time>
      </trkpt>
      <trkpt lat="49.21009" lon="6.82542">
        <ele>244.3</ele>
        <time>2014-03-12T09:54:57Z</time>
      </trkpt>
      <trkpt lat="49.21009" lon="6.82537">
        <ele>243.1</ele>
        <time>2014-03-12T09:55:02Z</time>
      </trkpt>
      <trkpt lat="49.21011" lon="6.82534">
        <ele>243.6</ele>
        <time>2014-03-12T09:55:07Z</time>
      </trkpt>
      <trkpt lat="49.21014" lon="6.82534">
        <ele>242.8</ele>
        <time>2014-03-12T09:55:12Z</time>
      </trkpt>
      <trkpt lat="49.21016" lon="6.82537">
        <ele>241.5</ele>
        <time>2014-03-12T09:55:17Z</time>
      </trkpt>
      <trkpt lat="49.21019" lon="6.82539">
        <ele>239.8</ele>
        <time>2014-03-12T09:55:22Z</time>
      </trkpt>
      <trkpt lat="49.21024" lon="6.82541">
        <ele>238.6</ele>
        <time>2014-03-12T09:55:27Z</time>
      </trkpt>
      <trkpt lat="49.21028" lon="6.82543">
        <ele>238.5</ele>
        <time>2014-03-12T09:55:32Z</time>
      </trkpt>
      <trkpt lat="49.21034" lon="6.82548">
        <ele>236</ele>
        <time>2014-03-12T09:55:42Z</time>
      </trkpt>
      <trkpt lat="49.2104" lon="6.82552">
        <ele>233.7</ele>
        <time>2014-03-12T09:55:47Z</time>
      </trkpt>
      <trkpt lat="49.21045" lon="6.82557">
        <ele>232.6</ele>
        <time>2014-03-12T09:55:52Z</time>
      </trkpt>
      <trkpt lat="49.2105" lon="6.82562">
        <ele>230.4</ele>
        <time>2014-03-12T09:55:57Z</time>
      </trkpt>
      <trkpt lat="49.21054" lon="6.82568">
        <ele>230.2</ele>
        <time>2014-03-12T09:56:02Z</time>
      </trkpt>
      <trkpt lat="49.21058" lon="6.82576">
        <ele>228.6</ele>
        <time>2014-03-12T09:56:07Z</time>
      </trkpt>
      <trkpt lat="49.21062" lon="6.82584">
        <ele>227.7</ele>
        <time>2014-03-12T09:56:12Z</time>
      </trkpt>
      <trkpt lat="49.21065" lon="6.82591">
        <ele>226.7</ele>
        <time>2014-03-12T09:56:17Z</time>
      </trkpt>
      <trkpt lat="49.21068" lon="6.82597">
        <ele>224.5</ele>
        <time>2014-03-12T09:56:22Z</time>
      </trkpt>
      <trkpt lat="49.21071" lon="6.82605">
        <ele>223.8</ele>
        <time>2014-03-12T09:56:27Z</time>
      </trkpt>
      <trkpt lat="49.21074" lon="6.8261">
        <ele>223</ele>
        <time>2014-03-12T09:56:32Z</time>
      </trkpt>
      <trkpt lat="49.21077" lon="6.82613">
        <ele>222.6</ele>
        <time>2014-03-12T09:56:37Z</time>
      </trkpt>
      <trkpt lat="49.21083" lon="6.82613">
        <ele>222.9</ele>
        <time>2014-03-12T09:56:47Z</time>
      </trkpt>
      <trkpt lat="49.21086" lon="6.82611">
        <ele>222.7</ele>
        <time>2014-03-12T09:56:52Z</time>
      </trkpt>
      <trkpt lat="49.2109" lon="6.82608">
        <ele>223.1</ele>
        <time>2014-03-12T09:56:57Z</time>
      </trkpt>
      <trkpt lat="49.21092" lon="6.82605">
        <ele>222.8</ele>
        <time>2014-03-12T09:57:02Z</time>
      </trkpt>
      <trkpt lat="49.21094" lon="6.82604">
        <ele>223.5</ele>
        <time>2014-03-12T09:57:07Z</time>
      </trkpt>
      <trkpt lat="49.21095" lon="6.82602">
        <ele>222.2</ele>
        <time>2014-03-12T09:57:12Z</time>
      </trkpt>
      <trkpt lat="49.21096" lon="6.82602">
        <ele>222.8</ele>
        <time>2014-03-12T09:57:17Z</time>
      </trkpt>
      <trkpt lat="49.21094" lon="6.82603">
        <ele>222.7</ele>
        <time>2014-03-12T09:57:22Z</time>
      </trkpt>
      <trkpt lat="49.21092" lon="6.82608">
        <ele>223.2</ele>
        <time>2014-03-12T09:57:27Z</time>
      </trkpt>
      <trkpt lat="49.21091" lon="6.82617">
        <ele>223.2</ele>
        <time>2014-03-12T09:57:32Z</time>
      </trkpt>
      <trkpt lat="49.21092" lon="6.82625">
        <ele>221.6</ele>
        <time>2014-03-12T09:57:37Z</time>
      </trkpt>
      <trkpt lat="49.21093" lon="6.82632">
        <ele>220.5</ele>
        <time>2014-03-12T09:57:42Z</time>
      </trkpt>
      <trkpt lat="49.21097" lon="6.82646">
        <ele>218.3</ele>
        <time>2014-03-12T09:57:52Z</time>
      </trkpt>
      <trkpt lat="49.21099" lon="6.82653">
        <ele>218</ele>
        <time>2014-03-12T09:57:57Z</time>
      </trkpt>
      <trkpt lat="49.21101" lon="6.82661">
        <ele>217.8</ele>
        <time>2014-03-12T09:58:02Z</time>
      </trkpt>
      <trkpt lat="49.21108" lon="6.82668">
        <ele>217.3</ele>
        <time>2014-03-12T09:58:07Z</time>
      </trkpt>
      <trkpt lat="49.21113" lon="6.82675">
        <ele>217</ele>
        <time>2014-03-12T09:58:12Z</time>
      </trkpt>
      <trkpt lat="49.21119" lon="6.82683">
        <ele>216.5</ele>
        <time>2014-03-12T09:58:17Z</time>
      </trkpt>
      <trkpt lat="49.21125" lon="6.8269">
        <ele>215.5</ele>
        <time>2014-03-12T09:58:22Z</time>
      </trkpt>
      <trkpt lat="49.2113" lon="6.82697">
        <ele>214.8</ele>
        <time>2014-03-12T09:58:27Z</time>
      </trkpt>
      <trkpt lat="49.21135" lon="6.82705">
        <ele>213.9</ele>
        <time>2014-03-12T09:58:32Z</time>
      </trkpt>
      <trkpt lat="49.21141" lon="6.82712">
        <ele>212.7</ele>
        <time>2014-03-12T09:58:37Z</time>
      </trkpt>
      <trkpt lat="49.21146" lon="6.82718">
        <ele>211.6</ele>
        <time>2014-03-12T09:58:42Z</time>
      </trkpt>
      <trkpt lat="49.21151" lon="6.82727">
        <ele>210.7</ele>
        <time>2014-03-12T09:58:47Z</time>
      </trkpt>
      <trkpt lat="49.21157" lon="6.82748">
        <ele>210.3</ele>
        <time>2014-03-12T09:58:57Z</time>
      </trkpt>
      <trkpt lat="49.2116" lon="6.82757">
        <ele>209.5</ele>
        <time>2014-03-12T09:59:02Z</time>
      </trkpt>
      <trkpt lat="49.21163" lon="6.82766">
        <ele>207.6</ele>
        <time>2014-03-12T09:59:07Z</time>
      </trkpt>
      <trkpt lat="49.21168" lon="6.82775">
        <ele>206.2</ele>
        <time>2014-03-12T09:59:12Z</time>
      </trkpt>
      <trkpt lat="49.21172" lon="6.82784">
        <ele>205.5</ele>
        <time>2014-03-12T09:59:17Z</time>
      </trkpt>
      <trkpt lat="49.21177" lon="6.82791">
        <ele>204.8</ele>
        <time>2014-03-12T09:59:22Z</time>
      </trkpt>
      <trkpt lat="49.2118" lon="6.82798">
        <ele>204.2</ele>
        <time>2014-03-12T09:59:27Z</time>
      </trkpt>
      <trkpt lat="49.2118" lon="6.82802">
        <ele>203.7</ele>
        <time>2014-03-12T09:59:32Z</time>
      </trkpt>
      <trkpt lat="49.2118" lon="6.82804">
        <ele>203.6</ele>
        <time>2014-03-12T09:59:37Z</time>
      </trkpt>
      <trkpt lat="49.21181" lon="6.82805">
        <ele>203.7</ele>
        <time>2014-03-12T09:59:42Z</time>
      </trkpt>
      <trkpt lat="49.21183" lon="6.82809">
        <ele>203</ele>
        <time>2014-03-12T09:59:47Z</time>
      </trkpt>
      <trkpt lat="49.21184" lon="6.82813">
        <ele>203.6</ele>
        <time>2014-03-12T09:59:52Z</time>
      </trkpt>
      <trkpt lat="49.2119" lon="6.82826">
        <ele>201.4</ele>
        <time>2014-03-12T10:00:02Z</time>
      </trkpt>
      <trkpt lat="49.21193" lon="6.82832">
        <ele>201</ele>
        <time>2014-03-12T10:00:07Z</time>
      </trkpt>
      <trkpt lat="49.21196" lon="6.82839">
        <ele>200.4</ele>
        <time>2014-03-12T10:00:12Z</time>
      </trkpt>
      <trkpt lat="49.21199" lon="6.82846">
        <ele>199.8</ele>
        <time>2014-03-12T10:00:17Z</time>
      </trkpt>
      <trkpt lat="49.21202" lon="6.82853">
        <ele>198.8</ele>
        <time>2014-03-12T10:00:22Z</time>
      </trkpt>
      <trkpt lat="49.21206" lon="6.82859">
        <ele>197.3</ele>
        <time>2014-03-12T10:00:27Z</time>
      </trkpt>
      <trkpt lat="49.2121" lon="6.82866">
        <ele>196.2</ele>
        <time>2014-03-12T10:00:32Z</time>
      </trkpt>
      <trkpt lat="49.21215" lon="6.82873">
        <ele>196.5</ele>
        <time>2014-03-12T10:00:37Z</time>
      </trkpt>
      <trkpt lat="49.2122" lon="6.82881">
        <ele>194.1</ele>
        <time>2014-03-12T10:00:42Z</time>
      </trkpt>
      <trkpt lat="49.21223" lon="6.82889">
        <ele>194.6</ele>
        <time>2014-03-12T10:00:47Z</time>
      </trkpt>
      <trkpt lat="49.21223" lon="6.82894">
        <ele>193.5</ele>
        <time>2014-03-12T10:00:52Z</time>
      </trkpt>
      <trkpt lat="49.21224" lon="6.82902">
        <ele>192.8</ele>
        <time>2014-03-12T10:00:57Z</time>
      </trkpt>
      <trkpt lat="49.21221" lon="6.82921">
        <ele>191.7</ele>
        <time>2014-03-12T10:01:07Z</time>
      </trkpt>
      <trkpt lat="49.21217" lon="6.82929">
        <ele>192.2</ele>
        <time>2014-03-12T10:01:12Z</time>
      </trkpt>
      <trkpt lat="49.21214" lon="6.82936">
        <ele>192.2</ele>
        <time>2014-03-12T10:01:17Z</time>
      </trkpt>
      <trkpt lat="49.2121" lon="6.82941">
        <ele>192.3</ele>
        <time>2014-03-12T10:01:22Z</time>
      </trkpt>
      <trkpt lat="49.21206" lon="6.82946">
        <ele>193.5</ele>
        <time>2014-03-12T10:01:27Z</time>
      </trkpt>
      <trkpt lat="49.21201" lon="6.8295">
        <ele>192.4</ele>
        <time>2014-03-12T10:01:32Z</time>
      </trkpt>
      <trkpt lat="49.21197" lon="6.82954">
        <ele>193.3</ele>
        <time>2014-03-12T10:01:37Z</time>
      </trkpt>
      <trkpt lat="49.21191" lon="6.8296">
        <ele>192.3</ele>
        <time>2014-03-12T10:01:42Z</time>
      </trkpt>
      <trkpt lat="49.21186" lon="6.82967">
        <ele>191.9</ele>
        <time>2014-03-12T10:01:47Z</time>
      </trkpt>
      <trkpt lat="49.21181" lon="6.82976">
        <ele>192.8</ele>
        <time>2014-03-12T10:01:52Z</time>
      </trkpt>
      <trkpt lat="49.21176" lon="6.82983">
        <ele>192.7</ele>
        <time>2014-03-12T10:01:57Z</time>
      </trkpt>
      <trkpt lat="49.21171" lon="6.82988">
        <ele>193</ele>
        <time>2014-03-12T10:02:02Z</time>
      </trkpt>
      <trkpt lat="49.21162" lon="6.83006">
        <ele>192</ele>
        <time>2014-03-12T10:02:12Z</time>
      </trkpt>
      <trkpt lat="49.21158" lon="6.83015">
        <ele>192.6</ele>
        <time>2014-03-12T10:02:17Z</time>
      </trkpt>
      <trkpt lat="49.21154" lon="6.83022">
        <ele>192</ele>
        <time>2014-03-12T10:02:22Z</time>
      </trkpt>
      <trkpt lat="49.21148" lon="6.83029">
        <ele>192.3</ele>
        <time>2014-03-12T10:02:27Z</time>
      </trkpt>
      <trkpt lat="49.21143" lon="6.83037">
        <ele>192.8</ele>
        <time>2014-03-12T10:02:32Z</time>
      </trkpt>
      <trkpt lat="49.21137" lon="6.83045">
        <ele>192.9</ele>
        <time>2014-03-12T10:02:37Z</time>
      </trkpt>
      <trkpt lat="49.21133" lon="6.83053">
        <ele>192.7</ele>
        <time>2014-03-12T10:02:42Z</time>
      </trkpt>
      <trkpt lat="49.2113" lon="6.8306">
        <ele>193.1</ele>
        <time>2014-03-12T10:02:47Z</time>
      </trkpt>
      <trkpt lat="49.21125" lon="6.83067">
        <ele>193.4</ele>
        <time>2014-03-12T10:02:52Z</time>
      </trkpt>
      <trkpt lat="49.21121" lon="6.83075">
        <ele>192.7</ele>
        <time>2014-03-12T10:02:57Z</time>
      </trkpt>
      <trkpt lat="49.21116" lon="6.83083">
        <ele>192.8</ele>
        <time>2014-03-12T10:03:02Z</time>
      </trkpt>
      <trkpt lat="49.21112" lon="6.8309">
        <ele>193.9</ele>
        <time>2014-03-12T10:03:07Z</time>
      </trkpt>
      <trkpt lat="49.21103" lon="6.831">
        <ele>193.2</ele>
        <time>2014-03-12T10:03:17Z</time>
      </trkpt>
      <trkpt lat="49.21099" lon="6.83104">
        <ele>193.5</ele>
        <time>2014-03-12T10:03:22Z</time>
      </trkpt>
      <trkpt lat="49.21097" lon="6.83107">
        <ele>193.9</ele>
        <time>2014-03-12T10:03:27Z</time>
      </trkpt>
      <trkpt lat="49.21095" lon="6.83108">
        <ele>193.4</ele>
        <time>2014-03-12T10:03:32Z</time>
      </trkpt>
      <trkpt lat="49.21091" lon="6.83111">
        <ele>193.3</ele>
        <time>2014-03-12T10:03:37Z</time>
      </trkpt>
      <trkpt lat="49.21086" lon="6.83116">
        <ele>193.4</ele>
        <time>2014-03-12T10:03:42Z</time>
      </trkpt>
      <trkpt lat="49.21082" lon="6.83122">
        <ele>193</ele>
        <time>2014-03-12T10:03:47Z</time>
      </trkpt>
      <trkpt lat="49.21077" lon="6.8313">
        <ele>193.1</ele>
        <time>2014-03-12T10:03:52Z</time>
      </trkpt>
      <trkpt lat="49.21072" lon="6.83139">
        <ele>193.1</ele>
        <time>2014-03-12T10:03:57Z</time>
      </trkpt>
      <trkpt lat="49.21066" lon="6.83148">
        <ele>193.7</ele>
        <time>2014-03-12T10:04:02Z</time>
      </trkpt>
      <trkpt lat="49.21062" lon="6.83156">
        <ele>194</ele>
        <time>2014-03-12T10:04:07Z</time>
      </trkpt>
      <trkpt lat="49.21057" lon="6.83161">
        <ele>194.5</ele>
        <time>2014-03-12T10:04:12Z</time>
      </trkpt>
      <trkpt lat="49.21049" lon="6.83178">
        <ele>192.8</ele>
        <time>2014-03-12T10:04:22Z</time>
      </trkpt>
      <trkpt lat="49.21045" lon="6.83185">
        <ele>192.6</ele>
        <time>2014-03-12T10:04:27Z</time>
      </trkpt>
      <trkpt lat="49.21039" lon="6.83193">
        <ele>192.8</ele>
        <time>2014-03-12T10:04:32Z</time>
      </trkpt>
      <trkpt lat="49.21034" lon="6.83199">
        <ele>193.5</ele>
        <time>2014-03-12T10:04:37Z</time>
      </trkpt>
      <trkpt lat="49.21028" lon="6.83206">
        <ele>194.3</ele>
        <time>2014-03-12T10:04:42Z</time>
      </trkpt>
      <trkpt lat="49.21023" lon="6.83213">
        <ele>194.6</ele>
        <time>2014-03-12T10:04:47Z</time>
      </trkpt>
      <trkpt lat="49.2102" lon="6.83222">
        <ele>194</ele>
        <time>2014-03-12T10:04:52Z</time>
      </trkpt>
      <trkpt lat="49.21016" lon="6.83231">
        <ele>192.8</ele>
        <time>2014-03-12T10:04:57Z</time>
      </trkpt>
      <trkpt lat="49.21011" lon="6.8324">
        <ele>193.2</ele>
        <time>2014-03-12T10:05:02Z</time>
      </trkpt>
      <trkpt lat="49.21008" lon="6.83249">
        <ele>193.4</ele>
        <time>2014-03-12T10:05:07Z</time>
      </trkpt>
      <trkpt lat="49.21005" lon="6.83257">
        <ele>193.4</ele>
        <time>2014-03-12T10:05:12Z</time>
      </trkpt>
      <trkpt lat="49.21" lon="6.83264">
        <ele>193.8</ele>
        <time>2014-03-12T10:05:17Z</time>
      </trkpt>
      <trkpt lat="49.20992" lon="6.83276">
        <ele>193.1</ele>
        <time>2014-03-12T10:05:27Z</time>
      </trkpt>
      <trkpt lat="49.20988" lon="6.83283">
        <ele>192.6</ele>
        <time>2014-03-12T10:05:32Z</time>
      </trkpt>
      <trkpt lat="49.20984" lon="6.8329">
        <ele>192.5</ele>
        <time>2014-03-12T10:05:37Z</time>
      </trkpt>
      <trkpt lat="49.2098" lon="6.83297">
        <ele>192.4</ele>
        <time>2014-03-12T10:05:42Z</time>
      </trkpt>
      <trkpt lat="49.20975" lon="6.83302">
        <ele>192.8</ele>
        <time>2014-03-12T10:05:47Z</time>
      </trkpt>
      <trkpt lat="49.20971" lon="6.83311">
        <ele>193.1</ele>
        <time>2014-03-12T10:05:52Z</time>
      </trkpt>
      <trkpt lat="49.20966" lon="6.83319">
        <ele>193</ele>
        <time>2014-03-12T10:05:57Z</time>
      </trkpt>
      <trkpt lat="49.20961" lon="6.83324">
        <ele>192.6</ele>
        <time>2014-03-12T10:06:02Z</time>
      </trkpt>
      <trkpt lat="49.20955" lon="6.83327">
        <ele>192.9</ele>
        <time>2014-03-12T10:06:07Z</time>
      </trkpt>
      <trkpt lat="49.2095" lon="6.83335">
        <ele>193.3</ele>
        <time>2014-03-12T10:06:12Z</time>
      </trkpt>
      <trkpt lat="49.20946" lon="6.83344">
        <ele>193.4</ele>
        <time>2014-03-12T10:06:17Z</time>
      </trkpt>
      <trkpt lat="49.20941" lon="6.83352">
        <ele>193</ele>
        <time>2014-03-12T10:06:22Z</time>
      </trkpt>
      <trkpt lat="49.20932" lon="6.83366">
        <ele>193.5</ele>
        <time>2014-03-12T10:06:32Z</time>
      </trkpt>
      <trkpt lat="49.20928" lon="6.83374">
        <ele>193.2</ele>
        <time>2014-03-12T10:06:37Z</time>
      </trkpt>
      <trkpt lat="49.20924" lon="6.83385">
        <ele>193.1</ele>
        <time>2014-03-12T10:06:42Z</time>
      </trkpt>
      <trkpt lat="49.2092" lon="6.83394">
        <ele>193.8</ele>
        <time>2014-03-12T10:06:47Z</time>
      </trkpt>
      <trkpt lat="49.20916" lon="6.83403">
        <ele>193.6</ele>
        <time>2014-03-12T10:06:52Z</time>
      </trkpt>
      <trkpt lat="49.20913" lon="6.8341">
        <ele>193.3</ele>
        <time>2014-03-12T10:06:57Z</time>
      </trkpt>
      <trkpt lat="49.20909" lon="6.83418">
        <ele>193.8</ele>
        <time>2014-03-12T10:07:02Z</time>
      </trkpt>
      <trkpt lat="49.20905" lon="6.83426">
        <ele>194</ele>
        <time>2014-03-12T10:07:07Z</time>
      </trkpt>
      <trkpt lat="49.20901" lon="6.83433">
        <ele>193.5</ele>
        <time>2014-03-12T10:07:12Z</time>
      </trkpt>
      <trkpt lat="49.20897" lon="6.8344">
        <ele>193.3</ele>
        <time>2014-03-12T10:07:17Z</time>
      </trkpt>
      <trkpt lat="49.20893" lon="6.83449">
        <ele>193.9</ele>
        <time>2014-03-12T10:07:22Z</time>
      </trkpt>
      <trkpt lat="49.20888" lon="6.83457">
        <ele>193</ele>
        <time>2014-03-12T10:07:27Z</time>
      </trkpt>
      <trkpt lat="49.2088" lon="6.83476">
        <ele>192.9</ele>
        <time>2014-03-12T10:07:37Z</time>
      </trkpt>
      <trkpt lat="49.20875" lon="6.83484">
        <ele>193.6</ele>
        <time>2014-03-12T10:07:42Z</time>
      </trkpt>
      <trkpt lat="49.20871" lon="6.83492">
        <ele>194</ele>
        <time>2014-03-12T10:07:47Z</time>
      </trkpt>
      <trkpt lat="49.20868" lon="6.83499">
        <ele>194.1</ele>
        <time>2014-03-12T10:07:52Z</time>
      </trkpt>
      <trkpt lat="49.20864" lon="6.83508">
        <ele>193.6</ele>
        <time>2014-03-12T10:07:57Z</time>
      </trkpt>
      <trkpt lat="49.20859" lon="6.83516">
        <ele>193.9</ele>
        <time>2014-03-12T10:08:02Z</time>
      </trkpt>
      <trkpt lat="49.20853" lon="6.83525">
        <ele>193.6</ele>
        <time>2014-03-12T10:08:07Z</time>
      </trkpt>
      <trkpt lat="49.20849" lon="6.83534">
        <ele>193.7</ele>
        <time>2014-03-12T10:08:12Z</time>
      </trkpt>
      <trkpt lat="49.20844" lon="6.83543">
        <ele>193.4</ele>
        <time>2014-03-12T10:08:17Z</time>
      </trkpt>
      <trkpt lat="49.2084" lon="6.83551">
        <ele>194</ele>
        <time>2014-03-12T10:08:22Z</time>
      </trkpt>
      <trkpt lat="49.20835" lon="6.83558">
        <ele>194.4</ele>
        <time>2014-03-12T10:08:27Z</time>
      </trkpt>
      <trkpt lat="49.20831" lon="6.83565">
        <ele>193.2</ele>
        <time>2014-03-12T10:08:32Z</time>
      </trkpt>
      <trkpt lat="49.20822" lon="6.83583">
        <ele>193.3</ele>
        <time>2014-03-12T10:08:42Z</time>
      </trkpt>
      <trkpt lat="49.20817" lon="6.83592">
        <ele>193.1</ele>
        <time>2014-03-12T10:08:47Z</time>
      </trkpt>
      <trkpt lat="49.20812" lon="6.83601">
        <ele>192.1</ele>
        <time>2014-03-12T10:08:52Z</time>
      </trkpt>
      <trkpt lat="49.20808" lon="6.83609">
        <ele>192.1</ele>
        <time>2014-03-12T10:08:57Z</time>
      </trkpt>
      <trkpt lat="49.20803" lon="6.83615">
        <ele>192.3</ele>
        <time>2014-03-12T10:09:02Z</time>
      </trkpt>
      <trkpt lat="49.20798" lon="6.83619">
        <ele>192.5</ele>
        <time>2014-03-12T10:09:07Z</time>
      </trkpt>
      <trkpt lat="49.20793" lon="6.83627">
        <ele>192.6</ele>
        <time>2014-03-12T10:09:12Z</time>
      </trkpt>
      <trkpt lat="49.20789" lon="6.83635">
        <ele>192.5</ele>
        <time>2014-03-12T10:09:17Z</time>
      </trkpt>
      <trkpt lat="49.20785" lon="6.8364">
        <ele>192.6</ele>
        <time>2014-03-12T10:09:22Z</time>
      </trkpt>
      <trkpt lat="49.20781" lon="6.83649">
        <ele>193.5</ele>
        <time>2014-03-12T10:09:27Z</time>
      </trkpt>
      <trkpt lat="49.20777" lon="6.83656">
        <ele>193</ele>
        <time>2014-03-12T10:09:32Z</time>
      </trkpt>
      <trkpt lat="49.20773" lon="6.83663">
        <ele>193.1</ele>
        <time>2014-03-12T10:09:37Z</time>
      </trkpt>
      <trkpt lat="49.20763" lon="6.83678">
        <ele>192.8</ele>
        <time>2014-03-12T10:09:47Z</time>
      </trkpt>
      <trkpt lat="49.20758" lon="6.83684">
        <ele>192.8</ele>
        <time>2014-03-12T10:09:52Z</time>
      </trkpt>
      <trkpt lat="49.20753" lon="6.8369">
        <ele>192.4</ele>
        <time>2014-03-12T10:09:57Z</time>
      </trkpt>
      <trkpt lat="49.20749" lon="6.83697">
        <ele>192.4</ele>
        <time>2014-03-12T10:10:02Z</time>
      </trkpt>
      <trkpt lat="49.20746" lon="6.83704">
        <ele>193</ele>
        <time>2014-03-12T10:10:07Z</time>
      </trkpt>
      <trkpt lat="49.20743" lon="6.83707">
        <ele>193.7</ele>
        <time>2014-03-12T10:10:12Z</time>
      </trkpt>
      <trkpt lat="49.20739" lon="6.83714">
        <ele>193.4</ele>
        <time>2014-03-12T10:10:17Z</time>
      </trkpt>
      <trkpt lat="49.20735" lon="6.83723">
        <ele>192.3</ele>
        <time>2014-03-12T10:10:22Z</time>
      </trkpt>
      <trkpt lat="49.20731" lon="6.83732">
        <ele>191.8</ele>
        <time>2014-03-12T10:10:27Z</time>
      </trkpt>
      <trkpt lat="49.20728" lon="6.83738">
        <ele>193.1</ele>
        <time>2014-03-12T10:10:32Z</time>
      </trkpt>
      <trkpt lat="49.20723" lon="6.83743">
        <ele>192.8</ele>
        <time>2014-03-12T10:10:37Z</time>
      </trkpt>
      <trkpt lat="49.20721" lon="6.83751">
        <ele>193.6</ele>
        <time>2014-03-12T10:10:42Z</time>
      </trkpt>
      <trkpt lat="49.20715" lon="6.83763">
        <ele>194</ele>
        <time>2014-03-12T10:10:52Z</time>
      </trkpt>
      <trkpt lat="49.2071" lon="6.83773">
        <ele>193.5</ele>
        <time>2014-03-12T10:10:57Z</time>
      </trkpt>
      <trkpt lat="49.20704" lon="6.83783">
        <ele>194</ele>
        <time>2014-03-12T10:11:02Z</time>
      </trkpt>
      <trkpt lat="49.207" lon="6.83791">
        <ele>194.1</ele>
        <time>2014-03-12T10:11:07Z</time>
      </trkpt>
      <trkpt lat="49.20696" lon="6.83801">
        <ele>194.3</ele>
        <time>2014-03-12T10:11:12Z</time>
      </trkpt>
      <trkpt lat="49.20691" lon="6.83812">
        <ele>193.7</ele>
        <time>2014-03-12T10:11:17Z</time>
      </trkpt>
      <trkpt lat="49.20687" lon="6.83822">
        <ele>194.6</ele>
        <time>2014-03-12T10:11:22Z</time>
      </trkpt>
      <trkpt lat="49.20684" lon="6.83832">
        <ele>194.7</ele>
        <time>2014-03-12T10:11:27Z</time>
      </trkpt>
      <trkpt lat="49.20681" lon="6.83838">
        <ele>195.1</ele>
        <time>2014-03-12T10:11:32Z</time>
      </trkpt>
      <trkpt lat="49.20678" lon="6.83845">
        <ele>195</ele>
        <time>2014-03-12T10:11:37Z</time>
      </trkpt>
      <trkpt lat="49.20675" lon="6.83853">
        <ele>195</ele>
        <time>2014-03-12T10:11:42Z</time>
      </trkpt>
      <trkpt lat="49.20672" lon="6.83862">
        <ele>194.4</ele>
        <time>2014-03-12T10:11:47Z</time>
      </trkpt>
      <trkpt lat="49.20667" lon="6.83879">
        <ele>195.3</ele>
        <time>2014-03-12T10:11:57Z</time>
      </trkpt>
      <trkpt lat="49.20664" lon="6.83887">
        <ele>195.5</ele>
        <time>2014-03-12T10:12:02Z</time>
      </trkpt>
      <trkpt lat="49.2066" lon="6.83895">
        <ele>195.5</ele>
        <time>2014-03-12T10:12:07Z</time>
      </trkpt>
      <trkpt lat="49.20656" lon="6.83905">
        <ele>195.4</ele>
        <time>2014-03-12T10:12:12Z</time>
      </trkpt>
      <trkpt lat="49.20655" lon="6.83913">
        <ele>195.2</ele>
        <time>2014-03-12T10:12:17Z</time>
      </trkpt>
      <trkpt lat="49.20652" lon="6.83921">
        <ele>194.3</ele>
        <time>2014-03-12T10:12:22Z</time>
      </trkpt>
      <trkpt lat="49.20649" lon="6.83928">
        <ele>193.7</ele>
        <time>2014-03-12T10:12:27Z</time>
      </trkpt>
      <trkpt lat="49.20647" lon="6.83934">
        <ele>194.3</ele>
        <time>2014-03-12T10:12:32Z</time>
      </trkpt>
      <trkpt lat="49.20645" lon="6.83939">
        <ele>194.6</ele>
        <time>2014-03-12T10:12:37Z</time>
      </trkpt>
      <trkpt lat="49.20644" lon="6.83944">
        <ele>194.7</ele>
        <time>2014-03-12T10:12:42Z</time>
      </trkpt>
      <trkpt lat="49.20642" lon="6.8395">
        <ele>194.4</ele>
        <time>2014-03-12T10:12:47Z</time>
      </trkpt>
      <trkpt lat="49.20639" lon="6.83957">
        <ele>193.5</ele>
        <time>2014-03-12T10:12:52Z</time>
      </trkpt>
      <trkpt lat="49.20634" lon="6.8397">
        <ele>193.6</ele>
        <time>2014-03-12T10:13:02Z</time>
      </trkpt>
      <trkpt lat="49.20632" lon="6.83975">
        <ele>193.7</ele>
        <time>2014-03-12T10:13:07Z</time>
      </trkpt>
      <trkpt lat="49.20629" lon="6.83979">
        <ele>194</ele>
        <time>2014-03-12T10:13:12Z</time>
      </trkpt>
      <trkpt lat="49.20628" lon="6.83983">
        <ele>193.1</ele>
        <time>2014-03-12T10:13:17Z</time>
      </trkpt>
      <trkpt lat="49.20624" lon="6.8399">
        <ele>193.1</ele>
        <time>2014-03-12T10:13:22Z</time>
      </trkpt>
      <trkpt lat="49.20623" lon="6.83999">
        <ele>192.3</ele>
        <time>2014-03-12T10:13:27Z</time>
      </trkpt>
      <trkpt lat="49.20621" lon="6.84009">
        <ele>192.4</ele>
        <time>2014-03-12T10:13:32Z</time>
      </trkpt>
      <trkpt lat="49.20622" lon="6.84021">
        <ele>192.1</ele>
        <time>2014-03-12T10:13:37Z</time>
      </trkpt>
      <trkpt lat="49.20621" lon="6.84032">
        <ele>191.1</ele>
        <time>2014-03-12T10:13:42Z</time>
      </trkpt>
      <trkpt lat="49.20619" lon="6.84042">
        <ele>191</ele>
        <time>2014-03-12T10:13:47Z</time>
      </trkpt>
      <trkpt lat="49.20616" lon="6.84049">
        <ele>189.6</ele>
        <time>2014-03-12T10:13:52Z</time>
      </trkpt>
      <trkpt lat="49.20612" lon="6.84057">
        <ele>190.9</ele>
        <time>2014-03-12T10:13:57Z</time>
      </trkpt>
      <trkpt lat="49.20607" lon="6.84073">
        <ele>190.9</ele>
        <time>2014-03-12T10:14:07Z</time>
      </trkpt>
      <trkpt lat="49.20604" lon="6.84085">
        <ele>190.9</ele>
        <time>2014-03-12T10:14:12Z</time>
      </trkpt>
      <trkpt lat="49.20602" lon="6.84096">
        <ele>191.5</ele>
        <time>2014-03-12T10:14:17Z</time>
      </trkpt>
      <trkpt lat="49.20602" lon="6.84104">
        <ele>191.8</ele>
        <time>2014-03-12T10:14:22Z</time>
      </trkpt>
      <trkpt lat="49.206" lon="6.84113">
        <ele>191.9</ele>
        <time>2014-03-12T10:14:27Z</time>
      </trkpt>
      <trkpt lat="49.20598" lon="6.84123">
        <ele>192</ele>
        <time>2014-03-12T10:14:32Z</time>
      </trkpt>
      <trkpt lat="49.20595" lon="6.84132">
        <ele>189.9</ele>
        <time>2014-03-12T10:14:37Z</time>
      </trkpt>
      <trkpt lat="49.20592" lon="6.84138">
        <ele>190.3</ele>
        <time>2014-03-12T10:14:42Z</time>
      </trkpt>
      <trkpt lat="49.20588" lon="6.84145">
        <ele>191</ele>
        <time>2014-03-12T10:14:47Z</time>
      </trkpt>
      <trkpt lat="49.20583" lon="6.84152">
        <ele>190.2</ele>
        <time>2014-03-12T10:14:52Z</time>
      </trkpt>
      <trkpt lat="49.20577" lon="6.84157">
        <ele>190.4</ele>
        <time>2014-03-12T10:14:57Z</time>
      </trkpt>
      <trkpt lat="49.2057" lon="6.84165">
        <ele>189.2</ele>
        <time>2014-03-12T10:15:02Z</time>
      </trkpt>
      <trkpt lat="49.20559" lon="6.84183">
        <ele>190.7</ele>
        <time>2014-03-12T10:15:12Z</time>
      </trkpt>
      <trkpt lat="49.20556" lon="6.84194">
        <ele>189.8</ele>
        <time>2014-03-12T10:15:17Z</time>
      </trkpt>
      <trkpt lat="49.20553" lon="6.84207">
        <ele>189.1</ele>
        <time>2014-03-12T10:15:22Z</time>
      </trkpt>
      <trkpt lat="49.20551" lon="6.84219">
        <ele>189.6</ele>
        <time>2014-03-12T10:15:27Z</time>
      </trkpt>
      <trkpt lat="49.2055" lon="6.84231">
        <ele>188.5</ele>
        <time>2014-03-12T10:15:32Z</time>
      </trkpt>
      <trkpt lat="49.20547" lon="6.84242">
        <ele>190</ele>
        <time>2014-03-12T10:15:37Z</time>
      </trkpt>
      <trkpt lat="49.20545" lon="6.84252">
        <ele>189.7</ele>
        <time>2014-03-12T10:15:42Z</time>
      </trkpt>
      <trkpt lat="49.20542" lon="6.8426">
        <ele>189.6</ele>
        <time>2014-03-12T10:15:47Z</time>
      </trkpt>
      <trkpt lat="49.2054" lon="6.84268">
        <ele>190.2</ele>
        <time>2014-03-12T10:15:52Z</time>
      </trkpt>
      <trkpt lat="49.20539" lon="6.84277">
        <ele>190.3</ele>
        <time>2014-03-12T10:15:57Z</time>
      </trkpt>
      <trkpt lat="49.20542" lon="6.84286">
        <ele>189.8</ele>
        <time>2014-03-12T10:16:02Z</time>
      </trkpt>
      <trkpt lat="49.20544" lon="6.84296">
        <ele>190</ele>
        <time>2014-03-12T10:16:07Z</time>
      </trkpt>
      <trkpt lat="49.20549" lon="6.84309">
        <ele>188.7</ele>
        <time>2014-03-12T10:16:17Z</time>
      </trkpt>
      <trkpt lat="49.20548" lon="6.84318">
        <ele>188.9</ele>
        <time>2014-03-12T10:16:22Z</time>
      </trkpt>
      <trkpt lat="49.20547" lon="6.84326">
        <ele>189</ele>
        <time>2014-03-12T10:16:27Z</time>
      </trkpt>
      <trkpt lat="49.20546" lon="6.84333">
        <ele>189.9</ele>
        <time>2014-03-12T10:16:32Z</time>
      </trkpt>
      <trkpt lat="49.20544" lon="6.84342">
        <ele>189.3</ele>
        <time>2014-03-12T10:16:37Z</time>
      </trkpt>
      <trkpt lat="49.20542" lon="6.84352">
        <ele>188.9</ele>
        <time>2014-03-12T10:16:42Z</time>
      </trkpt>
      <trkpt lat="49.20539" lon="6.84362">
        <ele>189.8</ele>
        <time>2014-03-12T10:16:47Z</time>
      </trkpt>
      <trkpt lat="49.20536" lon="6.84369">
        <ele>189.7</ele>
        <time>2014-03-12T10:16:52Z</time>
      </trkpt>
      <trkpt lat="49.20533" lon="6.84379">
        <ele>190</ele>
        <time>2014-03-12T10:16:57Z</time>
      </trkpt>
      <trkpt lat="49.2053" lon="6.84388">
        <ele>189.9</ele>
        <time>2014-03-12T10:17:02Z</time>
      </trkpt>
      <trkpt lat="49.20528" lon="6.84394">
        <ele>190.2</ele>
        <time>2014-03-12T10:17:07Z</time>
      </trkpt>
      <trkpt lat="49.20525" lon="6.84404">
        <ele>188.7</ele>
        <time>2014-03-12T10:17:12Z</time>
      </trkpt>
      <trkpt lat="49.20518" lon="6.84425">
        <ele>190.9</ele>
        <time>2014-03-12T10:17:22Z</time>
      </trkpt>
      <trkpt lat="49.20516" lon="6.84434">
        <ele>190.5</ele>
        <time>2014-03-12T10:17:27Z</time>
      </trkpt>
      <trkpt lat="49.20512" lon="6.84444">
        <ele>189.9</ele>
        <time>2014-03-12T10:17:32Z</time>
      </trkpt>
      <trkpt lat="49.20508" lon="6.84452">
        <ele>190.1</ele>
        <time>2014-03-12T10:17:37Z</time>
      </trkpt>
      <trkpt lat="49.20503" lon="6.8446">
        <ele>190.3</ele>
        <time>2014-03-12T10:17:42Z</time>
      </trkpt>
      <trkpt lat="49.20499" lon="6.84467">
        <ele>190.8</ele>
        <time>2014-03-12T10:17:47Z</time>
      </trkpt>
      <trkpt lat="49.20495" lon="6.84475">
        <ele>190.8</ele>
        <time>2014-03-12T10:17:52Z</time>
      </trkpt>
      <trkpt lat="49.2049" lon="6.84483">
        <ele>190</ele>
        <time>2014-03-12T10:17:57Z</time>
      </trkpt>
      <trkpt lat="49.20486" lon="6.84491">
        <ele>190.5</ele>
        <time>2014-03-12T10:18:02Z</time>
      </trkpt>
      <trkpt lat="49.20482" lon="6.845">
        <ele>191.2</ele>
        <time>2014-03-12T10:18:07Z</time>
      </trkpt>
      <trkpt lat="49.20478" lon="6.84506">
        <ele>190.6</ele>
        <time>2014-03-12T10:18:12Z</time>
      </trkpt>
      <trkpt lat="49.20477" lon="6.84507">
        <ele>190.2</ele>
        <time>2014-03-12T10:18:17Z</time>
      </trkpt>
      <trkpt lat="49.20473" lon="6.84507">
        <ele>190.7</ele>
        <time>2014-03-12T10:18:27Z</time>
      </trkpt>
      <trkpt lat="49.20472" lon="6.84508">
        <ele>191.2</ele>
        <time>2014-03-12T10:18:32Z</time>
      </trkpt>
      <trkpt lat="49.20471" lon="6.8451">
        <ele>192</ele>
        <time>2014-03-12T10:18:37Z</time>
      </trkpt>
      <trkpt lat="49.20469" lon="6.84516">
        <ele>192.6</ele>
        <time>2014-03-12T10:18:42Z</time>
      </trkpt>
      <trkpt lat="49.20467" lon="6.84523">
        <ele>191.5</ele>
        <time>2014-03-12T10:18:47Z</time>
      </trkpt>
      <trkpt lat="49.20465" lon="6.84528">
        <ele>190.6</ele>
        <time>2014-03-12T10:18:52Z</time>
      </trkpt>
      <trkpt lat="49.20461" lon="6.84535">
        <ele>191.7</ele>
        <time>2014-03-12T10:18:57Z</time>
      </trkpt>
      <trkpt lat="49.20458" lon="6.84541">
        <ele>192</ele>
        <time>2014-03-12T10:19:02Z</time>
      </trkpt>
      <trkpt lat="49.20455" lon="6.84546">
        <ele>192.6</ele>
        <time>2014-03-12T10:19:07Z</time>
      </trkpt>
      <trkpt lat="49.20451" lon="6.84552">
        <ele>190.7</ele>
        <time>2014-03-12T10:19:12Z</time>
      </trkpt>
      <trkpt lat="49.20448" lon="6.84558">
        <ele>190.1</ele>
        <time>2014-03-12T10:19:17Z</time>
      </trkpt>
      <trkpt lat="49.20444" lon="6.84565">
        <ele>191</ele>
        <time>2014-03-12T10:19:22Z</time>
      </trkpt>
      <trkpt lat="49.20436" lon="6.84579">
        <ele>191</ele>
        <time>2014-03-12T10:19:32Z</time>
      </trkpt>
      <trkpt lat="49.20431" lon="6.84587">
        <ele>191.2</ele>
        <time>2014-03-12T10:19:37Z</time>
      </trkpt>
      <trkpt lat="49.20426" lon="6.84594">
        <ele>191.1</ele>
        <time>2014-03-12T10:19:42Z</time>
      </trkpt>
      <trkpt lat="49.20422" lon="6.84602">
        <ele>191.8</ele>
        <time>2014-03-12T10:19:47Z</time>
      </trkpt>
      <trkpt lat="49.20418" lon="6.84608">
        <ele>192.4</ele>
        <time>2014-03-12T10:19:52Z</time>
      </trkpt>
      <trkpt lat="49.20413" lon="6.84615">
        <ele>191.8</ele>
        <time>2014-03-12T10:19:57Z</time>
      </trkpt>
      <trkpt lat="49.2041" lon="6.8462">
        <ele>192.9</ele>
        <time>2014-03-12T10:20:02Z</time>
      </trkpt>
      <trkpt lat="49.20408" lon="6.84623">
        <ele>193.2</ele>
        <time>2014-03-12T10:20:07Z</time>
      </trkpt>
      <trkpt lat="49.20406" lon="6.84626">
        <ele>191.7</ele>
        <time>2014-03-12T10:20:12Z</time>
      </trkpt>
      <trkpt lat="49.20406" lon="6.84627">
        <ele>192.5</ele>
        <time>2014-03-12T10:20:17Z</time>
      </trkpt>
      <trkpt lat="49.20406" lon="6.84629">
        <ele>194.8</ele>
        <time>2014-03-12T10:20:22Z</time>
      </trkpt>
      <trkpt lat="49.20405" lon="6.84631">
        <ele>195</ele>
        <time>2014-03-12T10:20:27Z</time>
      </trkpt>
      <trkpt lat="49.20405" lon="6.84636">
        <ele>195.9</ele>
        <time>2014-03-12T10:20:37Z</time>
      </trkpt>
      <trkpt lat="49.20405" lon="6.84639">
        <ele>195.9</ele>
        <time>2014-03-12T10:20:42Z</time>
      </trkpt>
      <trkpt lat="49.20405" lon="6.84641">
        <ele>195.9</ele>
        <time>2014-03-12T10:20:47Z</time>
      </trkpt>
      <trkpt lat="49.20405" lon="6.84643">
        <ele>195.6</ele>
        <time>2014-03-12T10:20:52Z</time>
      </trkpt>
      <trkpt lat="49.20405" lon="6.84646">
        <ele>196.3</ele>
        <time>2014-03-12T10:20:57Z</time>
      </trkpt>
      <trkpt lat="49.20406" lon="6.84647">
        <ele>197.2</ele>
        <time>2014-03-12T10:21:02Z</time>
      </trkpt>
      <trkpt lat="49.20407" lon="6.84647">
        <ele>196.6</ele>
        <time>2014-03-12T10:21:07Z</time>
      </trkpt>
      <trkpt lat="49.20408" lon="6.84649">
        <ele>194.8</ele>
        <time>2014-03-12T10:21:12Z</time>
      </trkpt>
      <trkpt lat="49.20409" lon="6.8465">
        <ele>192.9</ele>
        <time>2014-03-12T10:21:17Z</time>
      </trkpt>
      <trkpt lat="49.20409" lon="6.8465">
        <ele>193.4</ele>
        <time>2014-03-12T10:21:22Z</time>
      </trkpt>
      <trkpt lat="49.20409" lon="6.8465">
        <ele>193</ele>
        <time>2014-03-12T10:21:27Z</time>
      </trkpt>
      <trkpt lat="49.20409" lon="6.84651">
        <ele>193.5</ele>
        <time>2014-03-12T10:21:32Z</time>
      </trkpt>
      <trkpt lat="49.2041" lon="6.84655">
        <ele>193.8</ele>
        <time>2014-03-12T10:21:42Z</time>
      </trkpt>
      <trkpt lat="49.2041" lon="6.84656">
        <ele>193.6</ele>
        <time>2014-03-12T10:21:47Z</time>
      </trkpt>
      <trkpt lat="49.20411" lon="6.84657">
        <ele>192.7</ele>
        <time>2014-03-12T10:21:52Z</time>
      </trkpt>
      <trkpt lat="49.20412" lon="6.84659">
        <ele>192.4</ele>
        <time>2014-03-12T10:21:57Z</time>
      </trkpt>
      <trkpt lat="49.2041" lon="6.84661">
        <ele>192.3</ele>
        <time>2014-03-12T10:22:02Z</time>
      </trkpt>
      <trkpt lat="49.20407" lon="6.84665">
        <ele>192.4</ele>
        <time>2014-03-12T10:22:07Z</time>
      </trkpt>
      <trkpt lat="49.20404" lon="6.84667">
        <ele>193</ele>
        <time>2014-03-12T10:22:12Z</time>
      </trkpt>
      <trkpt lat="49.20401" lon="6.84671">
        <ele>194.2</ele>
        <time>2014-03-12T10:22:17Z</time>
      </trkpt>
      <trkpt lat="49.20397" lon="6.84675">
        <ele>194.2</ele>
        <time>2014-03-12T10:22:22Z</time>
      </trkpt>
      <trkpt lat="49.20392" lon="6.84681">
        <ele>194.3</ele>
        <time>2014-03-12T10:22:27Z</time>
      </trkpt>
      <trkpt lat="49.20388" lon="6.84685">
        <ele>194.8</ele>
        <time>2014-03-12T10:22:32Z</time>
      </trkpt>
      <trkpt lat="49.20384" lon="6.8469">
        <ele>194.3</ele>
        <time>2014-03-12T10:22:37Z</time>
      </trkpt>
      <trkpt lat="49.20375" lon="6.847">
        <ele>193.7</ele>
        <time>2014-03-12T10:22:47Z</time>
      </trkpt>
      <trkpt lat="49.2037" lon="6.84706">
        <ele>193.8</ele>
        <time>2014-03-12T10:22:52Z</time>
      </trkpt>
      <trkpt lat="49.20365" lon="6.84712">
        <ele>195.2</ele>
        <time>2014-03-12T10:22:57Z</time>
      </trkpt>
      <trkpt lat="49.20359" lon="6.84719">
        <ele>194.8</ele>
        <time>2014-03-12T10:23:02Z</time>
      </trkpt>
      <trkpt lat="49.20354" lon="6.84725">
        <ele>194.8</ele>
        <time>2014-03-12T10:23:07Z</time>
      </trkpt>
      <trkpt lat="49.20349" lon="6.84731">
        <ele>194.2</ele>
        <time>2014-03-12T10:23:12Z</time>
      </trkpt>
      <trkpt lat="49.20345" lon="6.84735">
        <ele>194.7</ele>
        <time>2014-03-12T10:23:17Z</time>
      </trkpt>
      <trkpt lat="49.20342" lon="6.84738">
        <ele>194</ele>
        <time>2014-03-12T10:23:22Z</time>
      </trkpt>
      <trkpt lat="49.20338" lon="6.84742">
        <ele>194.5</ele>
        <time>2014-03-12T10:23:27Z</time>
      </trkpt>
      <trkpt lat="49.20334" lon="6.84746">
        <ele>193.8</ele>
        <time>2014-03-12T10:23:32Z</time>
      </trkpt>
      <trkpt lat="49.20329" lon="6.84751">
        <ele>194.1</ele>
        <time>2014-03-12T10:23:37Z</time>
      </trkpt>
      <trkpt lat="49.20324" lon="6.84755">
        <ele>193.8</ele>
        <time>2014-03-12T10:23:42Z</time>
      </trkpt>
      <trkpt lat="49.20314" lon="6.84763">
        <ele>193</ele>
        <time>2014-03-12T10:23:52Z</time>
      </trkpt>
      <trkpt lat="49.20308" lon="6.84768">
        <ele>193.2</ele>
        <time>2014-03-12T10:23:57Z</time>
      </trkpt>
      <trkpt lat="49.20302" lon="6.84774">
        <ele>193.4</ele>
        <time>2014-03-12T10:24:02Z</time>
      </trkpt>
      <trkpt lat="49.20296" lon="6.8478">
        <ele>192.3</ele>
        <time>2014-03-12T10:24:07Z</time>
      </trkpt>
      <trkpt lat="49.2029" lon="6.84785">
        <ele>192</ele>
        <time>2014-03-12T10:24:12Z</time>
      </trkpt>
      <trkpt lat="49.20286" lon="6.84791">
        <ele>192.6</ele>
        <time>2014-03-12T10:24:17Z</time>
      </trkpt>
      <trkpt lat="49.2028" lon="6.84797">
        <ele>192.1</ele>
        <time>2014-03-12T10:24:22Z</time>
      </trkpt>
      <trkpt lat="49.20275" lon="6.84802">
        <ele>192.1</ele>
        <time>2014-03-12T10:24:27Z</time>
      </trkpt>
      <trkpt lat="49.20269" lon="6.84807">
        <ele>191.5</ele>
        <time>2014-03-12T10:24:32Z</time>
      </trkpt>
      <trkpt lat="49.20263" lon="6.84811">
        <ele>192.3</ele>
        <time>2014-03-12T10:24:37Z</time>
      </trkpt>
      <trkpt lat="49.20258" lon="6.84816">
        <ele>191.9</ele>
        <time>2014-03-12T10:24:42Z</time>
      </trkpt>
      <trkpt lat="49.20252" lon="6.8482">
        <ele>191.8</ele>
        <time>2014-03-12T10:24:47Z</time>
      </trkpt>
      <trkpt lat="49.20241" lon="6.84828">
        <ele>191.9</ele>
        <time>2014-03-12T10:24:57Z</time>
      </trkpt>
      <trkpt lat="49.20234" lon="6.84832">
        <ele>193</ele>
        <time>2014-03-12T10:25:02Z</time>
      </trkpt>
      <trkpt lat="49.20228" lon="6.84834">
        <ele>192.5</ele>
        <time>2014-03-12T10:25:07Z</time>
      </trkpt>
      <trkpt lat="49.20221" lon="6.84839">
        <ele>192.8</ele>
        <time>2014-03-12T10:25:12Z</time>
      </trkpt>
      <trkpt lat="49.20214" lon="6.84843">
        <ele>192.7</ele>
        <time>2014-03-12T10:25:17Z</time>
      </trkpt>
      <trkpt lat="49.20207" lon="6.84847">
        <ele>192.6</ele>
        <time>2014-03-12T10:25:22Z</time>
      </trkpt>
      <trkpt lat="49.20201" lon="6.84851">
        <ele>192.3</ele>
        <time>2014-03-12T10:25:27Z</time>
      </trkpt>
      <trkpt lat="49.20194" lon="6.84856">
        <ele>192</ele>
        <time>2014-03-12T10:25:32Z</time>
      </trkpt>
      <trkpt lat="49.20188" lon="6.84859">
        <ele>192.5</ele>
        <time>2014-03-12T10:25:37Z</time>
      </trkpt>
      <trkpt lat="49.20181" lon="6.84863">
        <ele>193.2</ele>
        <time>2014-03-12T10:25:42Z</time>
      </trkpt>
      <trkpt lat="49.20175" lon="6.84866">
        <ele>193.5</ele>
        <time>2014-03-12T10:25:47Z</time>
      </trkpt>
      <trkpt lat="49.20169" lon="6.8487">
        <ele>193.6</ele>
        <time>2014-03-12T10:25:52Z</time>
      </trkpt>
      <trkpt lat="49.20157" lon="6.84879">
        <ele>193.7</ele>
        <time>2014-03-12T10:26:02Z</time>
      </trkpt>
      <trkpt lat="49.2015" lon="6.84883">
        <ele>194.3</ele>
        <time>2014-03-12T10:26:07Z</time>
      </trkpt>
      <trkpt lat="49.20144" lon="6.84885">
        <ele>193.2</ele>
        <time>2014-03-12T10:26:12Z</time>
      </trkpt>
      <trkpt lat="49.20139" lon="6.84889">
        <ele>193.9</ele>
        <time>2014-03-12T10:26:17Z</time>
      </trkpt>
      <trkpt lat="49.20134" lon="6.84892">
        <ele>194.2</ele>
        <time>2014-03-12T10:26:22Z</time>
      </trkpt>
      <trkpt lat="49.20128" lon="6.84897">
        <ele>193.7</ele>
        <time>2014-03-12T10:26:27Z</time>
      </trkpt>
      <trkpt lat="49.20121" lon="6.84901">
        <ele>193.4</ele>
        <time>2014-03-12T10:26:32Z</time>
      </trkpt>
      <trkpt lat="49.20115" lon="6.84906">
        <ele>193.4</ele>
        <time>2014-03-12T10:26:37Z</time>
      </trkpt>
      <trkpt lat="49.20108" lon="6.8491">
        <ele>193.2</ele>
        <time>2014-03-12T10:26:42Z</time>
      </trkpt>
      <trkpt lat="49.20104" lon="6.84915">
        <ele>193.4</ele>
        <time>2014-03-12T10:26:47Z</time>
      </trkpt>
      <trkpt lat="49.20098" lon="6.84919">
        <ele>192.9</ele>
        <time>2014-03-12T10:26:52Z</time>
      </trkpt>
      <trkpt lat="49.20091" lon="6.84924">
        <ele>192.1</ele>
        <time>2014-03-12T10:26:57Z</time>
      </trkpt>
      <trkpt lat="49.20077" lon="6.84932">
        <ele>192.5</ele>
        <time>2014-03-12T10:27:07Z</time>
      </trkpt>
      <trkpt lat="49.2007" lon="6.84936">
        <ele>192.3</ele>
        <time>2014-03-12T10:27:12Z</time>
      </trkpt>
      <trkpt lat="49.20065" lon="6.84938">
        <ele>192.5</ele>
        <time>2014-03-12T10:27:17Z</time>
      </trkpt>
      <trkpt lat="49.20061" lon="6.84941">
        <ele>192.1</ele>
        <time>2014-03-12T10:27:22Z</time>
      </trkpt>
      <trkpt lat="49.20055" lon="6.84942">
        <ele>192.8</ele>
        <time>2014-03-12T10:27:27Z</time>
      </trkpt>
      <trkpt lat="49.20049" lon="6.84944">
        <ele>192.7</ele>
        <time>2014-03-12T10:27:32Z</time>
      </trkpt>
      <trkpt lat="49.20042" lon="6.84947">
        <ele>192.9</ele>
        <time>2014-03-12T10:27:37Z</time>
      </trkpt>
      <trkpt lat="49.20035" lon="6.84949">
        <ele>192.5</ele>
        <time>2014-03-12T10:27:42Z</time>
      </trkpt>
      <trkpt lat="49.20028" lon="6.84951">
        <ele>192.8</ele>
        <time>2014-03-12T10:27:47Z</time>
      </trkpt>
      <trkpt lat="49.20023" lon="6.84954">
        <ele>192.7</ele>
        <time>2014-03-12T10:27:52Z</time>
      </trkpt>
      <trkpt lat="49.20017" lon="6.84956">
        <ele>192.1</ele>
        <time>2014-03-12T10:27:57Z</time>
      </trkpt>
      <trkpt lat="49.20011" lon="6.84958">
        <ele>192</ele>
        <time>2014-03-12T10:28:02Z</time>
      </trkpt>
      <trkpt lat="49.19997" lon="6.8496">
        <ele>192.3</ele>
        <time>2014-03-12T10:28:12Z</time>
      </trkpt>
      <trkpt lat="49.19992" lon="6.84962">
        <ele>193.3</ele>
        <time>2014-03-12T10:28:17Z</time>
      </trkpt>
      <trkpt lat="49.19986" lon="6.84963">
        <ele>192.7</ele>
        <time>2014-03-12T10:28:22Z</time>
      </trkpt>
      <trkpt lat="49.1998" lon="6.84964">
        <ele>192.6</ele>
        <time>2014-03-12T10:28:27Z</time>
      </trkpt>
      <trkpt lat="49.19973" lon="6.84966">
        <ele>192.5</ele>
        <time>2014-03-12T10:28:32Z</time>
      </trkpt>
      <trkpt lat="49.19967" lon="6.84968">
        <ele>191.9</ele>
        <time>2014-03-12T10:28:37Z</time>
      </trkpt>
      <trkpt lat="49.19961" lon="6.84969">
        <ele>192.7</ele>
        <time>2014-03-12T10:28:42Z</time>
      </trkpt>
      <trkpt lat="49.19954" lon="6.8497">
        <ele>191.7</ele>
        <time>2014-03-12T10:28:47Z</time>
      </trkpt>
      <trkpt lat="49.19947" lon="6.8497">
        <ele>193</ele>
        <time>2014-03-12T10:28:52Z</time>
      </trkpt>
      <trkpt lat="49.1994" lon="6.8497">
        <ele>191.7</ele>
        <time>2014-03-12T10:28:57Z</time>
      </trkpt>
      <trkpt lat="49.19933" lon="6.8497">
        <ele>192.3</ele>
        <time>2014-03-12T10:29:02Z</time>
      </trkpt>
      <trkpt lat="49.19926" lon="6.84969">
        <ele>192.1</ele>
        <time>2014-03-12T10:29:07Z</time>
      </trkpt>
      <trkpt lat="49.19911" lon="6.8497">
        <ele>192.1</ele>
        <time>2014-03-12T10:29:17Z</time>
      </trkpt>
      <trkpt lat="49.19904" lon="6.8497">
        <ele>192.1</ele>
        <time>2014-03-12T10:29:22Z</time>
      </trkpt>
      <trkpt lat="49.19898" lon="6.84969">
        <ele>192.1</ele>
        <time>2014-03-12T10:29:27Z</time>
      </trkpt>
      <trkpt lat="49.19891" lon="6.84967">
        <ele>191.6</ele>
        <time>2014-03-12T10:29:32Z</time>
      </trkpt>
      <trkpt lat="49.19885" lon="6.84967">
        <ele>191.2</ele>
        <time>2014-03-12T10:29:37Z</time>
      </trkpt>
      <trkpt lat="49.19879" lon="6.84966">
        <ele>192.4</ele>
        <time>2014-03-12T10:29:42Z</time>
      </trkpt>
      <trkpt lat="49.19872" lon="6.84964">
        <ele>191.7</ele>
        <time>2014-03-12T10:29:47Z</time>
      </trkpt>
      <trkpt lat="49.19866" lon="6.84962">
        <ele>192.4</ele>
        <time>2014-03-12T10:29:52Z</time>
      </trkpt>
      <trkpt lat="49.1986" lon="6.84961">
        <ele>192.7</ele>
        <time>2014-03-12T10:29:57Z</time>
      </trkpt>
      <trkpt lat="49.19854" lon="6.84959">
        <ele>192.6</ele>
        <time>2014-03-12T10:30:02Z</time>
      </trkpt>
      <trkpt lat="49.19847" lon="6.84958">
        <ele>192.5</ele>
        <time>2014-03-12T10:30:07Z</time>
      </trkpt>
      <trkpt lat="49.19841" lon="6.84957">
        <ele>192.9</ele>
        <time>2014-03-12T10:30:12Z</time>
      </trkpt>
      <trkpt lat="49.19827" lon="6.84953">
        <ele>192.5</ele>
        <time>2014-03-12T10:30:22Z</time>
      </trkpt>
      <trkpt lat="49.1982" lon="6.84952">
        <ele>193.1</ele>
        <time>2014-03-12T10:30:27Z</time>
      </trkpt>
      <trkpt lat="49.19813" lon="6.8495">
        <ele>192.5</ele>
        <time>2014-03-12T10:30:32Z</time>
      </trkpt>
      <trkpt lat="49.19806" lon="6.84949">
        <ele>193.3</ele>
        <time>2014-03-12T10:30:37Z</time>
      </trkpt>
      <trkpt lat="49.19799" lon="6.84947">
        <ele>193.2</ele>
        <time>2014-03-12T10:30:42Z</time>
      </trkpt>
      <trkpt lat="49.19792" lon="6.84944">
        <ele>193.9</ele>
        <time>2014-03-12T10:30:47Z</time>
      </trkpt>
      <trkpt lat="49.19786" lon="6.84942">
        <ele>193.8</ele>
        <time>2014-03-12T10:30:52Z</time>
      </trkpt>
      <trkpt lat="49.19779" lon="6.8494">
        <ele>192.7</ele>
        <time>2014-03-12T10:30:57Z</time>
      </trkpt>
      <trkpt lat="49.19773" lon="6.84938">
        <ele>193.8</ele>
        <time>2014-03-12T10:31:02Z</time>
      </trkpt>
      <trkpt lat="49.19767" lon="6.84936">
        <ele>192.7</ele>
        <time>2014-03-12T10:31:07Z</time>
      </trkpt>
      <trkpt lat="49.1976" lon="6.84934">
        <ele>193.3</ele>
        <time>2014-03-12T10:31:12Z</time>
      </trkpt>
      <trkpt lat="49.19754" lon="6.84931">
        <ele>193.3</ele>
        <time>2014-03-12T10:31:17Z</time>
      </trkpt>
      <trkpt lat="49.19741" lon="6.84928">
        <ele>193.1</ele>
        <time>2014-03-12T10:31:27Z</time>
      </trkpt>
      <trkpt lat="49.19735" lon="6.84925">
        <ele>193.6</ele>
        <time>2014-03-12T10:31:32Z</time>
      </trkpt>
      <trkpt lat="49.19729" lon="6.84923">
        <ele>193.9</ele>
        <time>2014-03-12T10:31:37Z</time>
      </trkpt>
      <trkpt lat="49.19724" lon="6.84922">
        <ele>193.7</ele>
        <time>2014-03-12T10:31:42Z</time>
      </trkpt>
      <trkpt lat="49.19718" lon="6.8492">
        <ele>193.4</ele>
        <time>2014-03-12T10:31:47Z</time>
      </trkpt>
      <trkpt lat="49.19712" lon="6.84919">
        <ele>193</ele>
        <time>2014-03-12T10:31:52Z</time>
      </trkpt>
      <trkpt lat="49.19704" lon="6.84916">
        <ele>194</ele>
        <time>2014-03-12T10:31:57Z</time>
      </trkpt>
      <trkpt lat="49.19697" lon="6.84913">
        <ele>194.1</ele>
        <time>2014-03-12T10:32:02Z</time>
      </trkpt>
      <trkpt lat="49.19689" lon="6.8491">
        <ele>194.5</ele>
        <time>2014-03-12T10:32:07Z</time>
      </trkpt>
      <trkpt lat="49.19682" lon="6.84908">
        <ele>194</ele>
        <time>2014-03-12T10:32:12Z</time>
      </trkpt>
      <trkpt lat="49.19674" lon="6.84907">
        <ele>193.2</ele>
        <time>2014-03-12T10:32:17Z</time>
      </trkpt>
      <trkpt lat="49.19666" lon="6.84904">
        <ele>193.7</ele>
        <time>2014-03-12T10:32:22Z</time>
      </trkpt>
      <trkpt lat="49.1965" lon="6.84899">
        <ele>194.6</ele>
        <time>2014-03-12T10:32:32Z</time>
      </trkpt>
      <trkpt lat="49.19643" lon="6.84896">
        <ele>193.7</ele>
        <time>2014-03-12T10:32:37Z</time>
      </trkpt>
      <trkpt lat="49.19636" lon="6.84893">
        <ele>194.3</ele>
        <time>2014-03-12T10:32:42Z</time>
      </trkpt>
      <trkpt lat="49.19631" lon="6.84887">
        <ele>194.8</ele>
        <time>2014-03-12T10:32:47Z</time>
      </trkpt>
      <trkpt lat="49.19627" lon="6.84882">
        <ele>193.4</ele>
        <time>2014-03-12T10:32:52Z</time>
      </trkpt>
      <trkpt lat="49.19622" lon="6.84878">
        <ele>194.1</ele>
        <time>2014-03-12T10:32:57Z</time>
      </trkpt>
      <trkpt lat="49.19618" lon="6.84874">
        <ele>194.5</ele>
        <time>2014-03-12T10:33:02Z</time>
      </trkpt>
      <trkpt lat="49.19613" lon="6.84869">
        <ele>194.9</ele>
        <time>2014-03-12T10:33:07Z</time>
      </trkpt>
      <trkpt lat="49.19606" lon="6.84869">
        <ele>194.9</ele>
        <time>2014-03-12T10:33:12Z</time>
      </trkpt>
      <trkpt lat="49.19599" lon="6.84871">
        <ele>195.7</ele>
        <time>2014-03-12T10:33:17Z</time>
      </trkpt>
      <trkpt lat="49.19593" lon="6.84872">
        <ele>195.1</ele>
        <time>2014-03-12T10:33:22Z</time>
      </trkpt>
      <trkpt lat="49.19586" lon="6.84872">
        <ele>195</ele>
        <time>2014-03-12T10:33:27Z</time>
      </trkpt>
      <trkpt lat="49.19575" lon="6.84869">
        <ele>195.9</ele>
        <time>2014-03-12T10:33:37Z</time>
      </trkpt>
      <trkpt lat="49.1957" lon="6.84869">
        <ele>195.7</ele>
        <time>2014-03-12T10:33:42Z</time>
      </trkpt>
      <trkpt lat="49.19564" lon="6.8487">
        <ele>195.4</ele>
        <time>2014-03-12T10:33:47Z</time>
      </trkpt>
      <trkpt lat="49.19559" lon="6.8487">
        <ele>195.9</ele>
        <time>2014-03-12T10:33:52Z</time>
      </trkpt>
      <trkpt lat="49.19554" lon="6.84873">
        <ele>195</ele>
        <time>2014-03-12T10:33:57Z</time>
      </trkpt>
      <trkpt lat="49.19549" lon="6.84877">
        <ele>195.2</ele>
        <time>2014-03-12T10:34:02Z</time>
      </trkpt>
      <trkpt lat="49.19543" lon="6.84879">
        <ele>195.2</ele>
        <time>2014-03-12T10:34:07Z</time>
      </trkpt>
      <trkpt lat="49.19537" lon="6.84882">
        <ele>195.9</ele>
        <time>2014-03-12T10:34:12Z</time>
      </trkpt>
      <trkpt lat="49.1953" lon="6.84882">
        <ele>195.8</ele>
        <time>2014-03-12T10:34:17Z</time>
      </trkpt>
      <trkpt lat="49.19524" lon="6.84883">
        <ele>195.6</ele>
        <time>2014-03-12T10:34:22Z</time>
      </trkpt>
      <trkpt lat="49.19518" lon="6.84885">
        <ele>195.8</ele>
        <time>2014-03-12T10:34:27Z</time>
      </trkpt>
      <trkpt lat="49.19513" lon="6.84887">
        <ele>196.2</ele>
        <time>2014-03-12T10:34:32Z</time>
      </trkpt>
      <trkpt lat="49.19501" lon="6.84891">
        <ele>196</ele>
        <time>2014-03-12T10:34:42Z</time>
      </trkpt>
      <trkpt lat="49.19494" lon="6.84892">
        <ele>197.1</ele>
        <time>2014-03-12T10:34:47Z</time>
      </trkpt>
      <trkpt lat="49.19487" lon="6.84894">
        <ele>196.5</ele>
        <time>2014-03-12T10:34:52Z</time>
      </trkpt>
      <trkpt lat="49.1948" lon="6.84897">
        <ele>196.8</ele>
        <time>2014-03-12T10:34:57Z</time>
      </trkpt>
      <trkpt lat="49.19473" lon="6.84899">
        <ele>197</ele>
        <time>2014-03-12T10:35:02Z</time>
      </trkpt>
      <trkpt lat="49.19467" lon="6.84902">
        <ele>197.1</ele>
        <time>2014-03-12T10:35:07Z</time>
      </trkpt>
      <trkpt lat="49.19461" lon="6.84903">
        <ele>196.8</ele>
        <time>2014-03-12T10:35:12Z</time>
      </trkpt>
      <trkpt lat="49.19454" lon="6.84905">
        <ele>196.5</ele>
        <time>2014-03-12T10:35:17Z</time>
      </trkpt>
      <trkpt lat="49.19446" lon="6.84907">
        <ele>196.7</ele>
        <time>2014-03-12T10:35:22Z</time>
      </trkpt>
      <trkpt lat="49.19439" lon="6.84908">
        <ele>196.1</ele>
        <time>2014-03-12T10:35:27Z</time>
      </trkpt>
      <trkpt lat="49.19432" lon="6.84908">
        <ele>197.2</ele>
        <time>2014-03-12T10:35:32Z</time>
      </trkpt>
      <trkpt lat="49.19425" lon="6.8491">
        <ele>196.9</ele>
        <time>2014-03-12T10:35:37Z</time>
      </trkpt>
      <trkpt lat="49.1941" lon="6.84912">
        <ele>196.3</ele>
        <time>2014-03-12T10:35:47Z</time>
      </trkpt>
      <trkpt lat="49.19404" lon="6.84912">
        <ele>196.3</ele>
        <time>2014-03-12T10:35:52Z</time>
      </trkpt>
      <trkpt lat="49.19399" lon="6.84915">
        <ele>196.9</ele>
        <time>2014-03-12T10:35:57Z</time>
      </trkpt>
      <trkpt lat="49.19393" lon="6.84916">
        <ele>196.5</ele>
        <time>2014-03-12T10:36:02Z</time>
      </trkpt>
      <trkpt lat="49.19386" lon="6.84918">
        <ele>196.5</ele>
        <time>2014-03-12T10:36:07Z</time>
      </trkpt>
      <trkpt lat="49.1938" lon="6.84919">
        <ele>196.9</ele>
        <time>2014-03-12T10:36:12Z</time>
      </trkpt>
      <trkpt lat="49.19376" lon="6.84922">
        <ele>195.6</ele>
        <time>2014-03-12T10:36:17Z</time>
      </trkpt>
      <trkpt lat="49.19373" lon="6.84925">
        <ele>197</ele>
        <time>2014-03-12T10:36:22Z</time>
      </trkpt>
      <trkpt lat="49.19367" lon="6.8493">
        <ele>196.5</ele>
        <time>2014-03-12T10:36:27Z</time>
      </trkpt>
      <trkpt lat="49.19362" lon="6.84933">
        <ele>195.4</ele>
        <time>2014-03-12T10:36:32Z</time>
      </trkpt>
      <trkpt lat="49.19357" lon="6.84937">
        <ele>196.4</ele>
        <time>2014-03-12T10:36:37Z</time>
      </trkpt>
      <trkpt lat="49.19351" lon="6.84941">
        <ele>196.7</ele>
        <time>2014-03-12T10:36:42Z</time>
      </trkpt>
      <trkpt lat="49.19337" lon="6.84951">
        <ele>196.1</ele>
        <time>2014-03-12T10:36:52Z</time>
      </trkpt>
      <trkpt lat="49.19331" lon="6.84956">
        <ele>195.4</ele>
        <time>2014-03-12T10:36:57Z</time>
      </trkpt>
      <trkpt lat="49.19325" lon="6.8496">
        <ele>194.9</ele>
        <time>2014-03-12T10:37:02Z</time>
      </trkpt>
      <trkpt lat="49.1932" lon="6.84963">
        <ele>195.3</ele>
        <time>2014-03-12T10:37:07Z</time>
      </trkpt>
      <trkpt lat="49.19313" lon="6.84968">
        <ele>195</ele>
        <time>2014-03-12T10:37:12Z</time>
      </trkpt>
      <trkpt lat="49.19306" lon="6.84972">
        <ele>195.7</ele>
        <time>2014-03-12T10:37:17Z</time>
      </trkpt>
      <trkpt lat="49.193" lon="6.84974">
        <ele>195.5</ele>
        <time>2014-03-12T10:37:22Z</time>
      </trkpt>
      <trkpt lat="49.19296" lon="6.84977">
        <ele>195.7</ele>
        <time>2014-03-12T10:37:27Z</time>
      </trkpt>
      <trkpt lat="49.1929" lon="6.84981">
        <ele>196.3</ele>
        <time>2014-03-12T10:37:32Z</time>
      </trkpt>
      <trkpt lat="49.19284" lon="6.84985">
        <ele>195.9</ele>
        <time>2014-03-12T10:37:37Z</time>
      </trkpt>
      <trkpt lat="49.19279" lon="6.84988">
        <ele>195.7</ele>
        <time>2014-03-12T10:37:42Z</time>
      </trkpt>
      <trkpt lat="49.19272" lon="6.84993">
        <ele>195.6</ele>
        <time>2014-03-12T10:37:47Z</time>
      </trkpt>
      <trkpt lat="49.19261" lon="6.85002">
        <ele>194.9</ele>
        <time>2014-03-12T10:37:57Z</time>
      </trkpt>
      <trkpt lat="49.19255" lon="6.85006">
        <ele>194.7</ele>
        <time>2014-03-12T10:38:02Z</time>
      </trkpt>
      <trkpt lat="49.19249" lon="6.85011">
        <ele>194.6</ele>
        <time>2014-03-12T10:38:07Z</time>
      </trkpt>
      <trkpt lat="49.19243" lon="6.85014">
        <ele>194.7</ele>
        <time>2014-03-12T10:38:12Z</time>
      </trkpt>
      <trkpt lat="49.19237" lon="6.85019">
        <ele>195.5</ele>
        <time>2014-03-12T10:38:17Z</time>
      </trkpt>
      <trkpt lat="49.1923" lon="6.85024">
        <ele>195.2</ele>
        <time>2014-03-12T10:38:22Z</time>
      </trkpt>
      <trkpt lat="49.19222" lon="6.85027">
        <ele>195.1</ele>
        <time>2014-03-12T10:38:27Z</time>
      </trkpt>
      <trkpt lat="49.19216" lon="6.85031">
        <ele>195.3</ele>
        <time>2014-03-12T10:38:32Z</time>
      </trkpt>
      <trkpt lat="49.19209" lon="6.85035">
        <ele>194.9</ele>
        <time>2014-03-12T10:38:37Z</time>
      </trkpt>
      <trkpt lat="49.19201" lon="6.8504">
        <ele>195.9</ele>
        <time>2014-03-12T10:38:42Z</time>
      </trkpt>
      <trkpt lat="49.19194" lon="6.85043">
        <ele>196.4</ele>
        <time>2014-03-12T10:38:47Z</time>
      </trkpt>
      <trkpt lat="49.19187" lon="6.85048">
        <ele>195.3</ele>
        <time>2014-03-12T10:38:52Z</time>
      </trkpt>
      <trkpt lat="49.19173" lon="6.85057">
        <ele>196.2</ele>
        <time>2014-03-12T10:39:02Z</time>
      </trkpt>
      <trkpt lat="49.19166" lon="6.8506">
        <ele>196.4</ele>
        <time>2014-03-12T10:39:07Z</time>
      </trkpt>
      <trkpt lat="49.19158" lon="6.85065">
        <ele>195.9</ele>
        <time>2014-03-12T10:39:12Z</time>
      </trkpt>
      <trkpt lat="49.19153" lon="6.85069">
        <ele>195.8</ele>
        <time>2014-03-12T10:39:17Z</time>
      </trkpt>
      <trkpt lat="49.19146" lon="6.85072">
        <ele>196.8</ele>
        <time>2014-03-12T10:39:22Z</time>
      </trkpt>
      <trkpt lat="49.19139" lon="6.85076">
        <ele>197.3</ele>
        <time>2014-03-12T10:39:27Z</time>
      </trkpt>
      <trkpt lat="49.19133" lon="6.85082">
        <ele>197.4</ele>
        <time>2014-03-12T10:39:32Z</time>
      </trkpt>
      <trkpt lat="49.19129" lon="6.85085">
        <ele>197</ele>
        <time>2014-03-12T10:39:37Z</time>
      </trkpt>
      <trkpt lat="49.19124" lon="6.85089">
        <ele>197.7</ele>
        <time>2014-03-12T10:39:42Z</time>
      </trkpt>
      <trkpt lat="49.19118" lon="6.85095">
        <ele>197.5</ele>
        <time>2014-03-12T10:39:47Z</time>
      </trkpt>
      <trkpt lat="49.19113" lon="6.85101">
        <ele>197.8</ele>
        <time>2014-03-12T10:39:52Z</time>
      </trkpt>
      <trkpt lat="49.19107" lon="6.85106">
        <ele>198</ele>
        <time>2014-03-12T10:39:57Z</time>
      </trkpt>
      <trkpt lat="49.19095" lon="6.85118">
        <ele>197.5</ele>
        <time>2014-03-12T10:40:07Z</time>
      </trkpt>
      <trkpt lat="49.1909" lon="6.85124">
        <ele>197.6</ele>
        <time>2014-03-12T10:40:12Z</time>
      </trkpt>
      <trkpt lat="49.19084" lon="6.85129">
        <ele>197.5</ele>
        <time>2014-03-12T10:40:17Z</time>
      </trkpt>
      <trkpt lat="49.19078" lon="6.85136">
        <ele>197.9</ele>
        <time>2014-03-12T10:40:22Z</time>
      </trkpt>
      <trkpt lat="49.19073" lon="6.85143">
        <ele>197.3</ele>
        <time>2014-03-12T10:40:27Z</time>
      </trkpt>
      <trkpt lat="49.19067" lon="6.85149">
        <ele>196.9</ele>
        <time>2014-03-12T10:40:32Z</time>
      </trkpt>
      <trkpt lat="49.19062" lon="6.85156">
        <ele>197.9</ele>
        <time>2014-03-12T10:40:37Z</time>
      </trkpt>
      <trkpt lat="49.19056" lon="6.85163">
        <ele>197</ele>
        <time>2014-03-12T10:40:42Z</time>
      </trkpt>
      <trkpt lat="49.19052" lon="6.8517">
        <ele>196.8</ele>
        <time>2014-03-12T10:40:47Z</time>
      </trkpt>
      <trkpt lat="49.19047" lon="6.85176">
        <ele>196.4</ele>
        <time>2014-03-12T10:40:52Z</time>
      </trkpt>
      <trkpt lat="49.19042" lon="6.85181">
        <ele>196.9</ele>
        <time>2014-03-12T10:40:57Z</time>
      </trkpt>
      <trkpt lat="49.19038" lon="6.85187">
        <ele>197.2</ele>
        <time>2014-03-12T10:41:02Z</time>
      </trkpt>
      <trkpt lat="49.19026" lon="6.85199">
        <ele>196.9</ele>
        <time>2014-03-12T10:41:12Z</time>
      </trkpt>
      <trkpt lat="49.1902" lon="6.85205">
        <ele>197</ele>
        <time>2014-03-12T10:41:17Z</time>
      </trkpt>
      <trkpt lat="49.19014" lon="6.85212">
        <ele>197.3</ele>
        <time>2014-03-12T10:41:22Z</time>
      </trkpt>
      <trkpt lat="49.19007" lon="6.85217">
        <ele>197.4</ele>
        <time>2014-03-12T10:41:27Z</time>
      </trkpt>
      <trkpt lat="49.19001" lon="6.85221">
        <ele>197.1</ele>
        <time>2014-03-12T10:41:32Z</time>
      </trkpt>
      <trkpt lat="49.18995" lon="6.85225">
        <ele>198</ele>
        <time>2014-03-12T10:41:37Z</time>
      </trkpt>
      <trkpt lat="49.18989" lon="6.85231">
        <ele>198.1</ele>
        <time>2014-03-12T10:41:42Z</time>
      </trkpt>
      <trkpt lat="49.18982" lon="6.85236">
        <ele>198.7</ele>
        <time>2014-03-12T10:41:47Z</time>
      </trkpt>
      <trkpt lat="49.18977" lon="6.85242">
        <ele>198.7</ele>
        <time>2014-03-12T10:41:52Z</time>
      </trkpt>
      <trkpt lat="49.18972" lon="6.85249">
        <ele>198.1</ele>
        <time>2014-03-12T10:41:57Z</time>
      </trkpt>
      <trkpt lat="49.18967" lon="6.85255">
        <ele>197.9</ele>
        <time>2014-03-12T10:42:02Z</time>
      </trkpt>
      <trkpt lat="49.18961" lon="6.85262">
        <ele>198.3</ele>
        <time>2014-03-12T10:42:07Z</time>
      </trkpt>
      <trkpt lat="49.18951" lon="6.85273">
        <ele>198.3</ele>
        <time>2014-03-12T10:42:17Z</time>
      </trkpt>
      <trkpt lat="49.18945" lon="6.85278">
        <ele>199.5</ele>
        <time>2014-03-12T10:42:22Z</time>
      </trkpt>
      <trkpt lat="49.18941" lon="6.85282">
        <ele>198.9</ele>
        <time>2014-03-12T10:42:27Z</time>
      </trkpt>
      <trkpt lat="49.18935" lon="6.85289">
        <ele>198.5</ele>
        <time>2014-03-12T10:42:32Z</time>
      </trkpt>
      <trkpt lat="49.18931" lon="6.85295">
        <ele>198.9</ele>
        <time>2014-03-12T10:42:37Z</time>
      </trkpt>
      <trkpt lat="49.18926" lon="6.85302">
        <ele>199.2</ele>
        <time>2014-03-12T10:42:42Z</time>
      </trkpt>
      <trkpt lat="49.18921" lon="6.8531">
        <ele>198.3</ele>
        <time>2014-03-12T10:42:47Z</time>
      </trkpt>
      <trkpt lat="49.18916" lon="6.85318">
        <ele>197.8</ele>
        <time>2014-03-12T10:42:52Z</time>
      </trkpt>
      <trkpt lat="49.18911" lon="6.85325">
        <ele>197.6</ele>
        <time>2014-03-12T10:42:57Z</time>
      </trkpt>
      <trkpt lat="49.18907" lon="6.85333">
        <ele>198.2</ele>
        <time>2014-03-12T10:43:02Z</time>
      </trkpt>
      <trkpt lat="49.18902" lon="6.85339">
        <ele>198.8</ele>
        <time>2014-03-12T10:43:07Z</time>
      </trkpt>
      <trkpt lat="49.18896" lon="6.85345">
        <ele>199.4</ele>
        <time>2014-03-12T10:43:12Z</time>
      </trkpt>
      <trkpt lat="49.18885" lon="6.8536">
        <ele>199</ele>
        <time>2014-03-12T10:43:22Z</time>
      </trkpt>
      <trkpt lat="49.18879" lon="6.85368">
        <ele>198.8</ele>
        <time>2014-03-12T10:43:27Z</time>
      </trkpt>
      <trkpt lat="49.18874" lon="6.85375">
        <ele>199.2</ele>
        <time>2014-03-12T10:43:32Z</time>
      </trkpt>
      <trkpt lat="49.18869" lon="6.85381">
        <ele>199.4</ele>
        <time>2014-03-12T10:43:37Z</time>
      </trkpt>
      <trkpt lat="49.18862" lon="6.85386">
        <ele>199.6</ele>
        <time>2014-03-12T10:43:42Z</time>
      </trkpt>
      <trkpt lat="49.18855" lon="6.85391">
        <ele>199.1</ele>
        <time>2014-03-12T10:43:47Z</time>
      </trkpt>
      <trkpt lat="49.18849" lon="6.85397">
        <ele>200.1</ele>
        <time>2014-03-12T10:43:52Z</time>
      </trkpt>
      <trkpt lat="49.18842" lon="6.85403">
        <ele>199.9</ele>
        <time>2014-03-12T10:43:57Z</time>
      </trkpt>
      <trkpt lat="49.18837" lon="6.8541">
        <ele>199.7</ele>
        <time>2014-03-12T10:44:02Z</time>
      </trkpt>
      <trkpt lat="49.18833" lon="6.85416">
        <ele>199.7</ele>
        <time>2014-03-12T10:44:07Z</time>
      </trkpt>
      <trkpt lat="49.18827" lon="6.85422">
        <ele>199.9</ele>
        <time>2014-03-12T10:44:12Z</time>
      </trkpt>
      <trkpt lat="49.18821" lon="6.85428">
        <ele>199.7</ele>
        <time>2014-03-12T10:44:17Z</time>
      </trkpt>
      <trkpt lat="49.1881" lon="6.85441">
        <ele>199.9</ele>
        <time>2014-03-12T10:44:27Z</time>
      </trkpt>
      <trkpt lat="49.18804" lon="6.85448">
        <ele>200</ele>
        <time>2014-03-12T10:44:32Z</time>
      </trkpt>
      <trkpt lat="49.18798" lon="6.85454">
        <ele>200.3</ele>
        <time>2014-03-12T10:44:37Z</time>
      </trkpt>
      <trkpt lat="49.18792" lon="6.8546">
        <ele>200.5</ele>
        <time>2014-03-12T10:44:42Z</time>
      </trkpt>
      <trkpt lat="49.18786" lon="6.85466">
        <ele>199.4</ele>
        <time>2014-03-12T10:44:47Z</time>
      </trkpt>
      <trkpt lat="49.18781" lon="6.85472">
        <ele>200.2</ele>
        <time>2014-03-12T10:44:52Z</time>
      </trkpt>
      <trkpt lat="49.18775" lon="6.85477">
        <ele>200.6</ele>
        <time>2014-03-12T10:44:57Z</time>
      </trkpt>
      <trkpt lat="49.18768" lon="6.85482">
        <ele>200.1</ele>
        <time>2014-03-12T10:45:02Z</time>
      </trkpt>
      <trkpt lat="49.18762" lon="6.85489">
        <ele>200.6</ele>
        <time>2014-03-12T10:45:07Z</time>
      </trkpt>
      <trkpt lat="49.18757" lon="6.85495">
        <ele>201.3</ele>
        <time>2014-03-12T10:45:12Z</time>
      </trkpt>
      <trkpt lat="49.18751" lon="6.85502">
        <ele>202.1</ele>
        <time>2014-03-12T10:45:17Z</time>
      </trkpt>
      <trkpt lat="49.18745" lon="6.85508">
        <ele>201.8</ele>
        <time>2014-03-12T10:45:22Z</time>
      </trkpt>
      <trkpt lat="49.18734" lon="6.85519">
        <ele>202.6</ele>
        <time>2014-03-12T10:45:32Z</time>
      </trkpt>
      <trkpt lat="49.18728" lon="6.85525">
        <ele>202.3</ele>
        <time>2014-03-12T10:45:37Z</time>
      </trkpt>
      <trkpt lat="49.18721" lon="6.85529">
        <ele>202</ele>
        <time>2014-03-12T10:45:42Z</time>
      </trkpt>
      <trkpt lat="49.18714" lon="6.85534">
        <ele>202.1</ele>
        <time>2014-03-12T10:45:47Z</time>
      </trkpt>
      <trkpt lat="49.18708" lon="6.85538">
        <ele>203.3</ele>
        <time>2014-03-12T10:45:52Z</time>
      </trkpt>
      <trkpt lat="49.18701" lon="6.85543">
        <ele>203.4</ele>
        <time>2014-03-12T10:45:57Z</time>
      </trkpt>
      <trkpt lat="49.18695" lon="6.8555">
        <ele>203.8</ele>
        <time>2014-03-12T10:46:02Z</time>
      </trkpt>
      <trkpt lat="49.18689" lon="6.85556">
        <ele>204</ele>
        <time>2014-03-12T10:46:07Z</time>
      </trkpt>
      <trkpt lat="49.18683" lon="6.85562">
        <ele>204</ele>
        <time>2014-03-12T10:46:12Z</time>
      </trkpt>
      <trkpt lat="49.18677" lon="6.85567">
        <ele>203</ele>
        <time>2014-03-12T10:46:17Z</time>
      </trkpt>
      <trkpt lat="49.18671" lon="6.85572">
        <ele>202.9</ele>
        <time>2014-03-12T10:46:22Z</time>
      </trkpt>
      <trkpt lat="49.18664" lon="6.85576">
        <ele>203.8</ele>
        <time>2014-03-12T10:46:27Z</time>
      </trkpt>
      <trkpt lat="49.18652" lon="6.85582">
        <ele>204.1</ele>
        <time>2014-03-12T10:46:37Z</time>
      </trkpt>
      <trkpt lat="49.18646" lon="6.85585">
        <ele>204.8</ele>
        <time>2014-03-12T10:46:42Z</time>
      </trkpt>
      <trkpt lat="49.1864" lon="6.85588">
        <ele>204</ele>
        <time>2014-03-12T10:46:47Z</time>
      </trkpt>
      <trkpt lat="49.18633" lon="6.8559">
        <ele>204</ele>
        <time>2014-03-12T10:46:52Z</time>
      </trkpt>
      <trkpt lat="49.18626" lon="6.85593">
        <ele>204.6</ele>
        <time>2014-03-12T10:46:57Z</time>
      </trkpt>
      <trkpt lat="49.1862" lon="6.85594">
        <ele>203.5</ele>
        <time>2014-03-12T10:47:02Z</time>
      </trkpt>
      <trkpt lat="49.18614" lon="6.85595">
        <ele>203.5</ele>
        <time>2014-03-12T10:47:07Z</time>
      </trkpt>
      <trkpt lat="49.18607" lon="6.85595">
        <ele>202.8</ele>
        <time>2014-03-12T10:47:12Z</time>
      </trkpt>
      <trkpt lat="49.186" lon="6.85595">
        <ele>202.3</ele>
        <time>2014-03-12T10:47:17Z</time>
      </trkpt>
      <trkpt lat="49.18594" lon="6.85595">
        <ele>201.6</ele>
        <time>2014-03-12T10:47:22Z</time>
      </trkpt>
      <trkpt lat="49.18587" lon="6.85594">
        <ele>202.2</ele>
        <time>2014-03-12T10:47:27Z</time>
      </trkpt>
      <trkpt lat="49.18579" lon="6.85597">
        <ele>201.9</ele>
        <time>2014-03-12T10:47:32Z</time>
      </trkpt>
      <trkpt lat="49.18566" lon="6.85596">
        <ele>201.9</ele>
        <time>2014-03-12T10:47:42Z</time>
      </trkpt>
      <trkpt lat="49.18559" lon="6.85596">
        <ele>201.4</ele>
        <time>2014-03-12T10:47:47Z</time>
      </trkpt>
      <trkpt lat="49.18553" lon="6.85595">
        <ele>200.5</ele>
        <time>2014-03-12T10:47:52Z</time>
      </trkpt>
      <trkpt lat="49.18545" lon="6.85593">
        <ele>199.9</ele>
        <time>2014-03-12T10:47:57Z</time>
      </trkpt>
      <trkpt lat="49.18538" lon="6.85592">
        <ele>199</ele>
        <time>2014-03-12T10:48:02Z</time>
      </trkpt>
      <trkpt lat="49.18531" lon="6.85589">
        <ele>199.1</ele>
        <time>2014-03-12T10:48:07Z</time>
      </trkpt>
      <trkpt lat="49.18522" lon="6.85587">
        <ele>198.9</ele>
        <time>2014-03-12T10:48:12Z</time>
      </trkpt>
      <trkpt lat="49.18514" lon="6.85585">
        <ele>198.6</ele>
        <time>2014-03-12T10:48:17Z</time>
      </trkpt>
      <trkpt lat="49.18508" lon="6.85584">
        <ele>199.3</ele>
        <time>2014-03-12T10:48:22Z</time>
      </trkpt>
      <trkpt lat="49.18501" lon="6.85583">
        <ele>199</ele>
        <time>2014-03-12T10:48:27Z</time>
      </trkpt>
      <trkpt lat="49.18495" lon="6.85585">
        <ele>198.7</ele>
        <time>2014-03-12T10:48:32Z</time>
      </trkpt>
      <trkpt lat="49.18488" lon="6.85585">
        <ele>198.4</ele>
        <time>2014-03-12T10:48:37Z</time>
      </trkpt>
      <trkpt lat="49.18474" lon="6.85587">
        <ele>198.9</ele>
        <time>2014-03-12T10:48:47Z</time>
      </trkpt>
      <trkpt lat="49.18467" lon="6.85585">
        <ele>198.5</ele>
        <time>2014-03-12T10:48:52Z</time>
      </trkpt>
      <trkpt lat="49.18461" lon="6.85585">
        <ele>198.1</ele>
        <time>2014-03-12T10:48:57Z</time>
      </trkpt>
      <trkpt lat="49.18453" lon="6.85587">
        <ele>198.2</ele>
        <time>2014-03-12T10:49:02Z</time>
      </trkpt>
      <trkpt lat="49.18446" lon="6.8559">
        <ele>197.9</ele>
        <time>2014-03-12T10:49:07Z</time>
      </trkpt>
      <trkpt lat="49.1844" lon="6.85593">
        <ele>197.9</ele>
        <time>2014-03-12T10:49:12Z</time>
      </trkpt>
      <trkpt lat="49.18433" lon="6.85596">
        <ele>197.6</ele>
        <time>2014-03-12T10:49:17Z</time>
      </trkpt>
      <trkpt lat="49.18427" lon="6.85599">
        <ele>198.3</ele>
        <time>2014-03-12T10:49:22Z</time>
      </trkpt>
      <trkpt lat="49.1842" lon="6.85604">
        <ele>198.4</ele>
        <time>2014-03-12T10:49:27Z</time>
      </trkpt>
      <trkpt lat="49.18414" lon="6.8561">
        <ele>198.4</ele>
        <time>2014-03-12T10:49:32Z</time>
      </trkpt>
      <trkpt lat="49.18408" lon="6.85617">
        <ele>197.9</ele>
        <time>2014-03-12T10:49:37Z</time>
      </trkpt>
      <trkpt lat="49.18403" lon="6.85621">
        <ele>197.7</ele>
        <time>2014-03-12T10:49:42Z</time>
      </trkpt>
      <trkpt lat="49.18394" lon="6.85634">
        <ele>199.5</ele>
        <time>2014-03-12T10:49:52Z</time>
      </trkpt>
      <trkpt lat="49.1839" lon="6.8564">
        <ele>199.5</ele>
        <time>2014-03-12T10:49:57Z</time>
      </trkpt>
      <trkpt lat="49.18387" lon="6.85647">
        <ele>199.8</ele>
        <time>2014-03-12T10:50:02Z</time>
      </trkpt>
      <trkpt lat="49.18382" lon="6.85654">
        <ele>200.7</ele>
        <time>2014-03-12T10:50:07Z</time>
      </trkpt>
      <trkpt lat="49.18379" lon="6.85661">
        <ele>200.4</ele>
        <time>2014-03-12T10:50:12Z</time>
      </trkpt>
      <trkpt lat="49.18375" lon="6.85669">
        <ele>200.2</ele>
        <time>2014-03-12T10:50:17Z</time>
      </trkpt>
      <trkpt lat="49.18374" lon="6.85677">
        <ele>200.2</ele>
        <time>2014-03-12T10:50:22Z</time>
      </trkpt>
      <trkpt lat="49.18372" lon="6.85687">
        <ele>200.5</ele>
        <time>2014-03-12T10:50:27Z</time>
      </trkpt>
      <trkpt lat="49.18372" lon="6.85697">
        <ele>200.7</ele>
        <time>2014-03-12T10:50:32Z</time>
      </trkpt>
      <trkpt lat="49.18373" lon="6.85707">
        <ele>201.4</ele>
        <time>2014-03-12T10:50:37Z</time>
      </trkpt>
      <trkpt lat="49.18373" lon="6.85716">
        <ele>202</ele>
        <time>2014-03-12T10:50:42Z</time>
      </trkpt>
      <trkpt lat="49.18371" lon="6.85725">
        <ele>201.8</ele>
        <time>2014-03-12T10:50:47Z</time>
      </trkpt>
      <trkpt lat="49.18364" lon="6.85744">
        <ele>202.3</ele>
        <time>2014-03-12T10:50:57Z</time>
      </trkpt>
      <trkpt lat="49.1836" lon="6.85753">
        <ele>203.3</ele>
        <time>2014-03-12T10:51:02Z</time>
      </trkpt>
      <trkpt lat="49.18354" lon="6.85763">
        <ele>204.7</ele>
        <time>2014-03-12T10:51:07Z</time>
      </trkpt>
      <trkpt lat="49.18347" lon="6.8577">
        <ele>204.9</ele>
        <time>2014-03-12T10:51:12Z</time>
      </trkpt>
      <trkpt lat="49.18341" lon="6.85775">
        <ele>205.2</ele>
        <time>2014-03-12T10:51:17Z</time>
      </trkpt>
      <trkpt lat="49.18334" lon="6.85782">
        <ele>205.5</ele>
        <time>2014-03-12T10:51:22Z</time>
      </trkpt>
      <trkpt lat="49.18326" lon="6.85785">
        <ele>206</ele>
        <time>2014-03-12T10:51:27Z</time>
      </trkpt>
      <trkpt lat="49.18318" lon="6.85786">
        <ele>206.7</ele>
        <time>2014-03-12T10:51:32Z</time>
      </trkpt>
      <trkpt lat="49.1831" lon="6.85789">
        <ele>207.7</ele>
        <time>2014-03-12T10:51:37Z</time>
      </trkpt>
      <trkpt lat="49.18302" lon="6.85791">
        <ele>208.9</ele>
        <time>2014-03-12T10:51:42Z</time>
      </trkpt>
      <trkpt lat="49.18295" lon="6.85792">
        <ele>208.3</ele>
        <time>2014-03-12T10:51:47Z</time>
      </trkpt>
      <trkpt lat="49.18288" lon="6.85791">
        <ele>209.1</ele>
        <time>2014-03-12T10:51:52Z</time>
      </trkpt>
      <trkpt lat="49.18275" lon="6.85793">
        <ele>209.4</ele>
        <time>2014-03-12T10:52:02Z</time>
      </trkpt>
      <trkpt lat="49.18269" lon="6.85792">
        <ele>209.7</ele>
        <time>2014-03-12T10:52:07Z</time>
      </trkpt>
      <trkpt lat="49.18262" lon="6.85789">
        <ele>211.4</ele>
        <time>2014-03-12T10:52:12Z</time>
      </trkpt>
      <trkpt lat="49.18256" lon="6.85783">
        <ele>211.1</ele>
        <time>2014-03-12T10:52:17Z</time>
      </trkpt>
      <trkpt lat="49.18251" lon="6.85775">
        <ele>212.1</ele>
        <time>2014-03-12T10:52:22Z</time>
      </trkpt>
      <trkpt lat="49.18245" lon="6.8577">
        <ele>212.2</ele>
        <time>2014-03-12T10:52:27Z</time>
      </trkpt>
      <trkpt lat="49.18237" lon="6.85766">
        <ele>211.5</ele>
        <time>2014-03-12T10:52:32Z</time>
      </trkpt>
      <trkpt lat="49.18231" lon="6.85758">
        <ele>213.5</ele>
        <time>2014-03-12T10:52:37Z</time>
      </trkpt>
      <trkpt lat="49.18225" lon="6.85754">
        <ele>214.2</ele>
        <time>2014-03-12T10:52:42Z</time>
      </trkpt>
      <trkpt lat="49.18218" lon="6.85749">
        <ele>214.7</ele>
        <time>2014-03-12T10:52:47Z</time>
      </trkpt>
      <trkpt lat="49.18212" lon="6.85745">
        <ele>215.2</ele>
        <time>2014-03-12T10:52:52Z</time>
      </trkpt>
      <trkpt lat="49.18204" lon="6.8574">
        <ele>216.2</ele>
        <time>2014-03-12T10:52:57Z</time>
      </trkpt>
      <trkpt lat="49.18192" lon="6.85729">
        <ele>215.6</ele>
        <time>2014-03-12T10:53:07Z</time>
      </trkpt>
      <trkpt lat="49.18188" lon="6.85725">
        <ele>216.1</ele>
        <time>2014-03-12T10:53:12Z</time>
      </trkpt>
      <trkpt lat="49.18183" lon="6.85719">
        <ele>216.9</ele>
        <time>2014-03-12T10:53:17Z</time>
      </trkpt>
      <trkpt lat="49.18177" lon="6.85714">
        <ele>216.9</ele>
        <time>2014-03-12T10:53:22Z</time>
      </trkpt>
      <trkpt lat="49.18171" lon="6.85708">
        <ele>217.5</ele>
        <time>2014-03-12T10:53:27Z</time>
      </trkpt>
      <trkpt lat="49.18166" lon="6.85702">
        <ele>216.9</ele>
        <time>2014-03-12T10:53:32Z</time>
      </trkpt>
      <trkpt lat="49.1816" lon="6.857">
        <ele>217.6</ele>
        <time>2014-03-12T10:53:37Z</time>
      </trkpt>
      <trkpt lat="49.18154" lon="6.85697">
        <ele>217.9</ele>
        <time>2014-03-12T10:53:42Z</time>
      </trkpt>
      <trkpt lat="49.18149" lon="6.85694">
        <ele>217.9</ele>
        <time>2014-03-12T10:53:47Z</time>
      </trkpt>
      <trkpt lat="49.18143" lon="6.85691">
        <ele>217.7</ele>
        <time>2014-03-12T10:53:52Z</time>
      </trkpt>
      <trkpt lat="49.18136" lon="6.85687">
        <ele>218.5</ele>
        <time>2014-03-12T10:53:57Z</time>
      </trkpt>
      <trkpt lat="49.18128" lon="6.85686">
        <ele>218.2</ele>
        <time>2014-03-12T10:54:02Z</time>
      </trkpt>
      <trkpt lat="49.18115" lon="6.85677">
        <ele>218.6</ele>
        <time>2014-03-12T10:54:12Z</time>
      </trkpt>
      <trkpt lat="49.1811" lon="6.85672">
        <ele>218.7</ele>
        <time>2014-03-12T10:54:17Z</time>
      </trkpt>
      <trkpt lat="49.18104" lon="6.85665">
        <ele>219</ele>
        <time>2014-03-12T10:54:22Z</time>
      </trkpt>
      <trkpt lat="49.18098" lon="6.8566">
        <ele>219.2</ele>
        <time>2014-03-12T10:54:27Z</time>
      </trkpt>
      <trkpt lat="49.18093" lon="6.85656">
        <ele>219.4</ele>
        <time>2014-03-12T10:54:32Z</time>
      </trkpt>
      <trkpt lat="49.18088" lon="6.85649">
        <ele>219.7</ele>
        <time>2014-03-12T10:54:37Z</time>
      </trkpt>
      <trkpt lat="49.18082" lon="6.85641">
        <ele>219.4</ele>
        <time>2014-03-12T10:54:42Z</time>
      </trkpt>
      <trkpt lat="49.18078" lon="6.85631">
        <ele>219.7</ele>
        <time>2014-03-12T10:54:47Z</time>
      </trkpt>
      <trkpt lat="49.18073" lon="6.85622">
        <ele>219.6</ele>
        <time>2014-03-12T10:54:52Z</time>
      </trkpt>
      <trkpt lat="49.18067" lon="6.85616">
        <ele>219.7</ele>
        <time>2014-03-12T10:54:57Z</time>
      </trkpt>
      <trkpt lat="49.18062" lon="6.85608">
        <ele>220.2</ele>
        <time>2014-03-12T10:55:02Z</time>
      </trkpt>
      <trkpt lat="49.18056" lon="6.856">
        <ele>219.4</ele>
        <time>2014-03-12T10:55:07Z</time>
      </trkpt>
      <trkpt lat="49.18047" lon="6.85585">
        <ele>220.2</ele>
        <time>2014-03-12T10:55:17Z</time>
      </trkpt>
      <trkpt lat="49.18041" lon="6.85579">
        <ele>220.6</ele>
        <time>2014-03-12T10:55:22Z</time>
      </trkpt>
      <trkpt lat="49.18036" lon="6.85573">
        <ele>221</ele>
        <time>2014-03-12T10:55:27Z</time>
      </trkpt>
      <trkpt lat="49.18031" lon="6.85566">
        <ele>221.5</ele>
        <time>2014-03-12T10:55:32Z</time>
      </trkpt>
      <trkpt lat="49.18027" lon="6.85557">
        <ele>221.1</ele>
        <time>2014-03-12T10:55:37Z</time>
      </trkpt>
      <trkpt lat="49.18022" lon="6.85548">
        <ele>221.1</ele>
        <time>2014-03-12T10:55:42Z</time>
      </trkpt>
      <trkpt lat="49.18017" lon="6.8554">
        <ele>221.5</ele>
        <time>2014-03-12T10:55:47Z</time>
      </trkpt>
      <trkpt lat="49.18012" lon="6.85533">
        <ele>221.5</ele>
        <time>2014-03-12T10:55:52Z</time>
      </trkpt>
      <trkpt lat="49.18007" lon="6.85527">
        <ele>222.4</ele>
        <time>2014-03-12T10:55:57Z</time>
      </trkpt>
      <trkpt lat="49.18001" lon="6.85521">
        <ele>222.4</ele>
        <time>2014-03-12T10:56:02Z</time>
      </trkpt>
      <trkpt lat="49.17995" lon="6.85514">
        <ele>222.4</ele>
        <time>2014-03-12T10:56:07Z</time>
      </trkpt>
      <trkpt lat="49.17991" lon="6.85508">
        <ele>222.5</ele>
        <time>2014-03-12T10:56:12Z</time>
      </trkpt>
      <trkpt lat="49.1798" lon="6.85496">
        <ele>223.5</ele>
        <time>2014-03-12T10:56:22Z</time>
      </trkpt>
      <trkpt lat="49.17975" lon="6.8549">
        <ele>224.1</ele>
        <time>2014-03-12T10:56:27Z</time>
      </trkpt>
      <trkpt lat="49.1797" lon="6.85484">
        <ele>223.9</ele>
        <time>2014-03-12T10:56:32Z</time>
      </trkpt>
      <trkpt lat="49.17965" lon="6.85478">
        <ele>224.4</ele>
        <time>2014-03-12T10:56:37Z</time>
      </trkpt>
      <trkpt lat="49.1796" lon="6.85471">
        <ele>225.3</ele>
        <time>2014-03-12T10:56:42Z</time>
      </trkpt>
      <trkpt lat="49.17957" lon="6.85466">
        <ele>226.2</ele>
        <time>2014-03-12T10:56:47Z</time>
      </trkpt>
      <trkpt lat="49.17953" lon="6.85461">
        <ele>225.6</ele>
        <time>2014-03-12T10:56:52Z</time>
      </trkpt>
      <trkpt lat="49.17948" lon="6.85453">
        <ele>225.3</ele>
        <time>2014-03-12T10:56:57Z</time>
      </trkpt>
      <trkpt lat="49.17942" lon="6.85445">
        <ele>226</ele>
        <time>2014-03-12T10:57:02Z</time>
      </trkpt>
      <trkpt lat="49.17936" lon="6.85439">
        <ele>226.6</ele>
        <time>2014-03-12T10:57:07Z</time>
      </trkpt>
      <trkpt lat="49.17932" lon="6.85432">
        <ele>226.5</ele>
        <time>2014-03-12T10:57:12Z</time>
      </trkpt>
      <trkpt lat="49.17926" lon="6.85425">
        <ele>225.9</ele>
        <time>2014-03-12T10:57:17Z</time>
      </trkpt>
      <trkpt lat="49.17927" lon="6.85412">
        <ele>227.3</ele>
        <time>2014-03-12T10:57:27Z</time>
      </trkpt>
      <trkpt lat="49.1793" lon="6.85405">
        <ele>226.9</ele>
        <time>2014-03-12T10:57:32Z</time>
      </trkpt>
      <trkpt lat="49.17933" lon="6.85399">
        <ele>228.4</ele>
        <time>2014-03-12T10:57:37Z</time>
      </trkpt>
      <trkpt lat="49.17938" lon="6.85392">
        <ele>228.6</ele>
        <time>2014-03-12T10:57:42Z</time>
      </trkpt>
      <trkpt lat="49.17943" lon="6.85386">
        <ele>229.2</ele>
        <time>2014-03-12T10:57:47Z</time>
      </trkpt>
      <trkpt lat="49.17947" lon="6.85378">
        <ele>229.8</ele>
        <time>2014-03-12T10:57:52Z</time>
      </trkpt>
      <trkpt lat="49.17952" lon="6.8537">
        <ele>230</ele>
        <time>2014-03-12T10:57:57Z</time>
      </trkpt>
      <trkpt lat="49.17956" lon="6.85361">
        <ele>231.1</ele>
        <time>2014-03-12T10:58:02Z</time>
      </trkpt>
      <trkpt lat="49.1796" lon="6.85352">
        <ele>231</ele>
        <time>2014-03-12T10:58:07Z</time>
      </trkpt>
      <trkpt lat="49.17963" lon="6.85343">
        <ele>231.6</ele>
        <time>2014-03-12T10:58:12Z</time>
      </trkpt>
      <trkpt lat="49.17967" lon="6.85335">
        <ele>231.4</ele>
        <time>2014-03-12T10:58:17Z</time>
      </trkpt>
      <trkpt lat="49.17972" lon="6.85326">
        <ele>231.2</ele>
        <time>2014-03-12T10:58:22Z</time>
      </trkpt>
      <trkpt lat="49.17981" lon="6.8531">
        <ele>232.1</ele>
        <time>2014-03-12T10:58:32Z</time>
      </trkpt>
      <trkpt lat="49.17986" lon="6.85303">
        <ele>232</ele>
        <time>2014-03-12T10:58:37Z</time>
      </trkpt>
      <trkpt lat="49.1799" lon="6.85295">
        <ele>231.3</ele>
        <time>2014-03-12T10:58:42Z</time>
      </trkpt>
      <trkpt lat="49.17994" lon="6.85289">
        <ele>232.3</ele>
        <time>2014-03-12T10:58:47Z</time>
      </trkpt>
      <trkpt lat="49.17999" lon="6.85282">
        <ele>233.2</ele>
        <time>2014-03-12T10:58:52Z</time>
      </trkpt>
      <trkpt lat="49.18001" lon="6.85275">
        <ele>233.1</ele>
        <time>2014-03-12T10:58:57Z</time>
      </trkpt>
      <trkpt lat="49.18" lon="6.8527">
        <ele>232.7</ele>
        <time>2014-03-12T10:59:02Z</time>
      </trkpt>
      <trkpt lat="49.17997" lon="6.85264">
        <ele>232.8</ele>
        <time>2014-03-12T10:59:07Z</time>
      </trkpt>
      <trkpt lat="49.17994" lon="6.85259">
        <ele>233.3</ele>
        <time>2014-03-12T10:59:12Z</time>
      </trkpt>
      <trkpt lat="49.17991" lon="6.85256">
        <ele>233.3</ele>
        <time>2014-03-12T10:59:17Z</time>
      </trkpt>
      <trkpt lat="49.17992" lon="6.85251">
        <ele>233.1</ele>
        <time>2014-03-12T10:59:22Z</time>
      </trkpt>
      <trkpt lat="49.17993" lon="6.85246">
        <ele>233.6</ele>
        <time>2014-03-12T10:59:27Z</time>
      </trkpt>
      <trkpt lat="49.17993" lon="6.85244">
        <ele>233.2</ele>
        <time>2014-03-12T10:59:37Z</time>
      </trkpt>
      <trkpt lat="49.17992" lon="6.85243">
        <ele>234.1</ele>
        <time>2014-03-12T10:59:42Z</time>
      </trkpt>
      <trkpt lat="49.17992" lon="6.85242">
        <ele>233.4</ele>
        <time>2014-03-12T10:59:47Z</time>
      </trkpt>
      <trkpt lat="49.17992" lon="6.85241">
        <ele>233.4</ele>
        <time>2014-03-12T10:59:52Z</time>
      </trkpt>
      <trkpt lat="49.17991" lon="6.8524">
        <ele>233.2</ele>
        <time>2014-03-12T10:59:57Z</time>
      </trkpt>
      <trkpt lat="49.17991" lon="6.8524">
        <ele>233.4</ele>
        <time>2014-03-12T11:00:02Z</time>
      </trkpt>
      <trkpt lat="49.17991" lon="6.85239">
        <ele>233.3</ele>
        <time>2014-03-12T11:00:07Z</time>
      </trkpt>
      <trkpt lat="49.17991" lon="6.85239">
        <ele>233.5</ele>
        <time>2014-03-12T11:00:08Z</time>
      </trkpt>
    </trkseg>
  </trk>
</gpx>